[[{"header":{"parameterUnit":"m.s-1","parameterCategory":1,"la1":31.0,"la2":29.5877,"lo1":-88.7671,"lo2":-86.6584,"dy":0.0162,"dx":0.0185,"nx":115,"ny":88,"refTime":"2023-03-19T12:00:00:Z","depth":0,"parameterNumber":2,"parameterNumberName":"U-component_of_WINDS"},"data":[0.0,0.0,0.0,0.0,0.0,0.0,0.0,0.0,0.0,0.0,0.0,0.0,0.0,0.0,0.0,0.0,0.0,0.0,0.0,0.0,0.0,0.0,0.0,0.0,0.0,0.0,0.0,0.0,0.0,0.0,0.0,0.0,0.0,0.0,0.0,0.0,0.0,0.0,0.0,0.0,0.0,0.0,0.0,0.0,0.0,0.0,0.0,0.0,0.0,0.0,0.0,0.0,0.0,0.0,0.0,0.0,0.0,0.0,0.0,0.0,0.0,0.0,0.0,0.0,0.0,0.0,0.0,0.0,0.0,0.0,0.0,0.0,0.0,0.0,0.0,0.0,0.0,0.0,0.0,0.0,0.0,0.0,0.0,0.0,0.0,0.0,0.0,0.0,0.0,0.0,0.0,0.0,0.0,0.0,0.0,0.0,0.0,0.0,0.0,0.0,0.0,0.0,0.0,0.0,0.0,0.0,0.0,0.0,0.0,0.0,0.0,0.0,0.0,0.0,0.0,0.0,0.0,0.0,0.0,0.0,0.0,0.0,0.0,0.0,0.0,0.0,0.0,0.0,0.0,0.0,0.0,0.0,0.0,0.0,0.0,0.0,0.0,0.0,0.0,0.0,0.0,0.0,0.0,0.0,0.0,0.0,0.0,0.0,0.0,0.0,0.0,0.0,0.0,0.0,0.0,0.0,0.0,0.0,0.0,0.0,0.0,0.0,0.0,0.0,0.0,0.0,0.0,0.0,0.0,0.0,0.0,0.0,0.0,0.0,0.0,0.0,0.0,0.0,0.0,0.0,0.0,0.0,0.0,0.0,0.0,0.0,0.0,0.0,0.0,0.0,0.0,0.0,0.0,0.0,0.0,0.0,0.0,0.0,0.0,0.0,0.0,0.0,0.0,0.0,0.0,0.0,0.0,0.0,0.0,0.0,0.0,0.0,0.0,0.0,0.0,0.0,0.0,0.0,0.0,0.0,0.0,0.0,0.0,0.0,0.0,0.0,0.0,0.0,0.0,0.0,0.0,0.0,0.0,0.0,0.0,0.0,0.0,0.0,0.0,0.0,0.0,0.0,0.0,0.0,0.0,0.0,0.0,0.0,0.0,0.0,0.0,0.0,0.0,0.0,0.0,0.0,0.0,0.0,0.0,0.0,0.0,0.0,0.0,0.0,0.0,0.0,0.0,0.0,0.0,0.0,0.0,0.0,0.0,0.0,0.0,0.0,0.0,0.0,0.0,0.0,0.0,0.0,0.0,0.0,0.0,0.0,0.0,0.0,0.0,0.0,0.0,0.0,0.0,0.0,0.0,0.0,0.0,0.0,0.0,0.0,0.0,0.0,0.0,0.0,0.0,0.0,0.0,0.0,0.0,0.0,0.0,0.0,0.0,0.0,0.0,0.0,0.0,0.0,0.0,0.0,0.0,0.0,0.0,0.0,0.0,0.0,0.0,0.0,0.0,0.0,0.0,0.0,0.0,0.0,0.0,0.0,0.0,0.0,0.0,0.0,0.0,0.0,0.0,0.0,0.0,0.0,0.0,0.0,0.0,0.0,0.0,0.0,0.0,0.0,0.0,0.0,0.0,0.0,0.0,0.0,0.0,0.0,0.0,0.0,0.0,0.0,0.0,0.0,0.0,0.0,0.0,0.0,0.0,0.0,0.0,0.0,0.0,0.0,0.0,0.0,0.0,0.0,0.0,0.0,0.0,0.0,0.0,0.0,0.0,0.0,0.0,0.0,0.0,0.0,0.0,0.0,0.0,0.0,0.0,0.0,0.0,0.0,0.0,0.0,0.0,0.0,0.0,0.0,0.0,0.0,0.0,0.0,0.0,0.0,0.0,0.0,0.0,0.0,0.0,0.0,0.0,0.0,0.0,0.0,0.0,0.0,0.0,0.0,0.0,0.0,0.0,0.0,0.0,0.0,0.0,0.0,0.0,0.0,0.0,0.0,0.0,0.0,0.0,0.0,0.0,0.0,0.0,0.0,0.0,0.0,0.0,0.0,0.0,0.0,0.0,0.0,0.0,0.0,0.0,0.0,0.0,0.0,0.0,0.0,0.0,0.0,0.0,0.0,0.0,0.0,0.0,0.0,0.0,0.0,0.0,0.0,0.0,0.0,0.0,0.0,0.0,0.0,0.0,0.0,0.0,0.0,0.0,0.0,0.0,0.0,0.0,0.0,0.0,0.0,0.0,0.0,0.0,0.0,0.0,0.0,0.0,0.0,0.0,0.0,0.0,0.0,0.0,0.0,0.0,0.0,0.0,0.0,0.0,0.0,0.0,0.0,0.0,0.0,0.0,0.0,0.0,0.0,0.0,0.0,0.0,0.0,0.0,0.0,0.0,0.0,0.0,0.0,0.0,0.0,0.0,0.0,0.0,0.0,0.0,0.0,0.0,0.0,0.0,0.0,0.0,0.0,0.0,0.0,0.0,0.0,0.0,0.0,0.0,0.0,0.0,0.0,0.0,0.0,0.0,0.0,0.0,0.0,0.0,0.0,0.0,0.0,0.0,0.0,0.0,0.0,0.0,0.0,0.0,0.0,0.0,0.0,0.0,0.0,0.0,0.0,0.0,0.0,0.0,0.0,0.0,0.0,0.0,0.0,0.0,0.0,0.0,0.0,0.0,0.0,0.0,0.0,0.0,0.0,0.0,0.0,0.0,0.0,0.0,0.0,0.0,0.0,0.0,0.0,0.0,0.0,0.0,0.0,0.0,0.0,0.0,0.0,0.0,0.0,0.0,0.0,0.0,0.0,0.0,0.0,0.0,0.0,0.0,0.0,0.0,0.0,0.0,0.0,0.0,0.0,0.0,0.0,0.0,0.0,0.0,0.0,0.0,0.0,0.0,0.0,0.0,0.0,0.0,0.0,0.0,0.0,0.0,0.0,0.0,0.0,0.0,0.0,0.0,0.0,0.0,0.0,0.0,0.0,0.0,0.0,0.0,0.0,0.0,0.0,0.0,0.0,0.0,0.0,0.0,0.0,0.0,0.0,0.0,0.0,0.0,0.0,0.0,0.0,0.0,0.0,0.0,0.0,0.0,0.0,0.0,0.0,0.0,0.0,0.0,0.0,0.0,0.0,0.0,0.0,0.0,0.0,0.0,0.0,0.0,0.0,0.0,0.0,0.0,0.0,0.0,0.0,0.0,0.0,0.0,0.0,0.0,0.0,0.0,0.0,0.0,0.0,0.0,0.0,0.0,0.0,0.0,0.0,0.0,0.0,0.0,0.0,0.0,0.0,0.0,0.0,0.0,0.0,0.0,0.0,0.0,0.0,0.0,0.0,0.0,0.0,0.0,0.0,0.0,0.0,0.0,0.0,0.0,0.0,0.0,0.0,0.0,0.0,0.0,0.0,0.0,0.0,0.0,0.0,0.0,0.0,0.0,0.0,0.0,0.0,0.0,0.0,0.0,0.0,0.0,0.0,0.0,0.0,0.0,0.0,0.0,0.0,0.0,0.0,0.0,0.0,0.0,0.0,0.0,0.0,0.0,0.0,0.0,0.0,0.0,0.0,0.0,0.0,0.0,0.0,0.0,0.0,0.0,0.0,0.0,0.0,0.0,0.0,0.0,0.0,0.0,0.0,0.0,0.0,0.0,0.0,0.0,0.0,0.0,0.0,0.0,0.0,0.0,0.0,0.0,0.0,0.0,0.0,0.0,0.0,0.0,0.0,0.0,0.0,0.0,0.0,0.0,0.0,0.0,0.0,0.0,0.0,0.0,0.0,0.0,0.0,0.0,0.0,0.0,0.0,0.0,0.0,0.0,0.0,0.0,0.0,0.0,0.0,0.0,0.0,0.0,0.0,0.0,0.0,0.0,0.0,0.0,0.0,0.0,0.0,0.0,0.0,0.0,0.0,0.0,0.0,0.0,0.0,0.0,0.0,0.0,0.0,0.0,0.0,0.0,0.0,0.0,0.0,0.0,0.0,0.0,0.0,0.0,0.0,0.0,0.0,0.0,0.0,0.0,0.0,0.0,0.0,0.0,0.0,0.0,0.0,0.0,0.0,0.0,0.0,0.0,0.0,0.0,0.0,0.0,0.0,0.0,0.0,0.0,0.0,0.0,0.0,0.0,0.0,0.0,0.0,0.0,0.0,0.0,0.0,0.0,0.0,0.0,0.0,0.0,0.0,0.0,0.0,0.0,0.0,0.0,0.0,0.0,0.0,0.0,0.0,0.0,0.0,0.0,0.0,0.0,0.0,0.0,0.0,0.0,0.0,0.0,0.0,0.0,0.0,0.0,0.0,0.0,0.0,0.0,0.0,0.0,0.0,2.806,0.0,0.0,0.0,0.0,0.0,0.0,0.0,0.0,0.0,0.0,0.0,0.0,0.0,0.0,0.0,0.0,0.0,0.0,0.0,0.0,0.0,0.0,0.0,0.0,0.0,0.0,0.0,0.0,0.0,0.0,0.0,0.0,0.0,0.0,0.0,0.0,0.0,0.0,0.0,0.0,0.0,0.0,0.0,0.0,0.0,0.0,0.0,0.0,0.0,0.0,0.0,0.0,0.0,0.0,0.0,0.0,0.0,0.0,0.0,0.0,0.0,0.0,0.0,0.0,0.0,0.0,0.0,0.0,0.0,0.0,0.0,0.0,0.0,0.0,0.0,0.0,0.0,0.0,0.0,0.0,0.0,0.0,0.0,0.0,0.0,0.0,0.0,0.0,0.0,0.0,0.0,0.0,0.0,0.0,0.0,0.0,0.0,0.0,0.0,0.0,0.0,0.0,0.0,0.0,0.0,0.0,0.0,0.0,0.0,0.0,2.9913,2.957,3.001,2.9934,2.9217,0.0,0.0,0.0,0.0,0.0,0.0,0.0,0.0,0.0,0.0,0.0,0.0,0.0,0.0,0.0,0.0,0.0,0.0,0.0,0.0,0.0,0.0,0.0,0.0,0.0,0.0,0.0,0.0,0.0,0.0,0.0,0.0,0.0,0.0,0.0,0.0,0.0,0.0,0.0,0.0,0.0,0.0,0.0,0.0,0.0,0.0,0.0,0.0,0.0,0.0,0.0,0.0,0.0,0.0,0.0,0.0,0.0,0.0,0.0,0.0,0.0,0.0,0.0,0.0,0.0,0.0,0.0,0.0,0.0,0.0,0.0,0.0,0.0,0.0,0.0,0.0,0.0,0.0,0.0,0.0,0.0,0.0,0.0,0.0,0.0,0.0,0.0,0.0,0.0,0.0,0.0,0.0,0.0,0.0,0.0,0.0,0.0,0.0,0.0,0.0,0.0,0.0,0.0,0.0,0.0,0.0,0.0,0.0,0.0,0.0,0.0,0.0,3.0279,3.0355,3.0343,0.0,0.0,0.0,0.0,0.0,0.0,0.0,0.0,0.0,0.0,0.0,0.0,0.0,0.0,0.0,0.0,0.0,0.0,0.0,0.0,0.0,0.0,0.0,0.0,0.0,0.0,0.0,0.0,0.0,0.0,0.0,0.0,0.0,0.0,0.0,0.0,0.0,0.0,0.0,0.0,0.0,0.0,0.0,0.0,0.0,0.0,0.0,0.0,0.0,0.0,0.0,0.0,0.0,0.0,0.0,0.0,0.0,0.0,0.0,0.0,0.0,0.0,0.0,0.0,0.0,0.0,0.0,0.0,0.0,0.0,0.0,0.0,0.0,0.0,0.0,0.0,0.0,0.0,0.0,0.0,0.0,0.0,0.0,0.0,0.0,0.0,0.0,0.0,0.0,0.0,0.0,0.0,0.0,0.0,0.0,0.0,0.0,0.0,0.0,0.0,0.0,0.0,0.0,0.0,0.0,0.0,0.0,0.0,0.0,0.0,3.0075,3.0185,3.024,0.0,3.0458,0.0,0.0,0.0,0.0,0.0,0.0,0.0,0.0,0.0,0.0,0.0,0.0,0.0,0.0,0.0,0.0,0.0,0.0,0.0,0.0,0.0,0.0,0.0,0.0,0.0,0.0,0.0,0.0,0.0,0.0,0.0,0.0,0.0,0.0,0.0,0.0,0.0,0.0,0.0,0.0,0.0,0.0,0.0,0.0,0.0,0.0,0.0,0.0,0.0,0.0,0.0,0.0,0.0,0.0,0.0,0.0,0.0,0.0,0.0,0.0,0.0,0.0,0.0,0.0,0.0,0.0,0.0,0.0,0.0,0.0,0.0,0.0,0.0,0.0,0.0,0.0,0.0,0.0,0.0,0.0,0.0,0.0,0.0,0.0,0.0,0.0,0.0,0.0,0.0,0.0,0.0,0.0,0.0,0.0,0.0,0.0,0.0,0.0,0.0,0.0,0.0,0.0,0.0,0.0,0.0,0.0,0.0,0.0,0.0,0.0,3.1622,3.1718,3.1341,3.0887,0.0,0.0,0.0,0.0,0.0,0.0,0.0,0.0,0.0,0.0,0.0,0.0,0.0,0.0,0.0,0.0,0.0,0.0,0.0,0.0,0.0,0.0,0.0,0.0,0.0,0.0,0.0,0.0,0.0,0.0,0.0,0.0,0.0,0.0,0.0,0.0,0.0,0.0,0.0,0.0,0.0,0.0,0.0,0.0,0.0,0.0,0.0,0.0,0.0,0.0,0.0,0.0,0.0,0.0,0.0,0.0,0.0,0.0,0.0,0.0,0.0,0.0,0.0,0.0,0.0,0.0,0.0,0.0,0.0,0.0,0.0,0.0,0.0,0.0,0.0,0.0,0.0,0.0,0.0,0.0,0.0,0.0,0.0,0.0,0.0,0.0,0.0,0.0,0.0,0.0,0.0,0.0,0.0,0.0,0.0,0.0,0.0,0.0,0.0,0.0,0.0,0.0,0.0,0.0,0.0,0.0,0.0,0.0,0.0,0.0,3.231,3.2704,3.2812,3.2119,3.1405,3.0848,0.0,0.0,0.0,0.0,0.0,0.0,0.0,0.0,0.0,0.0,0.0,0.0,0.0,0.0,0.0,0.0,0.0,0.0,0.0,0.0,0.0,0.0,0.0,0.0,0.0,0.0,0.0,0.0,0.0,0.0,0.0,0.0,0.0,0.0,0.0,0.0,0.0,0.0,0.0,0.0,0.0,0.0,0.0,0.0,0.0,0.0,0.0,0.0,0.0,0.0,0.0,0.0,0.0,0.0,0.0,0.0,0.0,0.0,0.0,0.0,0.0,0.0,0.0,0.0,0.0,0.0,0.0,0.0,0.0,0.0,0.0,0.0,0.0,0.0,0.0,0.0,0.0,0.0,0.0,0.0,0.0,0.0,0.0,0.0,0.0,0.0,0.0,0.0,0.0,0.0,0.0,0.0,0.0,0.0,0.0,0.0,0.0,0.0,0.0,0.0,0.0,0.0,0.0,0.0,0.0,0.0,0.0,0.0,3.2592,3.268,3.2827,3.2976,3.2154,3.1725,0.0,0.0,0.0,0.0,0.0,0.0,0.0,0.0,0.0,0.0,0.0,0.0,0.0,0.0,0.0,0.0,0.0,0.0,0.0,0.0,0.0,0.0,0.0,0.0,0.0,0.0,0.0,0.0,0.0,0.0,0.0,0.0,0.0,0.0,0.0,0.0,0.0,0.0,0.0,0.0,0.0,0.0,0.0,0.0,0.0,0.0,0.0,0.0,0.0,0.0,0.0,0.0,0.0,0.0,0.0,0.0,0.0,0.0,0.0,0.0,0.0,0.0,0.0,0.0,0.0,0.0,0.0,0.0,0.0,0.0,0.0,0.0,0.0,0.0,0.0,0.0,0.0,0.0,0.0,0.0,0.0,0.0,0.0,0.0,0.0,0.0,0.0,0.0,0.0,0.0,0.0,0.0,0.0,0.0,0.0,0.0,0.0,0.0,0.0,0.0,0.0,0.0,0.0,0.0,0.0,0.0,0.0,0.0,0.0,3.3478,3.4117,3.4263,3.3775,3.3026,3.2325,0.0,0.0,0.0,0.0,0.0,0.0,0.0,0.0,0.0,0.0,0.0,0.0,0.0,0.0,0.0,0.0,0.0,0.0,0.0,0.0,0.0,0.0,0.0,0.0,0.0,0.0,0.0,0.0,0.0,0.0,0.0,0.0,0.0,0.0,0.0,0.0,0.0,0.0,0.0,0.0,0.0,0.0,0.0,0.0,0.0,0.0,0.0,0.0,0.0,0.0,0.0,0.0,0.0,0.0,0.0,0.0,0.0,0.0,0.0,0.0,0.0,0.0,0.0,0.0,0.0,0.0,0.0,0.0,0.0,0.0,0.0,0.0,0.0,0.0,0.0,0.0,0.0,0.0,0.0,0.0,0.0,0.0,0.0,0.0,0.0,0.0,0.0,0.0,0.0,0.0,0.0,0.0,0.0,0.0,0.0,0.0,0.0,0.0,0.0,0.0,0.0,0.0,0.0,0.0,0.0,0.0,0.0,0.0,0.0,3.4351,0.0,3.5251,3.4699,3.3948,3.3081,0.0,0.0,0.0,0.0,0.0,0.0,0.0,0.0,0.0,0.0,0.0,0.0,0.0,0.0,0.0,0.0,0.0,0.0,0.0,0.0,0.0,0.0,0.0,0.0,0.0,0.0,0.0,0.0,0.0,0.0,0.0,0.0,0.0,0.0,0.0,0.0,0.0,0.0,0.0,0.0,0.0,0.0,0.0,0.0,0.0,0.0,0.0,0.0,0.0,0.0,0.0,0.0,0.0,0.0,0.0,0.0,0.0,0.0,0.0,0.0,0.0,0.0,0.0,0.0,0.0,0.0,0.0,0.0,0.0,0.0,0.0,0.0,0.0,0.0,0.0,0.0,0.0,0.0,0.0,0.0,0.0,0.0,0.0,0.0,0.0,0.0,0.0,0.0,0.0,0.0,0.0,0.0,0.0,0.0,0.0,0.0,0.0,0.0,0.0,0.0,0.0,0.0,0.0,0.0,0.0,0.0,0.0,0.0,3.4137,3.5239,3.5593,3.5781,3.5665,3.4881,3.3981,0.0,0.0,0.0,0.0,0.0,0.0,0.0,0.0,0.0,0.0,0.0,0.0,0.0,0.0,0.0,0.0,0.0,0.0,0.0,0.0,0.0,0.0,0.0,0.0,0.0,0.0,0.0,0.0,0.0,0.0,0.0,0.0,0.0,0.0,0.0,0.0,0.0,0.0,0.0,0.0,0.0,0.0,0.0,0.0,0.0,0.0,0.0,0.0,0.0,0.0,0.0,0.0,0.0,0.0,0.0,0.0,0.0,0.0,0.0,0.0,0.0,0.0,0.0,0.0,0.0,0.0,0.0,0.0,0.0,0.0,0.0,0.0,0.0,0.0,0.0,0.0,0.0,0.0,0.0,0.0,0.0,0.0,0.0,0.0,0.0,0.0,0.0,0.0,0.0,0.0,0.0,0.0,0.0,0.0,0.0,0.0,0.0,0.0,0.0,0.0,0.0,0.0,0.0,0.0,0.0,0.0,0.0,0.0,0.0,3.6214,3.7023,3.7112,3.6555,3.5742,3.461,0.0,0.0,0.0,0.0,0.0,0.0,0.0,0.0,0.0,0.0,0.0,0.0,0.0,0.0,0.0,0.0,0.0,0.0,0.0,0.0,0.0,0.0,0.0,0.0,0.0,0.0,0.0,0.0,0.0,0.0,0.0,0.0,0.0,0.0,0.0,0.0,0.0,0.0,0.0,0.0,0.0,0.0,0.0,0.0,0.0,0.0,0.0,0.0,0.0,0.0,0.0,0.0,0.0,0.0,0.0,0.0,0.0,0.0,0.0,0.0,0.0,0.0,0.0,0.0,0.0,0.0,0.0,0.0,0.0,0.0,0.0,0.0,0.0,0.0,0.0,0.0,0.0,0.0,0.0,0.0,0.0,0.0,0.0,0.0,0.0,0.0,0.0,0.0,0.0,0.0,0.0,0.0,0.0,0.0,0.0,0.0,0.0,0.0,0.0,0.0,0.0,0.0,0.0,0.0,0.0,0.0,0.0,0.0,0.0,3.9427,3.9226,3.8878,3.8334,3.7522,3.6323,3.4621,0.0,0.0,0.0,0.0,0.0,0.0,0.0,0.0,0.0,0.0,0.0,0.0,0.0,0.0,0.0,0.0,0.0,0.0,0.0,0.0,0.0,0.0,0.0,0.0,0.0,0.0,0.0,0.0,0.0,0.0,0.0,0.0,0.0,0.0,0.0,0.0,0.0,0.0,0.0,0.0,0.0,0.0,0.0,0.0,0.0,0.0,0.0,0.0,0.0,0.0,0.0,0.0,0.0,0.0,0.0,0.0,0.0,0.0,0.0,0.0,0.0,0.0,0.0,0.0,0.0,0.0,0.0,0.0,0.0,0.0,0.0,0.0,0.0,0.0,0.0,0.0,0.0,0.0,0.0,0.0,0.0,0.0,0.0,0.0,0.0,0.0,0.0,0.0,0.0,0.0,0.0,0.0,0.0,0.0,0.0,0.0,0.0,0.0,0.0,0.0,0.0,0.0,0.0,0.0,0.0,0.0,0.0,0.0,4.4362,4.241,4.126,4.0991,4.0178,3.8876,0.0,0.0,0.0,0.0,0.0,0.0,0.0,0.0,0.0,0.0,0.0,0.0,0.0,0.0,0.0,0.0,0.0,0.0,0.0,0.0,0.0,0.0,0.0,0.0,0.0,0.0,0.0,0.0,0.0,0.0,0.0,0.0,0.0,0.0,0.0,0.0,0.0,0.0,0.0,0.0,0.0,0.0,0.0,0.0,0.0,0.0,0.0,0.0,0.0,0.0,0.0,0.0,0.0,0.0,0.0,0.0,0.0,0.0,0.0,0.0,0.0,0.0,0.0,0.0,0.0,0.0,0.0,0.0,0.0,0.0,0.0,0.0,0.0,0.0,0.0,0.0,0.0,0.0,0.0,0.0,0.0,0.0,0.0,0.0,0.0,0.0,0.0,0.0,0.0,0.0,0.0,0.0,0.0,0.0,0.0,0.0,0.0,0.0,0.0,0.0,0.0,0.0,0.0,0.0,0.0,0.0,0.0,0.0,0.0,4.6932,4.8317,4.7576,4.4538,4.3051,4.0861,0.0,0.0,0.0,0.0,0.0,0.0,0.0,0.0,0.0,0.0,0.0,0.0,0.0,0.0,0.0,0.0,0.0,0.0,0.0,0.0,0.0,0.0,0.0,0.0,0.0,0.0,0.0,0.0,0.0,0.0,0.0,0.0,0.0,0.0,0.0,0.0,0.0,0.0,0.0,0.0,0.0,0.0,0.0,0.0,0.0,0.0,0.0,0.0,0.0,0.0,0.0,0.0,0.0,0.0,0.0,0.0,0.0,0.0,0.0,0.0,0.0,0.0,0.0,0.0,0.0,0.0,0.0,0.0,0.0,0.0,0.0,0.0,0.0,0.0,0.0,0.0,0.0,0.0,0.0,0.0,0.0,0.0,0.0,0.0,0.0,0.0,0.0,0.0,0.0,0.0,0.0,0.0,0.0,0.0,0.0,0.0,0.0,0.0,0.0,0.0,0.0,0.0,0.0,0.0,0.0,0.0,0.0,0.0,4.7155,5.0626,5.3255,5.332,5.0547,4.7163,4.3995,0.0,0.0,0.0,0.0,0.0,0.0,0.0,0.0,0.0,0.0,0.0,0.0,0.0,0.0,0.0,0.0,0.0,0.0,0.0,0.0,0.0,0.0,0.0,0.0,0.0,0.0,0.0,0.0,0.0,0.0,0.0,0.0,0.0,0.0,0.0,0.0,0.0,0.0,0.0,0.0,0.0,0.0,0.0,0.0,0.0,0.0,0.0,0.0,0.0,0.0,0.0,0.0,0.0,0.0,0.0,0.0,0.0,0.0,0.0,0.0,0.0,0.0,0.0,0.0,0.0,0.0,0.0,0.0,0.0,0.0,0.0,0.0,0.0,0.0,0.0,0.0,0.0,0.0,0.0,0.0,0.0,0.0,0.0,0.0,0.0,0.0,0.0,0.0,0.0,0.0,0.0,0.0,0.0,0.0,0.0,0.0,0.0,0.0,0.0,0.0,0.0,0.0,0.0,0.0,0.0,0.0,0.0,0.0,5.0019,5.4426,5.7175,5.8165,5.728,5.1835,4.7516,0.0,0.0,0.0,0.0,0.0,0.0,0.0,0.0,0.0,0.0,0.0,0.0,0.0,0.0,0.0,0.0,0.0,0.0,0.0,0.0,0.0,0.0,0.0,0.0,0.0,0.0,0.0,0.0,0.0,0.0,0.0,0.0,0.0,0.0,0.0,0.0,0.0,0.0,0.0,0.0,0.0,0.0,0.0,0.0,0.0,0.0,0.0,0.0,0.0,0.0,0.0,0.0,0.0,0.0,0.0,0.0,0.0,0.0,0.0,0.0,0.0,0.0,0.0,0.0,0.0,0.0,0.0,0.0,0.0,0.0,0.0,0.0,0.0,0.0,0.0,0.0,0.0,0.0,0.0,0.0,0.0,0.0,0.0,0.0,0.0,0.0,0.0,0.0,0.0,0.0,0.0,0.0,0.0,0.0,0.0,0.0,0.0,0.0,0.0,0.0,0.0,0.0,0.0,0.0,0.0,0.0,0.0,0.0,5.1475,5.5361,5.8596,6.0165,5.9973,5.5017,5.014,0.0,0.0,0.0,0.0,0.0,0.0,0.0,0.0,0.0,0.0,0.0,0.0,0.0,0.0,0.0,0.0,0.0,0.0,0.0,0.0,0.0,0.0,0.0,0.0,0.0,0.0,0.0,0.0,0.0,0.0,0.0,0.0,0.0,0.0,0.0,0.0,0.0,0.0,0.0,0.0,0.0,0.0,0.0,0.0,0.0,0.0,0.0,0.0,3.6396,0.0,0.0,0.0,0.0,0.0,0.0,0.0,0.0,0.0,0.0,0.0,0.0,0.0,0.0,0.0,0.0,0.0,0.0,0.0,0.0,0.0,0.0,0.0,0.0,0.0,0.0,0.0,0.0,0.0,0.0,0.0,0.0,0.0,0.0,0.0,0.0,0.0,0.0,0.0,0.0,0.0,0.0,0.0,0.0,0.0,0.0,0.0,0.0,0.0,0.0,0.0,0.0,0.0,0.0,0.0,0.0,0.0,0.0,0.0,5.3322,5.7402,6.0402,6.1781,6.1281,5.7716,5.3181,0.0,0.0,0.0,0.0,0.0,0.0,0.0,0.0,0.0,0.0,0.0,0.0,0.0,0.0,0.0,0.0,0.0,0.0,0.0,0.0,0.0,0.0,0.0,0.0,0.0,0.0,0.0,0.0,0.0,0.0,0.0,0.0,0.0,0.0,0.0,0.0,0.0,0.0,0.0,0.0,0.0,0.0,0.0,0.0,0.0,0.0,0.0,0.0,0.0,0.0,0.0,0.0,0.0,0.0,0.0,0.0,0.0,0.0,0.0,0.0,0.0,0.0,0.0,0.0,0.0,0.0,0.0,0.0,0.0,0.0,0.0,0.0,0.0,0.0,0.0,0.0,0.0,0.0,0.0,0.0,0.0,0.0,0.0,0.0,0.0,0.0,0.0,0.0,0.0,0.0,0.0,0.0,0.0,0.0,0.0,0.0,0.0,0.0,0.0,0.0,0.0,0.0,0.0,0.0,0.0,0.0,0.0,5.0909,5.5247,5.9547,6.2194,6.3128,6.2281,5.9755,5.5673,5.0008,0.0,0.0,0.0,0.0,0.0,0.0,0.0,0.0,0.0,0.0,0.0,0.0,0.0,0.0,0.0,0.0,0.0,0.0,0.0,0.0,0.0,0.0,0.0,0.0,0.0,0.0,0.0,0.0,0.0,0.0,0.0,0.0,0.0,0.0,0.0,0.0,0.0,0.0,3.5369,3.7386,0.0,0.0,0.0,0.0,0.0,0.0,0.0,0.0,3.92,0.0,0.0,0.0,0.0,0.0,0.0,0.0,0.0,0.0,0.0,0.0,0.0,0.0,0.0,0.0,0.0,0.0,0.0,0.0,0.0,0.0,0.0,0.0,0.0,0.0,0.0,0.0,0.0,0.0,0.0,0.0,0.0,0.0,0.0,0.0,0.0,0.0,0.0,0.0,0.0,0.0,0.0,0.0,0.0,0.0,0.0,0.0,0.0,0.0,0.0,0.0,0.0,0.0,0.0,0.0,0.0,4.8277,5.2627,5.6721,6.0493,6.3103,6.3974,6.3089,6.0003,5.5924,5.0858,0.0,0.0,0.0,0.0,0.0,0.0,0.0,0.0,0.0,0.0,0.0,0.0,0.0,0.0,0.0,0.0,0.0,0.0,0.0,0.0,0.0,0.0,0.0,0.0,0.0,0.0,0.0,0.0,0.0,0.0,0.0,0.0,0.0,0.0,0.0,0.0,0.0,0.0,0.0,3.9646,4.0893,0.0,0.0,0.0,0.0,0.0,0.0,0.0,0.0,4.1046,0.0,0.0,0.0,0.0,0.0,0.0,0.0,0.0,0.0,0.0,0.0,0.0,0.0,0.0,0.0,0.0,0.0,0.0,0.0,0.0,0.0,0.0,0.0,0.0,0.0,0.0,0.0,0.0,0.0,0.0,0.0,0.0,0.0,0.0,0.0,0.0,0.0,0.0,0.0,0.0,0.0,0.0,0.0,0.0,0.0,0.0,0.0,0.0,0.0,0.0,0.0,0.0,0.0,0.0,0.0,4.9332,5.418,5.8462,6.2004,6.3732,6.4397,6.3897,6.0311,5.6406,0.0,0.0,0.0,0.0,0.0,0.0,0.0,0.0,0.0,0.0,0.0,0.0,0.0,0.0,0.0,0.0,0.0,0.0,0.0,0.0,0.0,0.0,0.0,0.0,0.0,0.0,0.0,0.0,0.0,0.0,0.0,0.0,0.0,0.0,0.0,0.0,0.0,0.0,0.0,0.0,4.1555,4.331,4.375,0.0,0.0,0.0,0.0,0.0,0.0,4.3739,4.3162,0.0,0.0,0.0,0.0,0.0,0.0,0.0,0.0,0.0,0.0,0.0,0.0,0.0,0.0,0.0,0.0,0.0,0.0,0.0,0.0,0.0,0.0,0.0,0.0,0.0,0.0,0.0,0.0,0.0,0.0,0.0,0.0,0.0,0.0,0.0,0.0,0.0,0.0,0.0,0.0,0.0,0.0,0.0,0.0,0.0,0.0,0.0,0.0,0.0,0.0,0.0,0.0,0.0,0.0,0.0,5.0938,5.5746,5.9983,6.3425,6.4424,6.4705,6.4282,6.0509,5.6753,0.0,0.0,0.0,0.0,0.0,0.0,0.0,0.0,0.0,0.0,0.0,0.0,0.0,0.0,0.0,0.0,0.0,0.0,0.0,0.0,0.0,0.0,0.0,0.0,0.0,0.0,0.0,0.0,0.0,0.0,0.0,0.0,0.0,0.0,0.0,0.0,0.0,0.0,0.0,0.0,0.0,4.577,4.7426,4.7118,0.0,0.0,0.0,0.0,4.6334,4.6219,0.0,0.0,0.0,0.0,0.0,0.0,0.0,0.0,0.0,0.0,0.0,0.0,0.0,0.0,0.0,0.0,0.0,0.0,0.0,0.0,0.0,0.0,0.0,0.0,0.0,0.0,0.0,0.0,0.0,0.0,0.0,0.0,0.0,0.0,0.0,0.0,0.0,0.0,0.0,0.0,0.0,0.0,0.0,0.0,0.0,0.0,0.0,0.0,0.0,0.0,0.0,0.0,0.0,0.0,0.0,0.0,5.4188,5.7512,6.0877,6.427,6.5295,6.5013,6.3474,6.0222,5.6559,0.0,0.0,0.0,0.0,0.0,0.0,0.0,0.0,0.0,0.0,0.0,0.0,0.0,0.0,0.0,0.0,0.0,0.0,0.0,0.0,0.0,0.0,0.0,0.0,0.0,0.0,0.0,0.0,0.0,0.0,0.0,0.0,0.0,0.0,0.0,0.0,0.0,0.0,0.0,0.0,0.0,4.8351,5.0046,5.0162,5.0162,0.0,0.0,4.8197,4.8929,4.8335,0.0,0.0,0.0,0.0,0.0,0.0,0.0,0.0,0.0,0.0,0.0,0.0,0.0,0.0,0.0,0.0,0.0,0.0,0.0,0.0,0.0,0.0,0.0,0.0,0.0,0.0,0.0,0.0,0.0,0.0,0.0,0.0,0.0,0.0,0.0,0.0,0.0,0.0,0.0,0.0,0.0,0.0,0.0,0.0,0.0,0.0,0.0,0.0,0.0,0.0,0.0,0.0,0.0,0.0,0.0,4.9306,5.4776,5.8361,6.1851,6.5193,6.568,6.5282,6.4051,6.092,5.7253,0.0,0.0,0.0,0.0,0.0,0.0,0.0,0.0,0.0,0.0,0.0,0.0,0.0,0.0,0.0,0.0,0.0,0.0,0.0,0.0,0.0,0.0,0.0,0.0,0.0,0.0,0.0,0.0,0.0,0.0,0.0,0.0,0.0,0.0,0.0,0.0,0.0,0.0,0.0,0.0,0.0,0.0,5.2511,5.2897,0.0,0.0,0.0,5.1393,5.2204,0.0,0.0,0.0,0.0,0.0,0.0,0.0,0.0,0.0,0.0,0.0,0.0,0.0,0.0,0.0,0.0,0.0,0.0,0.0,0.0,0.0,0.0,0.0,0.0,0.0,0.0,0.0,0.0,0.0,0.0,0.0,0.0,0.0,0.0,0.0,0.0,0.0,0.0,0.0,0.0,0.0,0.0,0.0,0.0,0.0,0.0,0.0,0.0,0.0,0.0,0.0,0.0,0.0,0.0,0.0,0.0,0.0,5.5465,5.9192,6.2682,6.5756,6.5897,6.5359,6.4282,6.1383,0.0,0.0,0.0,0.0,0.0,0.0,0.0,0.0,0.0,0.0,0.0,0.0,0.0,0.0,0.0,0.0,0.0,0.0,0.0,0.0,0.0,0.0,0.0,0.0,0.0,0.0,0.0,2.9699,0.0,0.0,0.0,0.0,0.0,0.0,0.0,0.0,0.0,0.0,0.0,0.0,0.0,0.0,5.1411,5.4767,5.5403,5.5769,0.0,0.0,5.4728,5.5093,5.4051,5.2569,0.0,0.0,0.0,0.0,0.0,0.0,0.0,0.0,0.0,0.0,0.0,0.0,0.0,0.0,0.0,0.0,0.0,0.0,0.0,0.0,0.0,0.0,0.0,0.0,0.0,0.0,0.0,0.0,0.0,0.0,0.0,0.0,0.0,0.0,0.0,0.0,0.0,0.0,0.0,0.0,0.0,0.0,0.0,0.0,0.0,0.0,0.0,0.0,0.0,0.0,0.0,0.0,0.0,0.0,0.0,5.7145,6.0367,6.3284,6.5782,6.5897,6.5089,6.3435,6.1125,5.8259,0.0,0.0,0.0,0.0,0.0,0.0,0.0,0.0,0.0,0.0,0.0,0.0,0.0,0.0,0.0,0.0,0.0,0.0,0.0,0.0,0.0,0.0,0.0,0.0,0.0,0.0,0.0,0.0,0.0,0.0,0.0,0.0,0.0,0.0,0.0,0.0,0.0,0.0,0.0,0.0,0.0,5.3147,5.6483,5.7641,5.8161,0.0,0.0,5.7814,5.7058,5.6746,5.5822,5.3398,0.0,0.0,0.0,0.0,0.0,0.0,0.0,0.0,0.0,0.0,0.0,0.0,0.0,0.0,0.0,0.0,0.0,0.0,0.0,0.0,0.0,0.0,0.0,0.0,0.0,0.0,0.0,0.0,0.0,0.0,0.0,0.0,0.0,0.0,0.0,0.0,0.0,0.0,0.0,0.0,0.0,0.0,0.0,0.0,0.0,0.0,0.0,0.0,0.0,0.0,0.0,0.0,0.0,5.2322,5.7358,6.0992,6.4078,6.6513,6.6654,6.6076,6.4936,6.2651,5.9824,0.0,0.0,0.0,0.0,0.0,0.0,0.0,0.0,0.0,0.0,0.0,0.0,0.0,0.0,0.0,0.0,0.0,0.0,0.0,0.0,0.0,0.0,0.0,0.0,0.0,0.0,0.0,0.0,3.3341,3.4047,3.4599,0.0,0.0,0.0,0.0,0.0,0.0,0.0,0.0,0.0,0.0,5.4053,5.7387,5.9044,0.0,0.0,6.0641,6.0393,5.9644,5.8603,5.7022,5.4591,5.179,0.0,0.0,0.0,0.0,0.0,0.0,0.0,0.0,0.0,0.0,0.0,0.0,0.0,0.0,0.0,0.0,0.0,0.0,0.0,0.0,0.0,0.0,0.0,0.0,0.0,0.0,0.0,0.0,0.0,0.0,0.0,0.0,0.0,0.0,0.0,0.0,0.0,0.0,0.0,0.0,0.0,0.0,0.0,0.0,0.0,0.0,0.0,0.0,0.0,0.0,0.0,0.0,5.2949,5.7711,6.1693,6.4808,6.7025,6.7359,6.6974,6.5897,6.3916,6.133,0.0,0.0,0.0,0.0,0.0,0.0,0.0,0.0,0.0,0.0,0.0,0.0,0.0,0.0,0.0,0.0,0.0,0.0,0.0,0.0,0.0,0.0,0.0,0.0,0.0,0.0,0.0,0.0,3.4704,3.5422,3.6284,0.0,0.0,0.0,0.0,0.0,0.0,0.0,0.0,0.0,0.0,5.5287,5.8603,6.0376,6.161,6.2442,6.2789,6.2579,6.1579,6.0171,5.8375,5.5921,0.0,0.0,0.0,0.0,0.0,0.0,0.0,0.0,0.0,0.0,0.0,0.0,0.0,0.0,0.0,0.0,0.0,0.0,0.0,0.0,0.0,0.0,0.0,0.0,0.0,0.0,0.0,0.0,0.0,0.0,3.9915,0.0,0.0,0.0,0.0,0.0,0.0,0.0,0.0,0.0,0.0,0.0,0.0,0.0,0.0,0.0,0.0,0.0,0.0,0.0,0.0,0.0,0.0,5.4409,5.8538,6.2547,6.5423,6.7076,6.7933,6.7614,6.6013,6.4526,6.2544,5.988,0.0,0.0,0.0,0.0,0.0,0.0,0.0,0.0,0.0,0.0,0.0,0.0,0.0,0.0,0.0,0.0,0.0,0.0,0.0,0.0,0.0,0.0,0.0,0.0,0.0,0.0,3.6753,3.6848,3.7146,0.0,0.0,0.0,0.0,0.0,0.0,0.0,0.0,0.0,0.0,5.4188,5.7022,6.0441,6.1657,6.2583,6.3535,6.4329,6.4251,6.2627,6.1658,6.0205,0.0,0.0,0.0,0.0,0.0,0.0,0.0,0.0,0.0,0.0,0.0,0.0,0.0,0.0,0.0,0.0,0.0,0.0,0.0,0.0,0.0,0.0,0.0,0.0,0.0,0.0,0.0,4.3992,4.3791,0.0,0.0,0.0,0.0,0.0,0.0,0.0,0.0,0.0,0.0,0.0,4.9672,4.9617,0.0,0.0,0.0,0.0,0.0,0.0,0.0,0.0,0.0,0.0,0.0,0.0,5.539,5.9495,6.3444,6.659,6.8744,6.9102,6.9025,6.8436,6.6513,6.3806,6.0314,0.0,0.0,0.0,0.0,0.0,0.0,0.0,0.0,0.0,0.0,0.0,0.0,0.0,0.0,0.0,0.0,0.0,0.0,0.0,0.0,0.0,0.0,0.0,0.0,0.0,3.6803,0.0,0.0,0.0,0.0,0.0,0.0,0.0,0.0,0.0,0.0,0.0,5.0632,5.3415,5.6502,5.9302,6.1543,6.307,6.4307,0.0,0.0,0.0,0.0,0.0,0.0,0.0,0.0,0.0,0.0,0.0,0.0,0.0,0.0,5.309,5.0008,4.897,4.8471,4.8145,0.0,0.0,0.0,0.0,0.0,0.0,0.0,0.0,0.0,0.0,0.0,0.0,0.0,0.0,4.8007,0.0,4.7611,0.0,0.0,0.0,0.0,0.0,0.0,0.0,0.0,5.1825,5.3795,5.5354,5.5746,5.5538,0.0,5.3133,5.0837,0.0,0.0,0.0,0.0,0.0,0.0,0.0,0.0,5.6694,6.0829,6.4468,6.7564,6.9975,7.0102,7.0102,7.009,6.7927,6.5178,6.1874,5.9569,5.6747,0.0,0.0,0.0,0.0,0.0,0.0,0.0,0.0,0.0,0.0,0.0,0.0,0.0,0.0,0.0,0.0,0.0,0.0,0.0,0.0,0.0,0.0,0.0,3.934,0.0,0.0,0.0,0.0,0.0,0.0,0.0,0.0,0.0,4.8314,5.0593,5.324,5.602,5.8568,6.0945,6.2955,0.0,0.0,0.0,0.0,0.0,0.0,0.0,6.431,6.2952,6.2199,6.194,6.2297,6.2601,6.2596,6.2056,0.0,0.0,5.4708,5.3282,5.2779,5.2472,5.3356,5.4126,5.4126,5.5742,5.7203,0.0,0.0,0.0,0.0,0.0,0.0,0.0,0.0,5.3045,5.3433,0.0,5.2193,0.0,0.0,0.0,0.0,0.0,4.8863,0.0,0.0,5.7311,6.0021,6.1633,6.2943,6.328,6.2536,6.0201,5.8285,5.6458,5.0798,0.0,0.0,0.0,0.0,0.0,0.0,5.8462,6.2604,6.5656,6.8433,7.0882,7.0986,7.0975,7.0887,6.8894,6.6711,6.4492,6.2734,6.0234,5.6797,5.3338,0.0,0.0,0.0,0.0,0.0,0.0,0.0,0.0,0.0,0.0,0.0,0.0,0.0,0.0,0.0,0.0,0.0,0.0,0.0,0.0,4.2293,0.0,0.0,0.0,0.0,0.0,0.0,0.0,0.0,0.0,0.0,5.1228,5.3317,5.602,5.9377,0.0,0.0,0.0,0.0,6.6554,6.7665,6.848,6.8735,6.7969,6.7316,6.6567,6.5746,0.0,0.0,6.7046,6.8049,6.8574,6.8613,6.7716,6.524,5.8886,5.7555,5.7011,5.628,5.7473,5.8473,5.8742,6.0666,6.2512,6.5263,0.0,0.0,0.0,0.0,5.5831,5.6983,5.876,5.9465,5.9475,5.8869,5.8329,0.0,0.0,0.0,0.0,0.0,0.0,5.6399,5.9139,6.2011,6.4332,6.6256,6.7006,6.6921,6.6123,6.5217,6.3604,6.1377,5.9613,5.5798,5.0199,0.0,0.0,0.0,0.0,6.1334,6.5435,6.7774,7.019,7.2717,7.2727,7.2294,7.136,7.0717,6.9323,6.7148,6.539,6.3164,6.0312,5.6873,0.0,0.0,0.0,0.0,0.0,0.0,0.0,0.0,0.0,0.0,0.0,0.0,0.0,0.0,0.0,0.0,0.0,0.0,0.0,4.246,4.3015,4.3557,0.0,0.0,0.0,0.0,0.0,0.0,0.0,0.0,0.0,5.6907,5.7851,5.9413,0.0,0.0,6.5351,6.676,6.7599,6.8181,6.8394,6.9149,0.0,6.9297,6.9731,7.0058,6.9807,7.0096,7.0367,7.0218,7.0735,7.0991,7.0375,7.0028,6.9155,6.7346,6.4397,6.2512,6.2204,6.2974,6.3897,6.4551,6.6167,6.7552,7.4592,6.7666,6.3836,6.2003,6.1687,6.1981,6.3075,6.467,6.545,6.5277,6.4399,6.4149,6.2634,6.0154,5.8479,0.0,0.0,0.0,6.1757,6.3817,6.6748,6.8918,7.0421,7.1325,7.1257,7.0422,6.9882,6.8498,6.6315,6.5974,6.3015,5.7645,0.0,0.0,5.7528,6.0449,6.3878,6.7638,6.9347,7.142,7.3909,7.3986,7.3486,7.2542,7.2152,7.1273,6.9765,6.8047,6.5937,6.3359,6.0586,5.7333,0.0,0.0,0.0,0.0,0.0,0.0,0.0,0.0,0.0,0.0,0.0,3.6779,0.0,0.0,0.0,0.0,4.3101,4.4984,4.6187,4.6331,0.0,0.0,0.0,0.0,0.0,0.0,0.0,5.2817,5.5629,5.8414,6.0925,6.2511,6.3748,6.4579,6.5857,6.7174,6.8414,0.0,6.9881,7.017,7.0921,7.1479,7.141,7.2065,7.2677,7.3081,7.3424,7.3635,7.3408,7.357,7.3514,7.3053,7.2937,7.2822,7.2476,7.0283,6.8205,6.7321,6.7782,6.8552,6.9013,7.0244,7.1283,8.3452,8.0688,7.2927,6.8911,6.7731,6.8365,6.9045,6.9747,7.1098,7.0946,6.9679,6.9534,6.8171,6.5871,6.4316,0.0,6.1373,6.4955,6.6973,6.7864,7.1249,7.3265,7.4139,7.5359,7.5592,7.4755,7.4063,7.2842,7.118,7.0364,6.9124,6.7357,6.3384,6.1573,6.1895,6.3732,6.6268,6.9459,7.0622,7.2361,7.4745,7.4822,7.4591,7.4053,7.3239,7.2569,7.2031,7.039,6.8359,6.5898,6.4101,6.1118,5.6796,0.0,0.0,0.0,0.0,0.0,0.0,0.0,0.0,0.0,0.0,0.0,0.0,0.0,0.0,0.0,4.6808,0.0,5.1061,5.1354,0.0,0.0,0.0,5.274,5.2794,5.3531,5.469,5.6387,0.0,0.0,6.3763,6.6973,6.8381,6.6714,6.7113,6.8241,6.9981,7.0884,7.1593,7.2368,7.3257,7.3837,7.3698,7.4077,7.4645,7.5408,7.553,7.5564,7.5991,7.5976,7.5938,7.5784,7.5938,7.5668,7.4899,7.4514,7.4053,7.1668,7.1822,7.236,7.2437,7.3091,7.3822,8.7499,8.5172,8.3151,7.9439,7.4904,7.5702,7.6085,7.614,7.7051,7.6804,7.5599,7.4896,7.2563,6.9064,6.7792,6.6926,6.6491,6.8219,6.9828,7.1439,7.2917,7.4296,7.5501,7.581,7.5899,7.5707,7.5515,7.487,7.3841,7.3601,7.2601,7.0986,6.9865,6.8091,6.5743,6.7323,6.927,7.141,7.2967,7.4341,7.563,7.5707,7.5399,7.4755,7.4073,7.3378,7.2773,7.0625,6.8867,6.7617,6.5273,6.2303,5.8621,5.5957,0.0,0.0,0.0,0.0,0.0,0.0,0.0,0.0,0.0,4.1944,4.3286,0.0,4.7178,0.0,5.1167,5.3279,5.3685,5.4283,0.0,0.0,5.6991,5.7666,5.876,5.9746,6.0943,6.2547,6.4359,6.6206,6.8096,7.0204,7.1312,7.0798,7.1029,7.1611,7.2716,7.293,7.3073,7.3369,7.3986,7.4483,7.4576,7.5348,7.6171,7.6753,7.6513,7.6358,7.6503,7.6207,7.5976,7.5976,7.5976,7.5899,7.5707,7.5668,7.5515,7.4899,7.4437,7.4322,7.4938,7.5245,7.5476,9.1461,8.9859,8.909,8.6402,8.2482,8.1215,8.058,8.0496,8.0891,8.0628,7.9838,7.825,7.5803,7.2966,7.2434,7.1757,7.105,7.2623,7.3682,7.4396,7.5468,7.6207,7.6553,7.6583,7.6361,7.6015,7.5976,7.5745,7.5293,7.5284,7.4784,7.3899,7.3457,7.2284,7.0392,7.0451,7.1401,7.3146,7.4474,7.5456,7.5976,7.5976,7.5697,7.5033,7.3971,7.3094,7.2456,7.0467,6.9021,6.8161,6.6755,6.4406,6.0939,5.9022,5.6064,0.0,0.0,0.0,0.0,0.0,0.0,0.0,0.0,0.0,0.0,0.0,5.1586,5.3978,5.6868,5.8741,5.9147,6.0017,6.0925,6.1872,6.2414,6.3033,6.3747,6.4634,6.562,6.6877,6.8126,6.9387,7.0735,7.2353,7.3405,7.3322,7.3728,7.4076,7.4154,7.414,7.4202,7.4588,7.5033,7.5361,7.5515,7.6126,7.6738,7.7058,7.6927,7.669,7.6584,7.6322,7.6092,7.6015,7.5976,7.5976,7.5976,7.5976,7.5976,7.5938,7.563,7.5476,7.5899,7.5976,7.5976,9.4829,9.3873,9.246,9.0922,8.9217,8.5694,8.4087,8.3787,8.369,8.3468,8.299,8.0461,7.8467,7.704,7.7034,7.6268,7.4959,7.6844,7.7322,7.6746,7.7959,7.8151,7.7468,7.7429,7.7006,7.6169,7.6169,7.613,7.6015,7.5976,7.5976,7.5976,7.5245,7.4841,7.4681,7.3176,7.3146,7.4664,7.5602,7.6071,7.6015,7.6092,7.5841,7.5066,7.3644,7.2524,7.1758,7.0257,6.901,6.8151,6.7995,6.6444,6.3214,6.2235,5.9863,0.0,5.4879,0.0,0.0,0.0,0.0,0.0,0.0,0.0,0.0,5.3662,5.648,6.0423,6.2909,6.4624,6.5445,6.6438,6.7038,6.7106,6.7811,6.8265,6.8239,6.8737,6.9398,7.0244,7.0975,7.1706,7.2629,7.4014,7.4861,7.4861,7.5361,7.5543,7.5053,7.4861,7.513,7.5938,7.5976,7.6015,7.6409,7.6553,7.6738,7.707,7.7031,7.6836,7.6645,7.6409,7.6245,7.6053,7.5976,7.5976,7.5976,7.5976,7.5976,7.5976,7.5938,7.5938,7.5976,7.5976,7.5976,9.6174,9.4791,9.4484,9.3009,9.0901,9.0172,8.8721,8.6893,8.7532,8.6926,8.5291,8.2765,8.1113,8.0145,7.9016,7.8216,7.7735,7.7717,7.7823,7.8108,7.8361,7.8438,7.8262,7.8284,7.7852,7.7083,7.7053,7.6669,7.5976,7.5976,7.5976,7.5976,7.5802,7.5656,7.561,0.0,0.0,0.0,7.6555,7.6707,7.6053,7.6727,7.6409,7.4896,7.4208,0.0,7.1598,7.0177,6.8991,6.8132,6.7468,0.0,0.0,0.0,0.0,0.0,0.0,0.0,0.0,0.0,0.0,0.0,6.1636,6.0383,5.7487,6.0519,6.359,6.562,6.7509,6.8665,6.8783,6.9695,7.0568,7.1236,7.1595,7.2006,7.2507,7.2619,7.2947,7.3668,7.3899,7.4284,7.5053,7.5592,7.5745,7.5707,7.5899,7.5938,7.5784,7.5707,7.5822,7.5976,7.5976,7.613,7.6544,7.6591,7.6738,7.707,7.7031,7.6836,7.663,7.6441,7.6236,7.6015,7.5976,7.5976,7.5976,7.5976,7.5976,7.5976,7.5976,7.5976,7.5976,7.5976,7.5976,9.6788,0.0,9.5172,9.4292,0.0,9.2291,9.1243,8.9999,8.9251,8.7832,8.6017,8.4747,8.3484,8.2292,8.1555,8.0898,8.0369,8.0098,7.9901,7.9785,7.9785,7.9561,7.9146,7.9169,7.8707,7.7869,7.7476,7.7092,7.6659,7.6207,7.5976,7.5976,7.5985,7.5947,7.5976,7.5887,7.5864,7.5884,7.6394,7.6417,7.6024,7.6467,7.6072,7.4857,7.4324,0.0,0.0,0.0,0.0,0.0,0.0,0.0,0.0,0.0,0.0,6.3544,6.409,6.4056,6.3124,6.4817,6.6121,6.6536,6.773,6.7046,6.3698,6.6144,6.8333,6.9566,7.121,7.2184,7.2206,7.3119,7.3935,7.4431,7.4526,7.4697,7.5053,7.4976,7.4976,7.5284,7.5322,7.5515,7.5938,7.5976,7.5976,7.5976,7.5976,7.5976,7.5976,7.5976,7.5976,7.5976,7.5976,7.613,7.6524,7.6591,7.6738,7.707,7.7109,7.6914,7.6651,7.6521,7.6322,7.6092,7.5976,7.5976,7.5976,7.5976,7.5976,7.5976,7.5976,7.5976,7.5976,7.5976,7.5976,9.7173,9.6249,9.5518,9.5172,9.4866,9.3364,9.2518,9.2098,0.0,0.0,0.0,8.6478,8.5445,8.4066,8.3868,8.3362,8.2554,8.2516,8.2163,8.157,8.1393,8.0939,8.0254,8.0092,7.9561,7.8723,7.8023,7.7583,7.7275,7.6583,7.613,7.6015,7.5976,7.5976,7.5976,7.5976,7.5976,7.5938,7.6079,7.6117,7.5994,7.6169,7.5803,7.4791,7.4417,7.3452,7.178,7.1351,7.0748,6.9894,6.9855,6.985,6.9845,6.9863,6.9521,6.8857,6.937,6.9381,6.8559,6.9822,7.0696,7.0821,7.2091,7.1953,6.9759,7.0798,7.1937,7.2783,7.413,7.4938,7.4938,7.5745,7.6379,7.6591,7.6441,7.6399,7.6544,7.6284,7.5976,7.6015,7.5938,7.5976,7.5976,7.5976,7.5976,7.5976,7.5976,7.5976,7.5976,7.5976,7.5976,7.5976,7.5976,7.613,7.6475,7.6591,7.6777,7.7109,7.7187,7.707,7.6749,7.6626,7.6486,7.613,7.6053,7.6015,7.5976,7.5976,7.5976,7.5976,7.5976,7.5976,7.5976,7.5976,7.5976,9.7711,9.6288,9.6172,9.5711,9.4943,9.3941,9.271,9.1325,9.0223,8.957,8.929,8.7825,8.6671,8.5709,8.5055,8.4247,8.3439,8.3401,8.3356,8.3195,8.2471,8.2086,8.1932,8.1246,8.0477,7.9677,7.9485,7.8669,7.7429,7.7198,7.6746,7.6092,7.5976,7.5976,7.5976,7.5976,7.5976,7.6015,7.6707,7.6746,7.6053,7.6765,7.6409,7.4896,7.5059,7.4381,7.2717,7.2846,7.2518,7.1678,7.1634,7.1623,7.1646,7.1646,7.1545,7.1326,7.1848,7.2056,7.1864,7.3196,7.435,7.5053,7.5322,7.4976,7.3966,7.4014,7.4514,7.5361,7.563,7.5822,7.5861,7.6092,7.638,7.6569,7.6563,7.6583,7.6611,7.639,7.6169,7.6015,7.5976,7.5976,7.5976,7.5976,7.5976,7.5976,7.5976,7.5976,7.5976,7.5976,7.5976,7.5976,7.5976,7.6169,7.6486,7.6591,7.6777,7.7145,7.7226,7.7148,7.6875,7.6719,7.6542,7.6284,7.6092,7.6015,7.5976,7.5976,7.5976,7.5976,7.5976,7.5976,7.5976,7.5976,7.5976,9.7827,9.6365,9.6288,9.6095,9.5597,9.4287,9.2749,9.121,9.0752,9.0329,8.9829,8.9094,8.8017,8.6824,8.644,8.5786,8.4939,8.4516,8.4286,8.4209,8.3433,8.3009,8.3002,8.2663,8.2016,8.117,8.0708,7.9862,7.8661,7.7746,7.7092,7.6698,7.6245,7.5976,7.5976,7.5976,7.5976,7.6015,7.6361,7.6399,7.6015,7.639,7.6265,7.5495,7.5748,7.5365,7.4211,7.4396,7.4175,7.3437,7.3398,7.363,7.4095,7.4134,7.4292,7.4687,7.487,7.491,7.4735,7.513,7.5592,7.5976,7.5976,7.5822,7.5438,7.5399,7.5592,7.5938,7.5976,7.5976,7.6015,7.6169,7.6361,7.6583,7.6533,7.6498,7.6544,7.6314,7.6092,7.6015,7.5976,7.5976,7.5976,7.5976,7.5976,7.5976,7.5976,7.5976,7.5976,7.5976,7.5976,7.5976,7.5976,7.6169,7.6534,7.6591,7.6777,7.7145,7.7187,7.7109,7.6953,7.6729,7.6527,7.6332,7.613,7.6015,7.5976,7.5976,7.5976,7.5976,7.5976,7.5976,7.5976,7.5976,7.5976,9.7827,9.6288,9.6288,9.6095,9.5595,9.4287,9.2749,9.1248,9.121,9.0825,9.0213,9.0021,8.906,8.7748,8.7478,8.6901,8.6094,8.5478,8.517,8.5099,8.4286,8.3894,8.3856,8.374,8.3247,8.2554,8.1747,8.09,7.9977,7.8592,7.763,7.7275,7.6438,7.5976,7.5976,7.5976,7.5976,7.5976,7.5976,7.5976,7.5976,7.5976,7.5976,7.6015,7.6169,7.6096,7.5641,7.5801,7.5664,7.5234,7.5195,7.5508,7.6133,7.6172,7.6484,7.7109,7.6987,7.6789,7.6544,7.6207,7.5976,7.5976,7.5976,7.5976,7.5976,7.5976,7.5976,7.5976,7.5976,7.5976,7.6015,7.613,7.6342,7.6533,7.6427,7.6361,7.6536,7.6301,7.6053,7.6015,7.5976,7.5976,7.5976,7.5976,7.5976,7.5976,7.5976,7.5976,7.5976,7.5976,7.5976,7.5976,7.5976,7.613,7.6496,7.6591,7.6777,7.7148,7.7226,7.7148,7.6992,7.6786,7.6591,7.6391,7.6169,7.6015,7.5976,7.5976,7.5976,7.5976,7.5976,7.5976,7.5976,7.5976,7.5976,9.7827,9.6403,9.6288,9.5365,9.398,9.3749,9.271,9.1287,9.121,9.1171,9.0979,9.0252,8.9406,8.8517,8.7748,8.6978,8.6132,8.6017,8.5978,8.5901,8.517,8.4824,8.4676,8.4016,8.3561,8.3374,8.2599,8.1785,8.0939,7.9977,7.8784,7.7361,7.6438,7.6015,7.5976,7.5976,7.5976,7.5976,7.5976,7.5976,7.5976,7.5976,7.5976,7.5976,7.6169,7.6352,7.6403,7.6663,7.6836,7.6953,7.6914,7.6992,7.7031,7.707,7.7109,7.7187,7.7014,7.673,7.637,7.613,7.6015,7.5976,7.5976,7.5976,7.5976,7.5976,7.5976,7.5976,7.5976,7.5976,7.5976,7.6015,7.6225,7.6536,7.64,7.6355,7.6507,7.6419,7.6207,7.6015,7.5976,7.5976,7.5976,7.5976,7.5976,7.5976,7.5976,7.5976,7.5976,7.5976,7.5976,7.5976,7.5976,7.6169,7.6486,7.6591,7.6777,7.7109,7.7226,7.7187,7.707,7.6864,7.6591,7.6507,7.6245,7.6015,7.5976,7.5976,7.5976,7.5976,7.5976,7.5976,7.5976,7.5976,7.5976,9.7827,9.6288,9.5749,9.4557,9.3095,9.2979,9.2326,9.1248,9.121,9.121,9.1171,9.0825,8.994,8.8709,8.8325,8.744,8.6132,8.6094,8.6094,8.6094,8.5747,8.5593,8.5593,8.5286,8.483,8.4297,8.3516,8.2593,8.1708,8.0477,7.8946,7.7438,7.6929,7.6544,7.6053,7.5976,7.5976,7.5976,7.5976,7.5976,7.5976,7.5976,7.5976,7.6015,7.6053,7.6207,7.6437,7.6615,7.6828,7.6992,7.7148,7.7226,7.7226,7.7226,7.7226,7.7187,7.7013,7.6768,7.6486,7.6284,7.613,7.6015,7.5976,7.5976,7.5976,7.5976,7.5976,7.5976,7.5976,7.5976,7.6015,7.6092,7.6233,7.6389,7.6326,7.6314,7.6419,7.6245,7.6092,7.6015,7.5976,7.5976,7.5976,7.5976,7.5976,7.5976,7.5976,7.5976,7.5976,7.5976,7.5976,7.5976,7.5976,7.6169,7.6524,7.6591,7.6777,7.707,7.7226,7.7226,7.7148,7.6875,7.6591,7.658,7.6275,7.6053,7.5976,7.5976,7.5976,7.5976,7.5976,7.5976,7.5976,7.5976,7.5976,9.7673,9.5942,9.5018,9.3826,9.2518,9.2518,9.1979,9.1248,9.121,9.121,9.121,9.121,9.0402,8.9171,8.9017,8.8094,8.6594,8.644,8.6324,8.6132,8.6094,8.6094,8.6094,8.6094,8.5824,8.5137,8.4362,8.3401,8.224,8.06,7.9177,7.8092,7.7545,7.6967,7.6399,7.6169,7.5976,7.5976,7.5976,7.5976,7.5976,7.5976,7.5976,7.5976,7.5976,7.6092,7.639,7.6544,7.6729,7.6953,7.7109,7.7226,7.7226,7.7226,7.7226,7.7187,7.7031,7.6802,7.662,7.6398,7.6207,7.6015,7.5976,7.5976,7.5976,7.5976,7.5976,7.5976,7.5976,7.5976,7.6015,7.613,7.6207,7.6284,7.6284,7.6284,7.6284,7.6169,7.6053,7.6015,7.5976,7.5976,7.5976,7.5976,7.5976,7.5976,7.5976,7.5976,7.5976,7.5976,7.5976,7.5976,7.5976,7.613,7.6419,7.6591,7.6777,7.6992,7.7148,7.7226,7.7187,7.6875,7.6621,7.6596,7.6272,7.6092,7.6015,7.5976,7.5976,7.5976,7.5976,7.5976,7.5976,7.5976,7.5976,9.7326,9.5057,9.4134,9.3249,9.2479,9.2479,9.1979,9.121,9.121,9.121,9.121,9.121,9.071,8.9902,8.9863,8.894,8.7478,8.7286,8.6863,8.6209,8.6132,8.6094,8.6094,8.6094,8.6055,8.5863,8.5093,8.3901,8.2285,8.0677,7.9792,7.9592,7.8122,7.7314,7.7053,7.6361,7.6015,7.5976,7.5976,7.5976,7.5976,7.5976,7.5976,7.5976,7.5976,7.6169,7.6506,7.6573,7.6788,7.7148,7.7187,7.7226,7.7226,7.7226,7.7226,7.7187,7.7031,7.6809,7.6621,7.6451,7.6207,7.6053,7.6015,7.5976,7.5976,7.5976,7.5976,7.5976,7.5976,7.5976,7.5976,7.6015,7.6092,7.6245,7.6284,7.6284,7.6284,7.6245,7.6169,7.6053,7.5976,7.5976,7.5976,7.5976,7.5976,7.5976,7.5976,7.5976,7.5976,7.5976,7.5976,7.5976,7.6015,7.6053,7.6293,7.6475,7.6677,7.6914,7.7109,7.7226,7.7148,7.7022,7.6819,7.6643,7.6365,7.6159,7.6053,7.5976,7.5976,7.5976,7.5976,7.5976,7.5976,7.5976,7.5976,9.648,9.4134,9.3287,9.2441,9.171,9.1672,9.1479,9.121,9.121,9.121,9.121,9.121,9.1018,9.071,9.0748,8.9825,8.8248,8.7671,8.7209,8.6863,8.6363,8.6094,8.6094,8.6094,8.6094,8.5978,8.5253,8.4016,8.2439,8.167,8.0823,7.9746,7.8631,7.7823,7.7246,7.6438,7.5976,7.5976,7.5976,7.5976,7.5976,7.5976,7.5976,7.5976,7.5976,7.6053,7.6207,7.6436,7.666,7.679,7.7052,7.7226,7.7226,7.7226,7.7226,7.7187,7.7148,7.6989,7.6816,7.6573,7.6399,7.6207,7.6092,7.5976,7.5976,7.5976,7.5976,7.5976,7.5976,7.5976,7.5976,7.5976,7.6015,7.6092,7.6092,7.6092,7.6092,7.6092,7.6053,7.6015,7.5976,7.5976,7.5976,7.5976,7.5976,7.5976,7.5976,7.5976,7.5976,7.5976,7.5976,7.5976,7.5976,7.6015,7.6092,7.6415,7.668,7.6875,7.7031,7.7148,7.7187,7.6953,7.6726,7.6612,7.6392,7.6198,7.6015,7.5976,7.5976,7.5976,7.5976,7.5976,7.5976,7.5976,7.5976,9.5288,9.3672,9.2518,9.1748,9.121,9.121,9.121,9.121,9.121,9.121,9.121,9.121,9.121,9.121,9.121,9.0633,8.944,8.8363,8.7671,8.7325,8.6517,8.6094,8.6094,8.6094,8.6094,8.5978,8.5291,8.4253,8.317,8.2586,8.1739,8.0631,7.9515,7.8515,7.7669,7.6823,7.6322,7.6092,7.5976,7.5976,7.5976,7.5976,7.5976,7.6053,7.6284,7.6322,7.613,7.6444,7.6653,7.6731,7.7016,7.7226,7.7226,7.7226,7.7226,7.7226,7.7226,7.7109,7.6914,7.6708,7.6521,7.6313,7.6092,7.5976,7.5976,7.5976,7.5976,7.5976,7.5976,7.5976,7.5976,7.5976,7.5976,7.6015,7.6053,7.6053,7.6015,7.6053,7.6053,7.6015,7.5976,7.5976,7.5976,7.5976,7.5976,7.5976,7.5976,7.5976,7.5976,7.5976,7.5976,7.5976,7.5976,7.5976,7.6092,7.636,7.6575,7.6758,7.707,7.7187,7.7148,7.6914,7.6704,7.6575,7.6382,7.6184,7.6053,7.6015,7.5976,7.5976,7.5976,7.5976,7.5976,7.5976,7.5976,9.3749,9.348,9.1902,9.1248,9.121,9.121,9.121,9.121,9.121,9.121,9.121,9.121,9.121,9.121,9.121,9.1133,9.071,8.9363,8.8286,8.7517,8.6555,8.6094,8.6094,8.6094,8.6094,8.6055,8.533,8.4907,8.4632,8.3317,8.2432,8.1939,8.0554,7.9361,7.8515,7.766,7.6813,7.6245,7.6053,7.6015,7.6015,7.613,7.6169,7.6245,7.6899,7.7015,7.6438,7.6611,7.6904,7.7044,7.7226,7.7265,7.7422,7.7422,7.7305,7.7422,7.7344,7.7226,7.707,7.6956,7.6826,7.6492,7.6207,7.613,7.6015,7.5976,7.5976,7.5976,7.5976,7.5976,7.5976,7.5976,7.5976,7.6015,7.613,7.6169,7.6053,7.6169,7.6207,7.6053,7.5976,7.5976,7.5976,7.5976,7.5976,7.5976,7.5976,7.5976,7.5976,7.5976,7.5976,7.5976,7.5976,7.5976,7.613,7.6303,7.6482,7.668,7.6992,7.7226,7.7187,7.6994,7.6824,7.6665,7.6378,7.6198,7.6015,7.5976,7.5976,7.5976,7.5976,7.5976,7.5976,7.5976,7.5976,9.3672,9.348,9.1902,9.121,9.121,9.121,9.121,9.121,9.121,9.121,9.121,9.121,9.121,9.121,9.121,9.121,9.1095,9.0017,8.9094,8.8171,8.6824,8.617,8.6132,8.6132,8.6094,8.6055,8.5863,8.544,8.4901,8.4362,8.3555,8.2324,8.1246,8.0246,7.9361,7.8045,7.7121,7.689,7.6284,7.6284,7.6823,7.6899,7.713,7.7669,7.7977,7.8015,7.7823,7.8151,7.8325,7.8379,7.875,7.8906,7.8906,7.8906,7.8945,7.8906,7.8906,7.8906,7.8828,7.8582,7.8117,7.7562,7.7227,7.6736,7.613,7.6053,7.6053,7.6053,7.6015,7.5976,7.5976,7.5976,7.6053,7.6015,7.6053,7.6092,7.6015,7.6053,7.6053,7.6015,7.5976,7.5976,7.5976,7.5976,7.5976,7.5976,7.5976,7.5976,7.5976,7.5976,7.5976,7.5976,7.5976,7.5976,7.6092,7.6255,7.649,7.6676,7.6953,7.7187,7.7187,7.7131,7.6937,7.6668,7.6403,7.6226,7.6082,7.5976,7.5976,7.5976,7.5976,7.5976,7.5976,7.5976,7.5976,9.3672,9.348,9.1902,9.121,9.121,9.121,9.121,9.121,9.121,9.121,9.121,9.121,9.121,9.121,9.121,9.121,9.1095,9.0287,8.9633,8.9017,8.7786,8.7055,8.7089,8.705,8.7055,8.6978,8.6709,8.6324,8.5824,8.5176,8.433,8.3285,8.2131,8.1131,8.0246,7.8977,7.8092,7.7737,7.7237,7.7198,7.763,7.7746,7.8015,7.8438,7.8784,7.8977,7.9015,7.9661,7.9752,7.9306,7.9494,7.9687,7.9726,7.9687,7.9726,7.9726,7.9687,7.9687,7.9687,7.9375,7.9125,7.8434,7.8177,7.7737,7.7092,7.6938,7.6899,7.6938,7.6976,7.6938,7.6938,7.6938,7.6938,7.6938,7.6361,7.6053,7.5976,7.5976,7.5976,7.5976,7.5976,7.5976,7.5976,7.5976,7.5976,7.5976,7.5976,7.5976,7.5976,7.5976,7.5976,7.5976,7.5976,7.6015,7.6015,7.6195,7.6455,7.6715,7.6953,7.7109,7.7187,7.7148,7.7015,7.663,7.636,7.6121,7.5976,7.5976,7.5976,7.5976,7.5976,7.5976,7.5976,7.5976,7.5976,9.3749,9.348,9.1941,9.1287,9.121,9.121,9.121,9.121,9.121,9.121,9.121,9.121,9.121,9.121,9.121,9.121,9.1056,9.0482,9.0059,8.9825,8.9133,8.8743,8.8397,8.8359,8.8359,8.8325,8.7786,8.7401,8.7055,8.594,8.4978,8.4555,8.3247,8.2016,8.117,8.0254,7.94,7.8631,7.843,7.8391,7.8554,7.8592,7.8669,7.8784,7.9477,7.9862,8.0015,8.0858,8.0856,7.9623,7.9883,8.0117,7.9922,7.9883,8.0039,8.0078,7.9922,8.0039,7.9883,7.9961,7.9609,7.9236,7.9017,7.8738,7.8361,7.813,7.813,7.8169,7.8246,7.8323,7.8284,7.8284,7.8284,7.8246,7.7207,7.6476,7.6207,7.6245,7.6438,7.6361,7.6169,7.6169,7.6361,7.6284,7.6169,7.613,7.6092,7.5976,7.5976,7.5976,7.5976,7.5976,7.5976,7.5976,7.6015,7.6159,7.6456,7.663,7.6875,7.707,7.7187,7.7109,7.6992,7.6653,7.636,7.6121,7.5976,7.5976,7.5976,7.5976,7.5976,7.5976,7.5976,7.5976,7.5976,9.4287,9.3595,9.2556,9.1787,9.1248,9.121,9.121,9.121,9.121,9.121,9.121,9.121,9.121,9.121,9.121,9.121,9.1133,9.0941,9.0864,9.0825,9.0671,8.9748,8.8902,8.8714,8.8752,8.8752,8.8521,8.8021,8.744,8.6901,8.6094,8.4939,8.4407,8.3407,8.2093,8.1208,8.0323,7.9477,7.8792,7.89,7.94,7.9438,7.9785,8.04,8.0592,8.0746,8.0769,8.1368,8.171,8.153,8.1562,8.164,8.1523,8.1484,8.1445,8.1445,8.1523,8.1562,8.1562,8.1484,8.1054,8.0177,8.0009,7.9515,7.8554,7.8515,7.8477,7.8477,7.8477,7.8554,7.8515,7.8554,7.8554,7.8438,7.813,7.7823,7.7746,7.7823,7.7823,7.7823,7.7746,7.7707,7.7592,7.7246,7.6938,7.6861,7.6476,7.6092,7.6169,7.5976,7.5976,7.5976,7.5976,7.5976,7.6053,7.6207,7.6388,7.6596,7.6797,7.7031,7.707,7.707,7.6875,7.6606,7.6388,7.6169,7.6053,7.5976,7.5976,7.5976,7.5976,7.5976,7.5976,7.5976,7.5976,9.448,9.3633,9.2826,9.1979,9.1248,9.121,9.121,9.121,9.121,9.121,9.121,9.121,9.121,9.121,9.121,9.121,9.121,9.121,9.1171,9.1171,9.1133,9.0594,8.994,8.9752,8.9752,8.9713,8.9371,8.8983,8.8402,8.7786,8.6863,8.6017,8.5253,8.4368,8.3478,8.217,8.14,8.0785,8.0061,7.9869,8.0285,8.0362,8.0554,8.1016,8.1093,8.1131,8.1223,8.154,8.1889,8.2187,8.2304,8.2304,8.2304,8.2304,8.2304,8.2304,8.2304,8.2304,8.2304,8.2304,8.1875,8.1165,8.0937,8.053,7.9862,7.9592,7.9592,7.9631,7.9592,7.9592,7.9592,7.9592,7.9592,7.9669,7.9592,7.9285,7.8631,7.84,7.8477,7.8477,7.8477,7.8477,7.8515,7.8054,7.7861,7.763,7.7092,7.6784,7.6592,7.6284,7.6053,7.6092,7.6015,7.5976,7.5976,7.6092,7.636,7.6571,7.6836,7.7031,7.707,7.7031,7.6914,7.6719,7.6484,7.6245,7.6169,7.6053,7.5976,7.5976,7.5976,7.5976,7.5976,7.5976,7.5976,9.4557,9.3636,9.2941,9.2056,9.1287,9.121,9.121,9.121,9.121,9.121,9.121,9.121,9.121,9.121,9.121,9.121,9.121,9.121,9.121,9.121,9.121,9.1018,9.0941,9.0902,9.0902,9.0864,9.0329,8.9944,8.944,8.8325,8.7632,8.7017,8.5829,8.5099,8.4478,8.3285,8.2593,8.2247,8.1708,8.1246,8.1246,8.1208,8.1208,8.1054,8.1093,8.1208,8.1359,8.163,8.187,8.2226,8.2304,8.2304,8.2304,8.2304,8.2304,8.2304,8.2304,8.2304,8.2304,8.2304,8.2125,8.1671,8.162,8.1547,8.0977,8.0785,8.0785,8.0746,8.1054,8.0862,8.0862,8.0977,8.0862,8.0785,8.0939,8.0285,7.9246,7.8746,7.8746,7.8784,7.8823,7.8784,7.8746,7.8669,7.8631,7.8592,7.7977,7.7515,7.7207,7.6823,7.6553,7.6399,7.6207,7.5976,7.5976,7.6015,7.6272,7.6543,7.6838,7.707,7.7109,7.707,7.6992,7.6836,7.664,7.645,7.6245,7.6169,7.6053,7.5976,7.5976,7.5976,7.5976,7.5976,7.5976,9.5134,9.3674,9.3482,9.2595,9.1325,9.121,9.121,9.121,9.121,9.121,9.121,9.121,9.121,9.121,9.121,9.121,9.121,9.121,9.121,9.121,9.121,9.121,9.121,9.121,9.121,9.1133,9.1018,9.0556,8.9902,8.944,8.8671,8.7478,8.7094,8.617,8.5016,8.4593,8.3939,8.3394,8.3118,8.2586,8.2124,8.2047,8.1816,8.1323,8.1131,8.1208,8.1393,8.162,8.1815,8.2031,8.2226,8.2304,8.2304,8.2304,8.2304,8.2304,8.2304,8.2304,8.2304,8.2265,8.2125,8.1792,8.1708,8.1516,8.117,8.1093,8.1093,8.1093,8.1093,8.1093,8.1093,8.1093,8.1093,8.1093,8.1093,8.0977,8.0631,8.0477,8.0362,8.04,8.04,8.0516,8.0439,7.9785,7.9592,7.9438,7.8938,7.8361,7.79,7.7476,7.7207,7.6976,7.6515,7.6322,7.6284,7.6236,7.6272,7.6498,7.6819,7.707,7.7148,7.7148,7.707,7.6992,7.6875,7.6637,7.6436,7.6284,7.6169,7.6092,7.5976,7.5976,7.5976,7.5976,7.5976,9.4903,9.371,9.329,9.2402,9.1325,9.121,9.121,9.121,9.121,9.121,9.121,9.121,9.121,9.121,9.121,9.121,9.121,9.121,9.121,9.121,9.121,9.121,9.121,9.121,9.121,9.121,9.1171,9.0864,9.0556,9.0094,8.9402,8.8594,8.8205,8.7325,8.617,8.567,8.4978,8.4247,8.3785,8.3324,8.2978,8.2894,8.2778,8.2124,8.1593,8.1285,8.1816,8.1739,8.1746,8.1889,8.2148,8.2304,8.2304,8.2304,8.2304,8.2304,8.2304,8.2304,8.2304,8.2304,8.2141,8.1867,8.1769,8.1543,8.1285,8.117,8.1093,8.1093,8.1093,8.1093,8.1093,8.1093,8.1093,8.1093,8.1093,8.1093,8.1093,8.1093,8.1093,8.1093,8.0977,8.1016,8.0862,8.0516,8.0477,8.0246,7.9669,7.9092,7.8861,7.8477,7.8054,7.7669,7.7053,7.6707,7.663,7.6506,7.6321,7.6531,7.6788,7.6992,7.7148,7.7148,7.7187,7.707,7.6953,7.6758,7.6566,7.6405,7.6236,7.6092,7.5976,7.5976,7.5976,7.5976,7.5976,9.448,9.3633,9.2864,9.2018,9.1287,9.121,9.121,9.121,9.121,9.121,9.121,9.121,9.121,9.121,9.121,9.121,9.121,9.121,9.121,9.121,9.121,9.121,9.121,9.121,9.121,9.121,9.121,9.1133,9.0941,9.0517,9.0017,8.9748,8.921,8.8209,8.7363,8.6709,8.5901,8.5099,8.4522,8.4061,8.383,8.3785,8.3702,8.3195,8.2432,8.1823,8.2163,8.207,8.1878,8.1742,8.2071,8.2265,8.2304,8.2304,8.2304,8.2304,8.2304,8.2304,8.2304,8.2304,8.2187,8.2031,8.1826,8.161,8.1424,8.1208,8.1131,8.1093,8.1093,8.1093,8.1093,8.1093,8.1093,8.1093,8.1093,8.1093,8.1093,8.1093,8.1093,8.1093,8.1093,8.1093,8.1093,8.09,8.1016,8.0977,8.0362,7.99,7.9708,7.9361,7.8938,7.8477,7.79,7.7515,7.74,7.6938,7.6755,7.6885,7.7027,7.7031,7.7187,7.7187,7.7187,7.7148,7.7031,7.6836,7.665,7.6482,7.6311,7.6072,7.5976,7.5976,7.5976,7.5976,7.5976,9.448,9.3595,9.2864,9.1982,9.1287,9.121,9.121,9.121,9.121,9.121,9.121,9.121,9.121,9.121,9.121,9.121,9.121,9.121,9.121,9.121,9.121,9.121,9.121,9.121,9.121,9.121,9.121,9.121,9.1171,9.1018,9.0556,9.0017,8.979,8.8983,8.7902,8.7171,8.6748,8.6017,8.5522,8.5209,8.4786,8.4555,8.4324,8.3849,8.324,8.2824,8.2509,8.2648,8.2432,8.182,8.211,8.2265,8.2304,8.2304,8.2304,8.2304,8.2304,8.2304,8.2304,8.2304,8.2187,8.1992,8.1805,8.1624,8.1417,8.1208,8.1093,8.1093,8.1093,8.1093,8.1093,8.1093,8.1093,8.1093,8.1093,8.1093,8.1093,8.1093,8.1093,8.1093,8.1093,8.1093,8.1093,8.1093,8.1093,8.1093,8.0823,8.0554,8.0477,8.0131,7.9708,7.9285,7.8823,7.8515,7.8284,7.7669,7.7266,7.7421,7.7485,7.7246,7.7305,7.7226,7.7187,7.7187,7.7148,7.6992,7.678,7.6588,7.6365,7.6159,7.6053,7.5976,7.5976,7.5976,7.5976,9.3826,9.3015,9.2172,9.1595,9.1248,9.121,9.121,9.121,9.121,9.121,9.121,9.121,9.121,9.121,9.121,9.121,9.121,9.121,9.121,9.121,9.121,9.121,9.121,9.121,9.121,9.121,9.121,9.121,9.121,9.1171,9.0941,9.071,9.0594,8.994,8.8863,8.8248,8.7594,8.6901,8.6324,8.594,8.5478,8.5209,8.4786,8.478,8.4087,8.3632,8.367,8.2855,8.269,8.237,8.2112,8.2089,8.214,8.2148,8.2187,8.2265,8.2304,8.2304,8.2304,8.2304,8.2226,8.2148,8.187,8.1679,8.1512,8.1285,8.1093,8.1093,8.1093,8.1093,8.1093,8.1093,8.1093,8.1093,8.1093,8.1093,8.1093,8.1093,8.1093,8.1093,8.1093,8.1093,8.1093,8.1093,8.1093,8.1093,8.1093,8.1093,8.1093,8.0746,8.0285,8.0092,7.9631,7.9208,7.8938,7.84,7.8054,7.8177,7.8085,7.7829,7.7773,7.7851,7.75,7.7265,7.7148,7.7187,7.6895,7.6682,7.6459,7.6236,7.6092,7.6015,7.6015,7.5976,7.5976,9.321,9.2438,9.1556,9.121,9.121,9.121,9.121,9.121,9.121,9.121,9.121,9.121,9.121,9.121,9.121,9.121,9.121,9.121,9.121,9.121,9.121,9.121,9.121,9.121,9.121,9.121,9.121,9.121,9.121,9.121,9.121,9.1095,9.1171,9.0748,8.9825,8.9171,8.8402,8.7478,8.6786,8.6324,8.5978,8.5555,8.5401,8.5978,8.4786,8.4439,8.4522,8.3901,8.32,8.2862,8.2458,8.2059,8.202,8.2007,8.207,8.2187,8.2265,8.2304,8.2304,8.2304,8.2304,8.2265,8.1953,8.1807,8.1628,8.1362,8.1093,8.1093,8.1093,8.1093,8.1093,8.1093,8.1093,8.1093,8.1093,8.1093,8.1093,8.1093,8.1093,8.1093,8.1093,8.1093,8.1093,8.1093,8.1093,8.1093,8.1093,8.1093,8.1093,8.1093,8.0823,8.0785,8.0439,7.99,7.9515,7.9169,7.8977,7.9075,7.8899,7.8581,7.8589,7.8633,7.8281,7.793,7.7539,7.75,7.7109,7.678,7.6475,7.6276,7.6139,7.6053,7.6015,7.5976,7.5976,9.3249,9.2402,9.1556,9.121,9.121,9.121,9.121,9.121,9.121,9.121,9.121,9.121,9.121,9.121,9.121,9.121,9.121,9.121,9.121,9.121,9.121,9.121,9.121,9.121,9.121,9.121,9.121,9.121,9.121,9.121,9.121,9.121,9.1133,9.0825,9.0133,8.9752,8.8906,8.7709,8.7319,8.6896,8.6247,8.6017,8.5978,8.5978,8.5786,8.544,8.5099,8.4632,8.4219,8.3228,8.3103,8.2701,8.22,8.1985,8.1981,8.207,8.2187,8.2304,8.2304,8.2304,8.2304,8.2265,8.207,8.1914,8.1655,8.1323,8.1093,8.1093,8.1093,8.1093,8.1093,8.1093,8.1093,8.1093,8.1093,8.1093,8.1093,8.1093,8.1093,8.1093,8.1093,8.1093,8.1093,8.1093,8.1093,8.1093,8.1093,8.1093,8.1093,8.1093,8.1093,8.0977,8.0939,8.0477,8.0208,7.9862,7.9823,7.9977,7.9811,7.9455,7.9385,7.9416,7.9375,7.9023,7.8476,7.793,7.7695,7.7258,7.6691,7.6378,7.6216,7.6092,7.6015,7.5976,7.5976,9.2518,9.1748,9.1364,9.121,9.121,9.121,9.121,9.121,9.121,9.121,9.121,9.121,9.121,9.121,9.121,9.121,9.121,9.121,9.121,9.121,9.121,9.121,9.121,9.121,9.121,9.121,9.121,9.121,9.121,9.121,9.121,9.121,9.121,9.1095,9.0517,9.0136,8.956,8.8748,8.794,8.7242,8.6786,8.6363,8.6094,8.6094,8.6094,8.5863,8.5632,8.5132,8.4978,8.4142,8.3656,8.2862,8.2476,8.2134,8.1801,8.1836,8.2031,8.2187,8.2265,8.2304,8.2304,8.2265,8.2104,8.1871,8.1543,8.1285,8.1093,8.1093,8.1093,8.1093,8.1093,8.1093,8.1093,8.1093,8.1093,8.1093,8.1093,8.1093,8.1093,8.1093,8.1093,8.1093,8.1093,8.1093,8.1093,8.1093,8.1093,8.1093,8.1093,8.1093,8.1093,8.1093,8.1054,8.0939,8.0823,8.0631,8.0631,8.0746,8.097,8.0631,8.0296,8.0207,8.0183,7.987,7.9297,7.8789,7.8355,7.7659,7.6988,7.6609,7.6313,7.6169,7.6092,7.5976,7.5976,9.1787,9.121,9.121,9.121,9.121,9.121,9.121,9.121,9.121,9.121,9.121,9.121,9.121,9.121,9.121,9.121,9.121,9.121,9.121,9.121,9.121,9.121,9.121,9.121,9.121,9.121,9.121,9.121,9.121,9.121,9.121,9.121,9.121,9.1171,9.1018,9.0636,9.0098,8.9598,8.844,8.7671,8.7281,8.6786,8.6401,8.617,8.6094,8.6094,8.6017,8.5632,8.544,8.4972,8.4214,8.3498,8.3188,8.2786,8.2502,8.2548,8.2688,8.2851,8.2812,8.2695,8.2383,8.2226,8.2065,8.1773,8.1552,8.1246,8.1093,8.1093,8.1093,8.1093,8.1093,8.1093,8.1093,8.1093,8.1093,8.1093,8.1093,8.1093,8.1093,8.1093,8.1093,8.1093,8.1093,8.1093,8.1093,8.1093,8.1093,8.1093,8.1093,8.1093,8.1093,8.1093,8.1093,8.1093,8.1054,8.1093,8.1208,8.1323,8.1516,8.1556,8.1037,8.096,8.1031,8.0602,8.0078,7.9791,7.9469,7.8356,7.734,7.7149,7.6905,7.6409,7.6207,7.613,7.6245,9.1248,9.121,9.121,9.121,9.121,9.121,9.121,9.121,9.121,9.121,9.121,9.121,9.121,9.121,9.121,9.121,9.121,9.121,9.121,9.121,9.121,9.121,9.121,9.121,9.121,9.121,9.121,9.121,9.121,9.121,9.121,9.121,9.121,9.121,9.1171,9.0979,9.0598,9.0059,8.9056,8.8209,8.7743,8.7209,8.6863,8.6247,8.6094,8.6094,8.6094,8.594,8.5747,8.544,8.4908,8.4414,8.3944,8.3564,8.3401,8.3413,8.3574,8.3771,8.3828,8.3086,8.2422,8.2226,8.1987,8.1757,8.1638,8.1285,8.1131,8.1093,8.1093,8.1093,8.1093,8.1093,8.1093,8.1093,8.1093,8.1093,8.1093,8.1093,8.1093,8.1093,8.1093,8.1093,8.1093,8.1093,8.1093,8.1093,8.1093,8.1093,8.1093,8.1093,8.1093,8.1093,8.1093,8.1093,8.1093,8.1131,8.117,8.1246,8.1439,8.1594,8.1547,8.1611,8.157,8.1423,8.0975,8.0752,8.0493,7.9663,7.8847,7.806,7.7542,7.7213,7.6861,7.6746,7.6899,9.121,9.121,9.121,9.121,9.121,9.121,9.121,9.121,9.121,9.121,9.121,9.121,9.121,9.121,9.121,9.121,9.121,9.121,9.121,9.121,9.121,9.121,9.121,9.121,9.121,9.121,9.121,9.121,9.121,9.121,9.121,9.121,9.121,9.121,9.121,9.121,9.0979,9.0633,8.9863,8.9017,8.8286,8.7555,8.6978,8.6209,8.6094,8.6094,8.6094,8.6094,8.6055,8.5889,8.5467,8.5059,8.4696,8.4286,8.4055,8.4055,8.4236,8.4488,8.4492,8.3672,8.2929,8.2265,8.1948,8.1679,8.1677,8.1323,8.1131,8.1093,8.1093,8.1093,8.1093,8.1093,8.1093,8.1093,8.1093,8.1093,8.1093,8.1093,8.1093,8.1093,8.1093,8.1093,8.1093,8.1093,8.1093,8.1093,8.1093,8.1093,8.1093,8.1093,8.1093,8.1093,8.1093,8.1093,8.1093,8.1093,8.1093,8.1208,8.1323,8.153,8.1698,8.1844,8.1847,8.1842,8.1817,8.1504,8.1252,8.1004,8.0251,7.9091,7.8567,7.8286,7.79,7.74,7.763,9.121,9.121,9.121,9.121,9.121,9.121,9.121,9.121,9.121,9.121,9.121,9.121,9.121,9.121,9.121,9.121,9.121,9.121,9.121,9.121,9.121,9.121,9.121,9.121,9.121,9.121,9.121,9.121,9.121,9.121,9.121,9.121,9.121,9.121,9.121,9.121,9.121,9.1018,9.0633,8.9863,8.9094,8.8248,8.7401,8.6594,8.6286,8.6094,8.6094,8.6094,8.617,8.6055,8.5857,8.5517,8.5247,8.4978,8.4632,8.4632,8.4751,8.4964,8.4951,8.414,8.3398,8.2851,8.2026,8.1796,8.1628,8.1323,8.1093,8.1093,8.1093,8.1093,8.1093,8.1093,8.1093,8.1093,8.1093,8.1093,8.1093,8.1093,8.1093,8.1093,8.1093,8.1093,8.1093,8.1093,8.1093,8.1093,8.1093,8.1093,8.1093,8.1093,8.1093,8.1093,8.1093,8.1093,8.1093,8.1093,8.1093,8.117,8.1278,8.1494,8.1656,8.1841,8.199,8.1942,8.1983,8.2045,8.1837,8.1437,8.0717,7.9845,7.9361,7.8823,7.84,7.8015,7.84,9.121,9.121,9.121,9.121,9.121,9.121,9.121,9.121,9.121,9.121,9.121,9.121,9.121,9.121,9.121,9.121,9.121,9.121,9.121,9.121,9.121,9.121,9.121,9.121,9.121,9.121,9.121,9.121,9.121,9.121,9.121,9.121,9.121,9.121,9.121,9.121,9.121,9.1171,9.1133,9.0556,8.9752,8.8979,8.8248,8.744,8.6863,8.6632,8.6363,8.6594,8.6555,8.6132,8.6247,8.6094,8.5863,8.5863,8.5747,8.5786,8.6094,8.6351,8.6561,8.4726,8.3867,8.3281,8.2387,8.1757,8.1638,8.1362,8.1093,8.1093,8.1093,8.1093,8.1093,8.1093,8.1093,8.1093,8.1093,8.1093,8.1093,8.1093,8.1093,8.1093,8.1093,8.1093,8.1093,8.1093,8.1093,8.1093,8.1093,8.1093,8.1093,8.1093,8.1093,8.1093,8.1093,8.1093,8.1093,8.1093,8.1093,8.117,8.1239,8.1427,8.1615,8.1792,8.1929,8.2019,8.1997,8.1945,8.1895,8.1801,8.1213,8.0624,7.9721,7.9169,7.8784,7.8784,7.9285,9.121,9.121,9.121,9.121,9.121,9.121,9.121,9.121,9.121,9.121,9.121,9.121,9.121,9.121,9.121,9.121,9.121,9.121,9.121,9.121,9.121,9.121,9.121,9.121,9.121,9.121,9.121,9.121,9.121,9.121,9.121,9.121,9.121,9.121,9.121,9.121,9.121,9.121,9.1133,9.0787,8.9983,8.9594,8.9056,8.8286,8.7863,8.744,8.7017,8.7325,8.7171,8.6478,8.6517,8.6632,8.6247,8.6094,8.6094,8.6132,8.6357,8.6645,8.6713,8.582,8.4765,8.375,8.2678,8.197,8.1668,8.1316,8.1131,8.1093,8.1131,8.1093,8.1093,8.1093,8.1093,8.1093,8.1093,8.1093,8.1093,8.1093,8.1093,8.1093,8.1093,8.1093,8.1093,8.1093,8.1093,8.1093,8.1093,8.1093,8.1093,8.1093,8.1093,8.1093,8.1093,8.1093,8.1093,8.1093,8.1093,8.1131,8.117,8.1239,8.1475,8.1714,8.187,8.1984,8.1896,8.1813,8.1889,8.1979,8.192,8.1415,8.0546,8.0115,8.0015,8.0092,8.0439,9.121,9.121,9.121,9.121,9.121,9.121,9.121,9.121,9.121,9.121,9.121,9.121,9.121,9.121,9.121,9.121,9.121,9.121,9.121,9.121,9.121,9.121,9.121,9.121,9.121,9.121,9.121,9.121,9.121,9.121,9.121,9.121,9.121,9.121,9.121,9.121,9.121,9.121,9.1133,9.0979,9.0406,9.0056,8.9633,8.9133,8.8748,8.8402,8.8132,8.8094,8.8094,8.7171,8.694,8.7017,8.6401,8.6094,8.6094,8.617,8.6454,8.6731,8.6752,8.6443,8.5469,8.4765,8.3359,8.2759,8.2466,8.2124,8.1747,8.1554,8.1323,8.1208,8.1208,8.1208,8.117,8.117,8.1093,8.1093,8.1093,8.1093,8.1093,8.1093,8.1093,8.1093,8.1093,8.1093,8.1093,8.1093,8.1093,8.1093,8.1093,8.1093,8.1093,8.1093,8.1093,8.1093,8.1093,8.1093,8.1093,8.1093,8.1131,8.117,8.1368,8.163,8.1794,8.1959,8.1931,8.1918,8.2041,8.2095,8.1952,8.1797,8.1398,8.1154,8.1231,8.1131,8.1093,9.121,9.121,9.121,9.121,9.121,9.121,9.121,9.121,9.121,9.121,9.121,9.121,9.121,9.121,9.121,9.121,9.121,9.121,9.121,9.121,9.121,9.121,9.121,9.121,9.121,9.121,9.121,9.121,9.121,9.121,9.121,9.121,9.121,9.121,9.121,9.121,9.121,9.121,9.1171,9.1095,9.0825,9.0441,9.0171,8.9825,8.9479,8.9094,8.8902,8.894,8.8479,8.7902,8.7594,8.7017,8.6517,8.617,8.6132,8.6209,8.6517,8.6739,8.6771,8.6444,8.6445,8.5937,8.5273,8.4687,8.387,8.3094,8.2631,8.2285,8.2016,8.167,8.14,8.1362,8.1323,8.1246,8.117,8.1131,8.1093,8.1093,8.1093,8.1093,8.1093,8.1093,8.1093,8.1093,8.1093,8.1093,8.1093,8.1093,8.1093,8.1093,8.1093,8.1093,8.1093,8.1093,8.1093,8.1093,8.1093,8.1093,8.1093,8.117,8.1347,8.1504,8.1691,8.1835,8.194,8.203,8.2003,8.194,8.1842,8.1731,8.1644,8.149,8.1323,8.117,8.1093,9.121,9.121,9.121,9.121,9.121,9.121,9.121,9.121,9.121,9.121,9.121,9.121,9.121,9.121,9.121,9.121,9.121,9.121,9.121,9.121,9.121,9.121,9.121,9.121,9.121,9.121,9.121,9.121,9.121,9.121,9.121,9.121,9.121,9.121,9.121,9.121,9.121,9.121,9.121,9.121,9.121,9.0864,9.071,9.0594,9.0479,9.0056,8.9748,9.0248,8.971,8.8632,8.9094,8.8748,8.7132,8.6978,8.6901,8.6209,8.6499,8.6809,8.6822,8.6992,8.707,8.7031,8.6679,8.5625,8.4707,8.3912,8.3503,8.317,8.2824,8.2516,8.2285,8.2208,8.2054,8.1939,8.167,8.1323,8.1285,8.117,8.1131,8.1093,8.1093,8.1093,8.1093,8.1093,8.1093,8.1093,8.1093,8.1093,8.1093,8.1093,8.1093,8.1093,8.1093,8.1093,8.1093,8.1093,8.1093,8.1093,8.1093,8.1131,8.1239,8.1379,8.1546,8.1716,8.191,8.189,8.1809,8.1746,8.1675,8.1801,8.1783,8.1578,8.14,8.1246,8.1093,9.121,9.121,9.121,9.121,9.121,9.121,9.121,9.121,9.121,9.121,9.121,9.121,9.121,9.121,9.121,9.121,9.121,9.121,9.121,9.121,9.121,9.121,9.121,9.121,9.121,9.121,9.121,9.121,9.121,9.121,9.121,9.121,9.121,9.121,9.121,9.121,9.121,9.121,9.121,9.121,9.121,9.121,9.1248,9.1287,9.1248,9.0898,9.0633,9.1325,9.0556,8.944,9.0056,8.9556,8.8171,8.7902,8.7171,8.6594,8.6819,8.6931,8.6938,8.7102,8.7344,8.7461,8.7461,8.6679,8.5782,8.4985,8.4511,8.4132,8.3785,8.3478,8.3324,8.317,8.2978,8.2785,8.2208,8.1631,8.1439,8.1246,8.117,8.1093,8.1093,8.1093,8.1093,8.1093,8.1093,8.1093,8.1093,8.1093,8.1093,8.1093,8.1093,8.1093,8.1093,8.1093,8.1093,8.1093,8.1093,8.1093,8.1093,8.1093,8.1131,8.1301,8.1523,8.1735,8.1922,8.1873,8.181,8.1655,8.1591,8.1697,8.1739,8.1477,8.1362,8.1362,8.1208,9.1056,9.1056,9.1056,9.0864,9.0979,9.0979,9.1056,9.1133,9.1133,9.121,9.121,9.121,9.121,9.121,9.121,9.121,9.121,9.121,9.121,9.121,9.121,9.121,9.121,9.121,9.121,9.121,9.121,9.121,9.121,9.121,9.121,9.121,9.121,9.121,9.121,9.121,9.121,9.121,9.121,9.121,9.121,9.1248,9.1325,9.1437,9.1356,9.1236,9.1399,9.1364,9.1056,9.0479,9.0133,8.994,8.921,8.8556,8.7632,8.7325,8.755,8.7437,8.7312,8.7386,8.7422,8.75,8.7461,8.7109,8.6421,8.5887,8.5421,8.5016,8.467,8.4478,8.4362,8.4016,8.3747,8.3478,8.3016,8.2593,8.2362,8.2016,8.1554,8.1439,8.1208,8.117,8.1093,8.1093,8.1093,8.1093,8.1093,8.1093,8.1093,8.1093,8.1093,8.1093,8.1093,8.1093,8.1093,8.1093,8.1093,8.1093,8.1093,8.1093,8.1093,8.1291,8.1538,8.1718,8.1851,8.1929,8.1856,8.1644,8.1501,8.1561,8.1516,8.1362,8.1285,8.1323,8.1285,9.021,9.0171,8.9556,8.9286,8.9363,8.994,9.0248,9.029,9.0941,9.1171,9.121,9.121,9.121,9.121,9.121,9.121,9.121,9.121,9.121,9.121,9.121,9.121,9.121,9.121,9.121,9.121,9.121,9.121,9.121,9.121,9.121,9.121,9.121,9.121,9.121,9.121,9.121,9.121,9.121,9.121,9.121,9.1364,9.1441,9.1496,9.1431,9.1462,9.1599,9.1672,9.1402,9.1056,9.1325,9.0787,8.971,8.9094,8.8556,8.8209,8.8359,8.8244,8.7977,8.7819,8.7773,8.7578,8.7461,8.7304,8.7005,8.6687,8.628,8.5896,8.5593,8.544,8.5247,8.4863,8.4516,8.4209,8.3824,8.3555,8.3247,8.267,8.2093,8.1785,8.1477,8.1285,8.1208,8.1093,8.1093,8.1093,8.1093,8.1093,8.1093,8.1093,8.1093,8.1093,8.1093,8.1093,8.1093,8.1093,8.1093,8.1093,8.1093,8.1093,8.1093,8.1282,8.1478,8.163,8.1776,8.1814,8.1807,8.1555,8.1466,8.1501,8.14,8.1285,8.1285,8.1323,8.1246,8.9363,8.9286,8.8902,8.8671,8.8786,8.921,8.9594,8.9944,9.0406,9.0864,9.1171,9.121,9.121,9.121,9.121,9.121,9.121,9.121,9.121,9.121,9.121,9.121,9.121,9.121,9.121,9.121,9.121,9.121,9.121,9.121,9.121,9.121,9.121,9.121,9.121,9.121,9.121,9.121,9.121,9.121,9.121,9.1364,9.1585,9.16,9.1669,9.1657,9.1753,9.1864,9.1633,9.1402,9.1402,9.0902,9.0171,8.994,8.9402,8.9017,8.894,8.9167,8.8664,8.8341,8.8181,8.789,8.7422,8.7226,8.7127,8.6783,8.6577,8.6182,8.5973,8.5786,8.5786,8.5478,8.544,8.5209,8.4632,8.4132,8.3708,8.317,8.2901,8.2785,8.2362,8.1823,8.1631,8.1246,8.1208,8.1093,8.1093,8.1093,8.1093,8.1093,8.1093,8.1093,8.1093,8.1093,8.1093,8.1093,8.1093,8.1093,8.1093,8.1093,8.1093,8.1246,8.1436,8.1556,8.1674,8.1813,8.1716,8.1581,8.1475,8.147,8.1362,8.1246,8.1285,8.1285,8.1208,8.844,8.8363,8.8325,8.8325,8.8402,8.8517,8.8902,8.9483,8.9713,9.0252,9.0902,9.0979,9.1095,9.121,9.121,9.121,9.121,9.121,9.121,9.121,9.121,9.121,9.121,9.121,9.121,9.121,9.1248,9.121,9.121,9.121,9.121,9.121,9.121,9.121,9.121,9.121,9.121,9.121,9.121,9.121,9.1287,9.1437,9.1649,9.1834,9.1893,9.1911,9.1997,9.1934,9.178,9.1479,9.1248,9.0864,9.0671,9.0556,9.021,8.9787,8.9825,8.9748,8.9266,8.8748,8.8529,8.8164,8.7561,8.7303,8.721,8.6969,8.6743,8.651,8.6307,8.6094,8.6094,8.6055,8.6055,8.5978,8.5324,8.4824,8.4362,8.3862,8.3747,8.3708,8.317,8.2593,8.2054,8.1593,8.1362,8.1246,8.1093,8.1093,8.1093,8.1093,8.1093,8.1093,8.1093,8.1093,8.1093,8.1093,8.1093,8.1093,8.1093,8.1093,8.1131,8.1208,8.1347,8.1427,8.1542,8.173,8.1769,8.1659,8.1543,8.1462,8.1285,8.117,8.117,8.117,8.1131,8.7209,8.6594,8.6594,8.6632,8.6709,8.7363,8.7748,8.7979,8.8675,8.9371,9.0021,9.0213,9.0482,9.1171,9.121,9.121,9.121,9.121,9.121,9.121,9.121,9.121,9.121,9.1248,9.121,9.1275,9.1341,9.1325,9.1248,9.121,9.121,9.121,9.121,9.121,9.121,9.121,9.121,9.121,9.121,9.121,9.1325,9.1534,9.1821,9.1918,9.203,9.2003,9.1996,9.1947,9.1621,9.1364,9.1171,9.1056,9.1018,9.1018,9.0748,9.0594,9.0671,9.0441,8.9965,8.9601,8.9329,8.87,8.8219,8.7887,8.7665,8.7136,8.6902,8.6662,8.6401,8.617,8.6094,8.6094,8.6094,8.6094,8.567,8.5632,8.5401,8.4939,8.4632,8.4362,8.3939,8.3247,8.2554,8.217,8.1823,8.1631,8.1285,8.1246,8.1131,8.1093,8.1131,8.1093,8.1093,8.1093,8.1093,8.1093,8.1093,8.1093,8.1093,8.1093,8.1093,8.1131,8.1231,8.133,8.1484,8.1666,8.1687,8.1685,8.1589,8.1475,8.1239,8.1131,8.1093,8.1093,8.1093]},{"header":{"parameterUnit":"m.s-1","parameterCategory":1,"la1":31.0,"la2":29.5877,"lo1":-88.7671,"lo2":-86.6584,"dy":0.0162,"dx":0.0185,"nx":115,"ny":88,"refTime":"2023-03-19T12:00:00:Z","depth":0,"parameterNumber":3,"parameterNumberName":"V-component_of_WINDS"},"data":[0.0,0.0,0.0,0.0,0.0,0.0,0.0,0.0,0.0,0.0,0.0,0.0,0.0,0.0,0.0,0.0,0.0,0.0,0.0,0.0,0.0,0.0,0.0,0.0,0.0,0.0,0.0,0.0,0.0,0.0,0.0,0.0,0.0,0.0,0.0,0.0,0.0,0.0,0.0,0.0,0.0,0.0,0.0,0.0,0.0,0.0,0.0,0.0,0.0,0.0,0.0,0.0,0.0,0.0,0.0,0.0,0.0,0.0,0.0,0.0,0.0,0.0,0.0,0.0,0.0,0.0,0.0,0.0,0.0,0.0,0.0,0.0,0.0,0.0,0.0,0.0,0.0,0.0,0.0,0.0,0.0,0.0,0.0,0.0,0.0,0.0,0.0,0.0,0.0,0.0,0.0,0.0,0.0,0.0,0.0,0.0,0.0,0.0,0.0,0.0,0.0,0.0,0.0,0.0,0.0,0.0,0.0,0.0,0.0,0.0,0.0,0.0,0.0,0.0,0.0,0.0,0.0,0.0,0.0,0.0,0.0,0.0,0.0,0.0,0.0,0.0,0.0,0.0,0.0,0.0,0.0,0.0,0.0,0.0,0.0,0.0,0.0,0.0,0.0,0.0,0.0,0.0,0.0,0.0,0.0,0.0,0.0,0.0,0.0,0.0,0.0,0.0,0.0,0.0,0.0,0.0,0.0,0.0,0.0,0.0,0.0,0.0,0.0,0.0,0.0,0.0,0.0,0.0,0.0,0.0,0.0,0.0,0.0,0.0,0.0,0.0,0.0,0.0,0.0,0.0,0.0,0.0,0.0,0.0,0.0,0.0,0.0,0.0,0.0,0.0,0.0,0.0,0.0,0.0,0.0,0.0,0.0,0.0,0.0,0.0,0.0,0.0,0.0,0.0,0.0,0.0,0.0,0.0,0.0,0.0,0.0,0.0,0.0,0.0,0.0,0.0,0.0,0.0,0.0,0.0,0.0,0.0,0.0,0.0,0.0,0.0,0.0,0.0,0.0,0.0,0.0,0.0,0.0,0.0,0.0,0.0,0.0,0.0,0.0,0.0,0.0,0.0,0.0,0.0,0.0,0.0,0.0,0.0,0.0,0.0,0.0,0.0,0.0,0.0,0.0,0.0,0.0,0.0,0.0,0.0,0.0,0.0,0.0,0.0,0.0,0.0,0.0,0.0,0.0,0.0,0.0,0.0,0.0,0.0,0.0,0.0,0.0,0.0,0.0,0.0,0.0,0.0,0.0,0.0,0.0,0.0,0.0,0.0,0.0,0.0,0.0,0.0,0.0,0.0,0.0,0.0,0.0,0.0,0.0,0.0,0.0,0.0,0.0,0.0,0.0,0.0,0.0,0.0,0.0,0.0,0.0,0.0,0.0,0.0,0.0,0.0,0.0,0.0,0.0,0.0,0.0,0.0,0.0,0.0,0.0,0.0,0.0,0.0,0.0,0.0,0.0,0.0,0.0,0.0,0.0,0.0,0.0,0.0,0.0,0.0,0.0,0.0,0.0,0.0,0.0,0.0,0.0,0.0,0.0,0.0,0.0,0.0,0.0,0.0,0.0,0.0,0.0,0.0,0.0,0.0,0.0,0.0,0.0,0.0,0.0,0.0,0.0,0.0,0.0,0.0,0.0,0.0,0.0,0.0,0.0,0.0,0.0,0.0,0.0,0.0,0.0,0.0,0.0,0.0,0.0,0.0,0.0,0.0,0.0,0.0,0.0,0.0,0.0,0.0,0.0,0.0,0.0,0.0,0.0,0.0,0.0,0.0,0.0,0.0,0.0,0.0,0.0,0.0,0.0,0.0,0.0,0.0,0.0,0.0,0.0,0.0,0.0,0.0,0.0,0.0,0.0,0.0,0.0,0.0,0.0,0.0,0.0,0.0,0.0,0.0,0.0,0.0,0.0,0.0,0.0,0.0,0.0,0.0,0.0,0.0,0.0,0.0,0.0,0.0,0.0,0.0,0.0,0.0,0.0,0.0,0.0,0.0,0.0,0.0,0.0,0.0,0.0,0.0,0.0,0.0,0.0,0.0,0.0,0.0,0.0,0.0,0.0,0.0,0.0,0.0,0.0,0.0,0.0,0.0,0.0,0.0,0.0,0.0,0.0,0.0,0.0,0.0,0.0,0.0,0.0,0.0,0.0,0.0,0.0,0.0,0.0,0.0,0.0,0.0,0.0,0.0,0.0,0.0,0.0,0.0,0.0,0.0,0.0,0.0,0.0,0.0,0.0,0.0,0.0,0.0,0.0,0.0,0.0,0.0,0.0,0.0,0.0,0.0,0.0,0.0,0.0,0.0,0.0,0.0,0.0,0.0,0.0,0.0,0.0,0.0,0.0,0.0,0.0,0.0,0.0,0.0,0.0,0.0,0.0,0.0,0.0,0.0,0.0,0.0,0.0,0.0,0.0,0.0,0.0,0.0,0.0,0.0,0.0,0.0,0.0,0.0,0.0,0.0,0.0,0.0,0.0,0.0,0.0,0.0,0.0,0.0,0.0,0.0,0.0,0.0,0.0,0.0,0.0,0.0,0.0,0.0,0.0,0.0,0.0,0.0,0.0,0.0,0.0,0.0,0.0,0.0,0.0,0.0,0.0,0.0,0.0,0.0,0.0,0.0,0.0,0.0,0.0,0.0,0.0,0.0,0.0,0.0,0.0,0.0,0.0,0.0,0.0,0.0,0.0,0.0,0.0,0.0,0.0,0.0,0.0,0.0,0.0,0.0,0.0,0.0,0.0,0.0,0.0,0.0,0.0,0.0,0.0,0.0,0.0,0.0,0.0,0.0,0.0,0.0,0.0,0.0,0.0,0.0,0.0,0.0,0.0,0.0,0.0,0.0,0.0,0.0,0.0,0.0,0.0,0.0,0.0,0.0,0.0,0.0,0.0,0.0,0.0,0.0,0.0,0.0,0.0,0.0,0.0,0.0,0.0,0.0,0.0,0.0,0.0,0.0,0.0,0.0,0.0,0.0,0.0,0.0,0.0,0.0,0.0,0.0,0.0,0.0,0.0,0.0,0.0,0.0,0.0,0.0,0.0,0.0,0.0,0.0,0.0,0.0,0.0,0.0,0.0,0.0,0.0,0.0,0.0,0.0,0.0,0.0,0.0,0.0,0.0,0.0,0.0,0.0,0.0,0.0,0.0,0.0,0.0,0.0,0.0,0.0,0.0,0.0,0.0,0.0,0.0,0.0,0.0,0.0,0.0,0.0,0.0,0.0,0.0,0.0,0.0,0.0,0.0,0.0,0.0,0.0,0.0,0.0,0.0,0.0,0.0,0.0,0.0,0.0,0.0,0.0,0.0,0.0,0.0,0.0,0.0,0.0,0.0,0.0,0.0,0.0,0.0,0.0,0.0,0.0,0.0,0.0,0.0,0.0,0.0,0.0,0.0,0.0,0.0,0.0,0.0,0.0,0.0,0.0,0.0,0.0,0.0,0.0,0.0,0.0,0.0,0.0,0.0,0.0,0.0,0.0,0.0,0.0,0.0,0.0,0.0,0.0,0.0,0.0,0.0,0.0,0.0,0.0,0.0,0.0,0.0,0.0,0.0,0.0,0.0,0.0,0.0,0.0,0.0,0.0,0.0,0.0,0.0,0.0,0.0,0.0,0.0,0.0,0.0,0.0,0.0,0.0,0.0,0.0,0.0,0.0,0.0,0.0,0.0,0.0,0.0,0.0,0.0,0.0,0.0,0.0,0.0,0.0,0.0,0.0,0.0,0.0,0.0,0.0,0.0,0.0,0.0,0.0,0.0,0.0,0.0,0.0,0.0,0.0,0.0,0.0,0.0,0.0,0.0,0.0,0.0,0.0,0.0,0.0,0.0,0.0,0.0,0.0,0.0,0.0,0.0,0.0,0.0,0.0,0.0,0.0,0.0,0.0,0.0,0.0,0.0,0.0,0.0,0.0,0.0,0.0,0.0,0.0,0.0,0.0,0.0,0.0,0.0,0.0,0.0,0.0,0.0,0.0,0.0,0.0,0.0,0.0,0.0,0.0,0.0,0.0,0.0,0.0,0.0,0.0,0.0,0.0,0.0,0.0,0.0,0.0,0.0,0.0,0.0,0.0,0.0,0.0,0.0,0.0,0.0,0.0,0.0,0.0,0.0,0.0,0.0,0.0,0.0,0.0,0.0,0.0,0.0,0.0,0.0,0.0,0.0,0.0,0.0,0.0,0.0,0.0,0.0,0.0,0.0,0.0,0.0,0.0,0.0,0.0,0.0,0.0,0.0,0.0,0.0,0.0,0.0,0.0,0.0,0.0,-0.5074,0.0,0.0,0.0,0.0,0.0,0.0,0.0,0.0,0.0,0.0,0.0,0.0,0.0,0.0,0.0,0.0,0.0,0.0,0.0,0.0,0.0,0.0,0.0,0.0,0.0,0.0,0.0,0.0,0.0,0.0,0.0,0.0,0.0,0.0,0.0,0.0,0.0,0.0,0.0,0.0,0.0,0.0,0.0,0.0,0.0,0.0,0.0,0.0,0.0,0.0,0.0,0.0,0.0,0.0,0.0,0.0,0.0,0.0,0.0,0.0,0.0,0.0,0.0,0.0,0.0,0.0,0.0,0.0,0.0,0.0,0.0,0.0,0.0,0.0,0.0,0.0,0.0,0.0,0.0,0.0,0.0,0.0,0.0,0.0,0.0,0.0,0.0,0.0,0.0,0.0,0.0,0.0,0.0,0.0,0.0,0.0,0.0,0.0,0.0,0.0,0.0,0.0,0.0,0.0,0.0,0.0,0.0,0.0,0.0,0.0,-0.6563,-0.6488,-0.6106,-0.5683,-0.5481,0.0,0.0,0.0,0.0,0.0,0.0,0.0,0.0,0.0,0.0,0.0,0.0,0.0,0.0,0.0,0.0,0.0,0.0,0.0,0.0,0.0,0.0,0.0,0.0,0.0,0.0,0.0,0.0,0.0,0.0,0.0,0.0,0.0,0.0,0.0,0.0,0.0,0.0,0.0,0.0,0.0,0.0,0.0,0.0,0.0,0.0,0.0,0.0,0.0,0.0,0.0,0.0,0.0,0.0,0.0,0.0,0.0,0.0,0.0,0.0,0.0,0.0,0.0,0.0,0.0,0.0,0.0,0.0,0.0,0.0,0.0,0.0,0.0,0.0,0.0,0.0,0.0,0.0,0.0,0.0,0.0,0.0,0.0,0.0,0.0,0.0,0.0,0.0,0.0,0.0,0.0,0.0,0.0,0.0,0.0,0.0,0.0,0.0,0.0,0.0,0.0,0.0,0.0,0.0,0.0,0.0,0.0,0.0,0.0,0.0,0.0,0.0,-0.5954,-0.5557,-0.5624,0.0,0.0,0.0,0.0,0.0,0.0,0.0,0.0,0.0,0.0,0.0,0.0,0.0,0.0,0.0,0.0,0.0,0.0,0.0,0.0,0.0,0.0,0.0,0.0,0.0,0.0,0.0,0.0,0.0,0.0,0.0,0.0,0.0,0.0,0.0,0.0,0.0,0.0,0.0,0.0,0.0,0.0,0.0,0.0,0.0,0.0,0.0,0.0,0.0,0.0,0.0,0.0,0.0,0.0,0.0,0.0,0.0,0.0,0.0,0.0,0.0,0.0,0.0,0.0,0.0,0.0,0.0,0.0,0.0,0.0,0.0,0.0,0.0,0.0,0.0,0.0,0.0,0.0,0.0,0.0,0.0,0.0,0.0,0.0,0.0,0.0,0.0,0.0,0.0,0.0,0.0,0.0,0.0,0.0,0.0,0.0,0.0,0.0,0.0,0.0,0.0,0.0,0.0,0.0,0.0,0.0,0.0,0.0,0.0,0.0,-0.6736,-0.6416,-0.6152,0.0,-0.496,0.0,0.0,0.0,0.0,0.0,0.0,0.0,0.0,0.0,0.0,0.0,0.0,0.0,0.0,0.0,0.0,0.0,0.0,0.0,0.0,0.0,0.0,0.0,0.0,0.0,0.0,0.0,0.0,0.0,0.0,0.0,0.0,0.0,0.0,0.0,0.0,0.0,0.0,0.0,0.0,0.0,0.0,0.0,0.0,0.0,0.0,0.0,0.0,0.0,0.0,0.0,0.0,0.0,0.0,0.0,0.0,0.0,0.0,0.0,0.0,0.0,0.0,0.0,0.0,0.0,0.0,0.0,0.0,0.0,0.0,0.0,0.0,0.0,0.0,0.0,0.0,0.0,0.0,0.0,0.0,0.0,0.0,0.0,0.0,0.0,0.0,0.0,0.0,0.0,0.0,0.0,0.0,0.0,0.0,0.0,0.0,0.0,0.0,0.0,0.0,0.0,0.0,0.0,0.0,0.0,0.0,0.0,0.0,0.0,0.0,-0.6794,-0.6525,-0.5809,-0.5238,0.0,0.0,0.0,0.0,0.0,0.0,0.0,0.0,0.0,0.0,0.0,0.0,0.0,0.0,0.0,0.0,0.0,0.0,0.0,0.0,0.0,0.0,0.0,0.0,0.0,0.0,0.0,0.0,0.0,0.0,0.0,0.0,0.0,0.0,0.0,0.0,0.0,0.0,0.0,0.0,0.0,0.0,0.0,0.0,0.0,0.0,0.0,0.0,0.0,0.0,0.0,0.0,0.0,0.0,0.0,0.0,0.0,0.0,0.0,0.0,0.0,0.0,0.0,0.0,0.0,0.0,0.0,0.0,0.0,0.0,0.0,0.0,0.0,0.0,0.0,0.0,0.0,0.0,0.0,0.0,0.0,0.0,0.0,0.0,0.0,0.0,0.0,0.0,0.0,0.0,0.0,0.0,0.0,0.0,0.0,0.0,0.0,0.0,0.0,0.0,0.0,0.0,0.0,0.0,0.0,0.0,0.0,0.0,0.0,0.0,-0.6941,-0.6579,-0.623,-0.5447,-0.4974,-0.4748,0.0,0.0,0.0,0.0,0.0,0.0,0.0,0.0,0.0,0.0,0.0,0.0,0.0,0.0,0.0,0.0,0.0,0.0,0.0,0.0,0.0,0.0,0.0,0.0,0.0,0.0,0.0,0.0,0.0,0.0,0.0,0.0,0.0,0.0,0.0,0.0,0.0,0.0,0.0,0.0,0.0,0.0,0.0,0.0,0.0,0.0,0.0,0.0,0.0,0.0,0.0,0.0,0.0,0.0,0.0,0.0,0.0,0.0,0.0,0.0,0.0,0.0,0.0,0.0,0.0,0.0,0.0,0.0,0.0,0.0,0.0,0.0,0.0,0.0,0.0,0.0,0.0,0.0,0.0,0.0,0.0,0.0,0.0,0.0,0.0,0.0,0.0,0.0,0.0,0.0,0.0,0.0,0.0,0.0,0.0,0.0,0.0,0.0,0.0,0.0,0.0,0.0,0.0,0.0,0.0,0.0,0.0,0.0,-0.6928,-0.65,-0.5936,-0.5297,-0.5237,-0.4954,0.0,0.0,0.0,0.0,0.0,0.0,0.0,0.0,0.0,0.0,0.0,0.0,0.0,0.0,0.0,0.0,0.0,0.0,0.0,0.0,0.0,0.0,0.0,0.0,0.0,0.0,0.0,0.0,0.0,0.0,0.0,0.0,0.0,0.0,0.0,0.0,0.0,0.0,0.0,0.0,0.0,0.0,0.0,0.0,0.0,0.0,0.0,0.0,0.0,0.0,0.0,0.0,0.0,0.0,0.0,0.0,0.0,0.0,0.0,0.0,0.0,0.0,0.0,0.0,0.0,0.0,0.0,0.0,0.0,0.0,0.0,0.0,0.0,0.0,0.0,0.0,0.0,0.0,0.0,0.0,0.0,0.0,0.0,0.0,0.0,0.0,0.0,0.0,0.0,0.0,0.0,0.0,0.0,0.0,0.0,0.0,0.0,0.0,0.0,0.0,0.0,0.0,0.0,0.0,0.0,0.0,0.0,0.0,0.0,-0.7269,-0.6477,-0.5888,-0.5728,-0.5231,-0.4903,0.0,0.0,0.0,0.0,0.0,0.0,0.0,0.0,0.0,0.0,0.0,0.0,0.0,0.0,0.0,0.0,0.0,0.0,0.0,0.0,0.0,0.0,0.0,0.0,0.0,0.0,0.0,0.0,0.0,0.0,0.0,0.0,0.0,0.0,0.0,0.0,0.0,0.0,0.0,0.0,0.0,0.0,0.0,0.0,0.0,0.0,0.0,0.0,0.0,0.0,0.0,0.0,0.0,0.0,0.0,0.0,0.0,0.0,0.0,0.0,0.0,0.0,0.0,0.0,0.0,0.0,0.0,0.0,0.0,0.0,0.0,0.0,0.0,0.0,0.0,0.0,0.0,0.0,0.0,0.0,0.0,0.0,0.0,0.0,0.0,0.0,0.0,0.0,0.0,0.0,0.0,0.0,0.0,0.0,0.0,0.0,0.0,0.0,0.0,0.0,0.0,0.0,0.0,0.0,0.0,0.0,0.0,0.0,0.0,-0.6911,0.0,-0.5662,-0.5651,-0.5149,-0.487,0.0,0.0,0.0,0.0,0.0,0.0,0.0,0.0,0.0,0.0,0.0,0.0,0.0,0.0,0.0,0.0,0.0,0.0,0.0,0.0,0.0,0.0,0.0,0.0,0.0,0.0,0.0,0.0,0.0,0.0,0.0,0.0,0.0,0.0,0.0,0.0,0.0,0.0,0.0,0.0,0.0,0.0,0.0,0.0,0.0,0.0,0.0,0.0,0.0,0.0,0.0,0.0,0.0,0.0,0.0,0.0,0.0,0.0,0.0,0.0,0.0,0.0,0.0,0.0,0.0,0.0,0.0,0.0,0.0,0.0,0.0,0.0,0.0,0.0,0.0,0.0,0.0,0.0,0.0,0.0,0.0,0.0,0.0,0.0,0.0,0.0,0.0,0.0,0.0,0.0,0.0,0.0,0.0,0.0,0.0,0.0,0.0,0.0,0.0,0.0,0.0,0.0,0.0,0.0,0.0,0.0,0.0,0.0,-0.7724,-0.5739,-0.524,-0.5029,-0.5012,-0.498,-0.4927,0.0,0.0,0.0,0.0,0.0,0.0,0.0,0.0,0.0,0.0,0.0,0.0,0.0,0.0,0.0,0.0,0.0,0.0,0.0,0.0,0.0,0.0,0.0,0.0,0.0,0.0,0.0,0.0,0.0,0.0,0.0,0.0,0.0,0.0,0.0,0.0,0.0,0.0,0.0,0.0,0.0,0.0,0.0,0.0,0.0,0.0,0.0,0.0,0.0,0.0,0.0,0.0,0.0,0.0,0.0,0.0,0.0,0.0,0.0,0.0,0.0,0.0,0.0,0.0,0.0,0.0,0.0,0.0,0.0,0.0,0.0,0.0,0.0,0.0,0.0,0.0,0.0,0.0,0.0,0.0,0.0,0.0,0.0,0.0,0.0,0.0,0.0,0.0,0.0,0.0,0.0,0.0,0.0,0.0,0.0,0.0,0.0,0.0,0.0,0.0,0.0,0.0,0.0,0.0,0.0,0.0,0.0,0.0,0.0,-0.5574,-0.5451,-0.5381,-0.5137,-0.5023,-0.4941,0.0,0.0,0.0,0.0,0.0,0.0,0.0,0.0,0.0,0.0,0.0,0.0,0.0,0.0,0.0,0.0,0.0,0.0,0.0,0.0,0.0,0.0,0.0,0.0,0.0,0.0,0.0,0.0,0.0,0.0,0.0,0.0,0.0,0.0,0.0,0.0,0.0,0.0,0.0,0.0,0.0,0.0,0.0,0.0,0.0,0.0,0.0,0.0,0.0,0.0,0.0,0.0,0.0,0.0,0.0,0.0,0.0,0.0,0.0,0.0,0.0,0.0,0.0,0.0,0.0,0.0,0.0,0.0,0.0,0.0,0.0,0.0,0.0,0.0,0.0,0.0,0.0,0.0,0.0,0.0,0.0,0.0,0.0,0.0,0.0,0.0,0.0,0.0,0.0,0.0,0.0,0.0,0.0,0.0,0.0,0.0,0.0,0.0,0.0,0.0,0.0,0.0,0.0,0.0,0.0,0.0,0.0,0.0,0.0,-0.6509,-0.6037,-0.5724,-0.5388,-0.5273,-0.5105,-0.4866,0.0,0.0,0.0,0.0,0.0,0.0,0.0,0.0,0.0,0.0,0.0,0.0,0.0,0.0,0.0,0.0,0.0,0.0,0.0,0.0,0.0,0.0,0.0,0.0,0.0,0.0,0.0,0.0,0.0,0.0,0.0,0.0,0.0,0.0,0.0,0.0,0.0,0.0,0.0,0.0,0.0,0.0,0.0,0.0,0.0,0.0,0.0,0.0,0.0,0.0,0.0,0.0,0.0,0.0,0.0,0.0,0.0,0.0,0.0,0.0,0.0,0.0,0.0,0.0,0.0,0.0,0.0,0.0,0.0,0.0,0.0,0.0,0.0,0.0,0.0,0.0,0.0,0.0,0.0,0.0,0.0,0.0,0.0,0.0,0.0,0.0,0.0,0.0,0.0,0.0,0.0,0.0,0.0,0.0,0.0,0.0,0.0,0.0,0.0,0.0,0.0,0.0,0.0,0.0,0.0,0.0,0.0,0.0,-0.8222,-0.6907,-0.6166,-0.5852,-0.5736,-0.5464,0.0,0.0,0.0,0.0,0.0,0.0,0.0,0.0,0.0,0.0,0.0,0.0,0.0,0.0,0.0,0.0,0.0,0.0,0.0,0.0,0.0,0.0,0.0,0.0,0.0,0.0,0.0,0.0,0.0,0.0,0.0,0.0,0.0,0.0,0.0,0.0,0.0,0.0,0.0,0.0,0.0,0.0,0.0,0.0,0.0,0.0,0.0,0.0,0.0,0.0,0.0,0.0,0.0,0.0,0.0,0.0,0.0,0.0,0.0,0.0,0.0,0.0,0.0,0.0,0.0,0.0,0.0,0.0,0.0,0.0,0.0,0.0,0.0,0.0,0.0,0.0,0.0,0.0,0.0,0.0,0.0,0.0,0.0,0.0,0.0,0.0,0.0,0.0,0.0,0.0,0.0,0.0,0.0,0.0,0.0,0.0,0.0,0.0,0.0,0.0,0.0,0.0,0.0,0.0,0.0,0.0,0.0,0.0,0.0,-0.9335,-0.852,-0.7748,-0.6955,-0.6338,-0.5652,0.0,0.0,0.0,0.0,0.0,0.0,0.0,0.0,0.0,0.0,0.0,0.0,0.0,0.0,0.0,0.0,0.0,0.0,0.0,0.0,0.0,0.0,0.0,0.0,0.0,0.0,0.0,0.0,0.0,0.0,0.0,0.0,0.0,0.0,0.0,0.0,0.0,0.0,0.0,0.0,0.0,0.0,0.0,0.0,0.0,0.0,0.0,0.0,0.0,0.0,0.0,0.0,0.0,0.0,0.0,0.0,0.0,0.0,0.0,0.0,0.0,0.0,0.0,0.0,0.0,0.0,0.0,0.0,0.0,0.0,0.0,0.0,0.0,0.0,0.0,0.0,0.0,0.0,0.0,0.0,0.0,0.0,0.0,0.0,0.0,0.0,0.0,0.0,0.0,0.0,0.0,0.0,0.0,0.0,0.0,0.0,0.0,0.0,0.0,0.0,0.0,0.0,0.0,0.0,0.0,0.0,0.0,0.0,-0.9808,-1.0185,-0.975,-0.9162,-0.8459,-0.7364,-0.6085,0.0,0.0,0.0,0.0,0.0,0.0,0.0,0.0,0.0,0.0,0.0,0.0,0.0,0.0,0.0,0.0,0.0,0.0,0.0,0.0,0.0,0.0,0.0,0.0,0.0,0.0,0.0,0.0,0.0,0.0,0.0,0.0,0.0,0.0,0.0,0.0,0.0,0.0,0.0,0.0,0.0,0.0,0.0,0.0,0.0,0.0,0.0,0.0,0.0,0.0,0.0,0.0,0.0,0.0,0.0,0.0,0.0,0.0,0.0,0.0,0.0,0.0,0.0,0.0,0.0,0.0,0.0,0.0,0.0,0.0,0.0,0.0,0.0,0.0,0.0,0.0,0.0,0.0,0.0,0.0,0.0,0.0,0.0,0.0,0.0,0.0,0.0,0.0,0.0,0.0,0.0,0.0,0.0,0.0,0.0,0.0,0.0,0.0,0.0,0.0,0.0,0.0,0.0,0.0,0.0,0.0,0.0,0.0,-0.9836,-1.0703,-1.0468,-1.0256,-1.01,-0.8326,-0.6572,0.0,0.0,0.0,0.0,0.0,0.0,0.0,0.0,0.0,0.0,0.0,0.0,0.0,0.0,0.0,0.0,0.0,0.0,0.0,0.0,0.0,0.0,0.0,0.0,0.0,0.0,0.0,0.0,0.0,0.0,0.0,0.0,0.0,0.0,0.0,0.0,0.0,0.0,0.0,0.0,0.0,0.0,0.0,0.0,0.0,0.0,0.0,0.0,0.0,0.0,0.0,0.0,0.0,0.0,0.0,0.0,0.0,0.0,0.0,0.0,0.0,0.0,0.0,0.0,0.0,0.0,0.0,0.0,0.0,0.0,0.0,0.0,0.0,0.0,0.0,0.0,0.0,0.0,0.0,0.0,0.0,0.0,0.0,0.0,0.0,0.0,0.0,0.0,0.0,0.0,0.0,0.0,0.0,0.0,0.0,0.0,0.0,0.0,0.0,0.0,0.0,0.0,0.0,0.0,0.0,0.0,0.0,0.0,-1.0122,-1.1012,-1.0728,-1.0609,-1.0575,-0.8714,-0.727,0.0,0.0,0.0,0.0,0.0,0.0,0.0,0.0,0.0,0.0,0.0,0.0,0.0,0.0,0.0,0.0,0.0,0.0,0.0,0.0,0.0,0.0,0.0,0.0,0.0,0.0,0.0,0.0,0.0,0.0,0.0,0.0,0.0,0.0,0.0,0.0,0.0,0.0,0.0,0.0,0.0,0.0,0.0,0.0,0.0,0.0,0.0,0.0,-0.6828,0.0,0.0,0.0,0.0,0.0,0.0,0.0,0.0,0.0,0.0,0.0,0.0,0.0,0.0,0.0,0.0,0.0,0.0,0.0,0.0,0.0,0.0,0.0,0.0,0.0,0.0,0.0,0.0,0.0,0.0,0.0,0.0,0.0,0.0,0.0,0.0,0.0,0.0,0.0,0.0,0.0,0.0,0.0,0.0,0.0,0.0,0.0,0.0,0.0,0.0,0.0,0.0,0.0,0.0,0.0,0.0,0.0,0.0,0.0,-1.0244,-1.1158,-1.1059,-1.0894,-1.0806,-0.94,-0.8067,0.0,0.0,0.0,0.0,0.0,0.0,0.0,0.0,0.0,0.0,0.0,0.0,0.0,0.0,0.0,0.0,0.0,0.0,0.0,0.0,0.0,0.0,0.0,0.0,0.0,0.0,0.0,0.0,0.0,0.0,0.0,0.0,0.0,0.0,0.0,0.0,0.0,0.0,0.0,0.0,0.0,0.0,0.0,0.0,0.0,0.0,0.0,0.0,0.0,0.0,0.0,0.0,0.0,0.0,0.0,0.0,0.0,0.0,0.0,0.0,0.0,0.0,0.0,0.0,0.0,0.0,0.0,0.0,0.0,0.0,0.0,0.0,0.0,0.0,0.0,0.0,0.0,0.0,0.0,0.0,0.0,0.0,0.0,0.0,0.0,0.0,0.0,0.0,0.0,0.0,0.0,0.0,0.0,0.0,0.0,0.0,0.0,0.0,0.0,0.0,0.0,0.0,0.0,0.0,0.0,0.0,0.0,-1.0937,-1.0364,-1.1171,-1.1247,-1.1131,-1.0982,-1.0,-0.8818,-0.7362,0.0,0.0,0.0,0.0,0.0,0.0,0.0,0.0,0.0,0.0,0.0,0.0,0.0,0.0,0.0,0.0,0.0,0.0,0.0,0.0,0.0,0.0,0.0,0.0,0.0,0.0,0.0,0.0,0.0,0.0,0.0,0.0,0.0,0.0,0.0,0.0,0.0,0.0,-0.6795,-0.6845,0.0,0.0,0.0,0.0,0.0,0.0,0.0,0.0,-0.6912,0.0,0.0,0.0,0.0,0.0,0.0,0.0,0.0,0.0,0.0,0.0,0.0,0.0,0.0,0.0,0.0,0.0,0.0,0.0,0.0,0.0,0.0,0.0,0.0,0.0,0.0,0.0,0.0,0.0,0.0,0.0,0.0,0.0,0.0,0.0,0.0,0.0,0.0,0.0,0.0,0.0,0.0,0.0,0.0,0.0,0.0,0.0,0.0,0.0,0.0,0.0,0.0,0.0,0.0,0.0,0.0,-1.271,-1.1306,-1.0769,-1.1212,-1.1269,-1.128,-1.1124,-1.0176,-0.8983,-0.7487,0.0,0.0,0.0,0.0,0.0,0.0,0.0,0.0,0.0,0.0,0.0,0.0,0.0,0.0,0.0,0.0,0.0,0.0,0.0,0.0,0.0,0.0,0.0,0.0,0.0,0.0,0.0,0.0,0.0,0.0,0.0,0.0,0.0,0.0,0.0,0.0,0.0,0.0,0.0,-0.708,-0.721,0.0,0.0,0.0,0.0,0.0,0.0,0.0,0.0,-0.7238,0.0,0.0,0.0,0.0,0.0,0.0,0.0,0.0,0.0,0.0,0.0,0.0,0.0,0.0,0.0,0.0,0.0,0.0,0.0,0.0,0.0,0.0,0.0,0.0,0.0,0.0,0.0,0.0,0.0,0.0,0.0,0.0,0.0,0.0,0.0,0.0,0.0,0.0,0.0,0.0,0.0,0.0,0.0,0.0,0.0,0.0,0.0,0.0,0.0,0.0,0.0,0.0,0.0,0.0,0.0,-1.2529,-1.1516,-1.1232,-1.1632,-1.1525,-1.1355,-1.1267,-1.0228,-0.8934,0.0,0.0,0.0,0.0,0.0,0.0,0.0,0.0,0.0,0.0,0.0,0.0,0.0,0.0,0.0,0.0,0.0,0.0,0.0,0.0,0.0,0.0,0.0,0.0,0.0,0.0,0.0,0.0,0.0,0.0,0.0,0.0,0.0,0.0,0.0,0.0,0.0,0.0,0.0,0.0,-0.7047,-0.7442,-0.7419,0.0,0.0,0.0,0.0,0.0,0.0,-0.7712,-0.7611,0.0,0.0,0.0,0.0,0.0,0.0,0.0,0.0,0.0,0.0,0.0,0.0,0.0,0.0,0.0,0.0,0.0,0.0,0.0,0.0,0.0,0.0,0.0,0.0,0.0,0.0,0.0,0.0,0.0,0.0,0.0,0.0,0.0,0.0,0.0,0.0,0.0,0.0,0.0,0.0,0.0,0.0,0.0,0.0,0.0,0.0,0.0,0.0,0.0,0.0,0.0,0.0,0.0,0.0,0.0,-1.1877,-1.1468,-1.1388,-1.1898,-1.165,-1.1409,-1.1335,-0.999,-0.8735,0.0,0.0,0.0,0.0,0.0,0.0,0.0,0.0,0.0,0.0,0.0,0.0,0.0,0.0,0.0,0.0,0.0,0.0,0.0,0.0,0.0,0.0,0.0,0.0,0.0,0.0,0.0,0.0,0.0,0.0,0.0,0.0,0.0,0.0,0.0,0.0,0.0,0.0,0.0,0.0,0.0,-0.7659,-0.7936,-0.7885,0.0,0.0,0.0,0.0,-0.8066,-0.8046,0.0,0.0,0.0,0.0,0.0,0.0,0.0,0.0,0.0,0.0,0.0,0.0,0.0,0.0,0.0,0.0,0.0,0.0,0.0,0.0,0.0,0.0,0.0,0.0,0.0,0.0,0.0,0.0,0.0,0.0,0.0,0.0,0.0,0.0,0.0,0.0,0.0,0.0,0.0,0.0,0.0,0.0,0.0,0.0,0.0,0.0,0.0,0.0,0.0,0.0,0.0,0.0,0.0,0.0,0.0,0.0,-1.0288,-1.0789,-1.1283,-1.1622,-1.166,-1.1463,-1.1192,-0.9808,-0.8453,0.0,0.0,0.0,0.0,0.0,0.0,0.0,0.0,0.0,0.0,0.0,0.0,0.0,0.0,0.0,0.0,0.0,0.0,0.0,0.0,0.0,0.0,0.0,0.0,0.0,0.0,0.0,0.0,0.0,0.0,0.0,0.0,0.0,0.0,0.0,0.0,0.0,0.0,0.0,0.0,0.0,-0.8091,-0.8375,-0.8394,-0.8394,0.0,0.0,-0.8065,-0.8188,-0.8414,0.0,0.0,0.0,0.0,0.0,0.0,0.0,0.0,0.0,0.0,0.0,0.0,0.0,0.0,0.0,0.0,0.0,0.0,0.0,0.0,0.0,0.0,0.0,0.0,0.0,0.0,0.0,0.0,0.0,0.0,0.0,0.0,0.0,0.0,0.0,0.0,0.0,0.0,0.0,0.0,0.0,0.0,0.0,0.0,0.0,0.0,0.0,0.0,0.0,0.0,0.0,0.0,0.0,0.0,0.0,-1.3096,-1.1144,-1.1344,-1.1603,-1.1789,-1.1729,-1.1511,-1.1294,-0.9649,-0.8301,0.0,0.0,0.0,0.0,0.0,0.0,0.0,0.0,0.0,0.0,0.0,0.0,0.0,0.0,0.0,0.0,0.0,0.0,0.0,0.0,0.0,0.0,0.0,0.0,0.0,0.0,0.0,0.0,0.0,0.0,0.0,0.0,0.0,0.0,0.0,0.0,0.0,0.0,0.0,0.0,0.0,0.0,-0.8552,-0.8615,0.0,0.0,0.0,-0.837,-0.8736,0.0,0.0,0.0,0.0,0.0,0.0,0.0,0.0,0.0,0.0,0.0,0.0,0.0,0.0,0.0,0.0,0.0,0.0,0.0,0.0,0.0,0.0,0.0,0.0,0.0,0.0,0.0,0.0,0.0,0.0,0.0,0.0,0.0,0.0,0.0,0.0,0.0,0.0,0.0,0.0,0.0,0.0,0.0,0.0,0.0,0.0,0.0,0.0,0.0,0.0,0.0,0.0,0.0,0.0,0.0,0.0,0.0,-1.2043,-1.1774,-1.1617,-1.1743,-1.1619,-1.1525,-1.1335,-0.9722,0.0,0.0,0.0,0.0,0.0,0.0,0.0,0.0,0.0,0.0,0.0,0.0,0.0,0.0,0.0,0.0,0.0,0.0,0.0,0.0,0.0,0.0,0.0,0.0,0.0,0.0,0.0,-0.424,0.0,0.0,0.0,0.0,0.0,0.0,0.0,0.0,0.0,0.0,0.0,0.0,0.0,0.0,-0.8258,-0.8797,-0.8775,-0.8958,0.0,0.0,-0.8791,-0.9219,-0.9288,-0.9151,0.0,0.0,0.0,0.0,0.0,0.0,0.0,0.0,0.0,0.0,0.0,0.0,0.0,0.0,0.0,0.0,0.0,0.0,0.0,0.0,0.0,0.0,0.0,0.0,0.0,0.0,0.0,0.0,0.0,0.0,0.0,0.0,0.0,0.0,0.0,0.0,0.0,0.0,0.0,0.0,0.0,0.0,0.0,0.0,0.0,0.0,0.0,0.0,0.0,0.0,0.0,0.0,0.0,0.0,0.0,-1.2407,-1.1871,-1.1586,-1.1599,-1.1619,-1.1477,-1.1185,-1.0092,-0.8707,0.0,0.0,0.0,0.0,0.0,0.0,0.0,0.0,0.0,0.0,0.0,0.0,0.0,0.0,0.0,0.0,0.0,0.0,0.0,0.0,0.0,0.0,0.0,0.0,0.0,0.0,0.0,0.0,0.0,0.0,0.0,0.0,0.0,0.0,0.0,0.0,0.0,0.0,0.0,0.0,0.0,-0.8537,-0.8946,-0.9129,-0.9342,0.0,0.0,-0.9286,-0.9548,-0.9751,-0.9592,-0.8696,0.0,0.0,0.0,0.0,0.0,0.0,0.0,0.0,0.0,0.0,0.0,0.0,0.0,0.0,0.0,0.0,0.0,0.0,0.0,0.0,0.0,0.0,0.0,0.0,0.0,0.0,0.0,0.0,0.0,0.0,0.0,0.0,0.0,0.0,0.0,0.0,0.0,0.0,0.0,0.0,0.0,0.0,0.0,0.0,0.0,0.0,0.0,0.0,0.0,0.0,0.0,0.0,0.0,-1.451,-1.3242,-1.2132,-1.1587,-1.1728,-1.1603,-1.1502,-1.145,-1.0203,-0.8807,0.0,0.0,0.0,0.0,0.0,0.0,0.0,0.0,0.0,0.0,0.0,0.0,0.0,0.0,0.0,0.0,0.0,0.0,0.0,0.0,0.0,0.0,0.0,0.0,0.0,0.0,0.0,0.0,-0.4983,-0.5012,-0.5017,0.0,0.0,0.0,0.0,0.0,0.0,0.0,0.0,0.0,0.0,-0.8803,-0.9475,-0.9748,0.0,0.0,-1.0148,-0.9971,-0.9714,-0.9544,-0.9287,-0.8402,-0.7856,0.0,0.0,0.0,0.0,0.0,0.0,0.0,0.0,0.0,0.0,0.0,0.0,0.0,0.0,0.0,0.0,0.0,0.0,0.0,0.0,0.0,0.0,0.0,0.0,0.0,0.0,0.0,0.0,0.0,0.0,0.0,0.0,0.0,0.0,0.0,0.0,0.0,0.0,0.0,0.0,0.0,0.0,0.0,0.0,0.0,0.0,0.0,0.0,0.0,0.0,0.0,0.0,-1.5308,-1.4122,-1.2412,-1.1719,-1.1969,-1.1877,-1.1809,-1.1619,-1.0696,-0.9303,0.0,0.0,0.0,0.0,0.0,0.0,0.0,0.0,0.0,0.0,0.0,0.0,0.0,0.0,0.0,0.0,0.0,0.0,0.0,0.0,0.0,0.0,0.0,0.0,0.0,0.0,0.0,0.0,-0.5109,-0.5057,-0.5099,0.0,0.0,0.0,0.0,0.0,0.0,0.0,0.0,0.0,0.0,-0.9004,-0.9544,-0.9833,-1.0034,-1.0029,-1.0085,-0.9912,-0.9478,-0.9127,-0.8724,-0.8233,0.0,0.0,0.0,0.0,0.0,0.0,0.0,0.0,0.0,0.0,0.0,0.0,0.0,0.0,0.0,0.0,0.0,0.0,0.0,0.0,0.0,0.0,0.0,0.0,0.0,0.0,0.0,0.0,0.0,0.0,-1.4135,0.0,0.0,0.0,0.0,0.0,0.0,0.0,0.0,0.0,0.0,0.0,0.0,0.0,0.0,0.0,0.0,0.0,0.0,0.0,0.0,0.0,0.0,-1.5601,-1.5003,-1.2725,-1.183,-1.2129,-1.2437,-1.2227,-1.164,-1.1523,-1.0607,-0.8416,0.0,0.0,0.0,0.0,0.0,0.0,0.0,0.0,0.0,0.0,0.0,0.0,0.0,0.0,0.0,0.0,0.0,0.0,0.0,0.0,0.0,0.0,0.0,0.0,0.0,0.0,-0.4839,-0.5015,-0.5138,0.0,0.0,0.0,0.0,0.0,0.0,0.0,0.0,0.0,0.0,-0.8704,-0.9287,-0.9168,-0.949,-0.9632,-0.9071,-0.9041,-0.903,-0.8802,-0.8391,-0.806,0.0,0.0,0.0,0.0,0.0,0.0,0.0,0.0,0.0,0.0,0.0,0.0,0.0,0.0,0.0,0.0,0.0,0.0,0.0,0.0,0.0,0.0,0.0,0.0,0.0,0.0,0.0,-1.44,-1.4758,0.0,0.0,0.0,0.0,0.0,0.0,0.0,0.0,0.0,0.0,0.0,-1.6259,-1.3295,0.0,0.0,0.0,0.0,0.0,0.0,0.0,0.0,0.0,0.0,0.0,0.0,-1.6145,-1.4558,-1.262,-1.1742,-1.2121,-1.234,-1.2326,-1.2067,-1.1728,-0.8826,-0.3029,0.0,0.0,0.0,0.0,0.0,0.0,0.0,0.0,0.0,0.0,0.0,0.0,0.0,0.0,0.0,0.0,0.0,0.0,0.0,0.0,0.0,0.0,0.0,0.0,0.0,-0.5336,0.0,0.0,0.0,0.0,0.0,0.0,0.0,0.0,0.0,0.0,0.0,-0.768,-0.8341,-0.857,-0.8863,-0.9198,-0.9285,-0.9467,0.0,0.0,0.0,0.0,0.0,0.0,0.0,0.0,0.0,0.0,0.0,0.0,0.0,0.0,-0.8884,-0.8368,-0.8415,-0.8547,-0.8598,0.0,0.0,0.0,0.0,0.0,0.0,0.0,0.0,0.0,0.0,0.0,0.0,0.0,0.0,-1.4792,0.0,-1.5012,0.0,0.0,0.0,0.0,0.0,0.0,0.0,0.0,-1.7089,-1.6962,-1.7986,-1.377,-1.244,0.0,-1.2267,-1.162,0.0,0.0,0.0,0.0,0.0,0.0,0.0,0.0,-1.599,-1.4183,-1.2677,-1.2065,-1.2338,-1.2519,-1.2519,-1.2359,-1.0607,-0.6563,-0.027,-0.039,-0.1114,0.0,0.0,0.0,0.0,0.0,0.0,0.0,0.0,0.0,0.0,0.0,0.0,0.0,0.0,0.0,0.0,0.0,0.0,0.0,0.0,0.0,0.0,0.0,-0.5529,0.0,0.0,0.0,0.0,0.0,0.0,0.0,0.0,0.0,-0.7328,-0.7674,-0.8194,-0.8873,-0.9014,-0.8972,-0.8988,0.0,0.0,0.0,0.0,0.0,0.0,0.0,-0.7327,-0.7172,-0.7224,-0.7742,-0.9171,-0.9775,-1.0054,-0.9968,0.0,0.0,-0.9155,-0.9155,-0.9306,-0.9252,-0.9408,-0.9544,-0.9544,-0.9829,-1.0086,0.0,0.0,0.0,0.0,0.0,0.0,0.0,0.0,-1.6217,-1.5322,0.0,-1.4966,0.0,0.0,0.0,0.0,0.0,-1.7303,0.0,0.0,-1.9037,-1.8781,-1.899,-1.5257,-1.2444,-1.0886,-1.1702,-1.1726,-1.1102,-1.1262,0.0,0.0,0.0,0.0,0.0,0.0,-1.4983,-1.3593,-1.2911,-1.2529,-1.2817,-1.2677,-1.2515,-1.234,-0.8154,-0.408,0.0,0.0,0.0,0.0,-0.1513,0.0,0.0,0.0,0.0,0.0,0.0,0.0,0.0,0.0,0.0,0.0,0.0,0.0,0.0,0.0,0.0,0.0,0.0,0.0,0.0,-0.585,0.0,0.0,0.0,0.0,0.0,0.0,0.0,0.0,0.0,0.0,-0.7656,-0.8206,-0.8873,-0.9404,0.0,0.0,0.0,0.0,-0.9205,-0.756,-0.7651,-0.7831,-0.7294,-0.6778,-0.641,-0.6765,0.0,0.0,-1.0919,-1.1082,-1.1014,-1.1021,-1.118,-1.1064,-0.9986,-0.989,-1.0053,-0.9924,-1.0134,-1.031,-1.0358,-1.0697,-1.1023,-2.2472,0.0,0.0,0.0,0.0,-2.0321,-1.976,-1.7965,-1.8464,-1.7759,-1.6188,-1.5493,0.0,0.0,0.0,0.0,0.0,0.0,-1.942,-1.9358,-1.9999,-1.9515,-1.7753,-1.4855,-1.316,-1.2554,-1.2087,-1.1788,-1.1792,-1.1453,-1.1606,-1.2284,0.0,0.0,0.0,0.0,-1.5577,-1.3611,-1.2867,-1.2692,-1.2986,-1.3151,-1.291,-1.2583,-0.837,-0.424,0.0,0.0,0.0,0.0,-0.0496,0.0,0.0,0.0,0.0,0.0,0.0,0.0,0.0,0.0,0.0,0.0,0.0,0.0,0.0,0.0,0.0,0.0,0.0,0.0,-0.6062,-0.6045,-0.5831,0.0,0.0,0.0,0.0,0.0,0.0,0.0,0.0,0.0,-0.8505,-0.8259,-0.8086,0.0,0.0,-0.8169,-0.7902,-0.845,-0.8825,-0.9004,-0.9257,0.0,-0.9893,-0.9025,-0.8292,-0.8417,-0.954,-1.0673,-1.1121,-1.1837,-1.2198,-1.2093,-1.2033,-1.2038,-1.1724,-1.1355,-1.1023,-1.0968,-1.1104,-1.1267,-1.1382,-1.1667,-1.1911,-2.3877,-2.2805,-2.1204,-2.0896,-2.1693,-2.3174,-2.2802,-2.1169,-2.1424,-2.0425,-1.8314,-1.5253,-1.5037,-1.7107,-1.886,0.0,0.0,0.0,-1.9768,-1.9055,-1.9613,-1.9275,-1.7885,-1.4836,-1.3368,-1.337,-1.2637,-1.2387,-1.259,-1.2079,-1.1964,-1.2122,0.0,0.0,-1.3546,-1.4932,-1.5041,-1.3761,-1.3166,-1.2915,-1.3198,-1.3212,-1.3123,-1.2628,-0.854,-0.4359,0.0,0.0,0.0,0.0,0.0,-0.1126,0.0,0.0,0.0,0.0,0.0,0.0,0.0,0.0,0.0,0.0,0.0,-0.5497,0.0,0.0,0.0,0.0,-0.6538,-0.6623,-0.6491,-0.6305,0.0,0.0,0.0,0.0,0.0,0.0,0.0,-0.7306,-0.8066,-0.873,-0.9105,-0.8785,-0.8676,-0.922,-0.9109,-0.8993,-0.8855,0.0,-0.9666,-0.9862,-1.0125,-1.0364,-1.0832,-1.0128,-0.8763,-0.5912,-0.7717,-1.0185,-1.1955,-1.2642,-1.2963,-1.2881,-1.2861,-1.284,-1.2779,-1.2393,-1.2026,-1.187,-1.1952,-1.2088,-1.2169,-1.2386,-1.2569,-2.3143,-2.4669,-2.3695,-2.3392,-2.3819,-2.5731,-2.5472,-2.3846,-2.4481,-2.271,-1.916,-1.4621,-1.4646,-1.8422,-2.0742,0.0,-1.9941,-2.0014,-1.9679,-1.898,-1.8426,-1.8267,-1.8313,-1.499,-1.3329,-1.3349,-1.3226,-1.3172,-1.3353,-1.3041,-1.2656,-1.2332,-1.2321,-1.2807,-1.3722,-1.3547,-1.3633,-1.3816,-1.3568,-1.3411,-1.318,-1.3193,-1.3152,-1.3057,-0.8668,-0.428,0.0,0.0,0.0,0.0,0.0,-0.1334,-0.4221,0.0,0.0,0.0,0.0,0.0,0.0,0.0,0.0,0.0,0.0,0.0,0.0,0.0,0.0,0.0,-0.71,0.0,-0.7176,-0.6761,0.0,0.0,0.0,-0.7295,-0.8008,-0.8359,-0.8784,-0.9057,0.0,0.0,-0.9672,-0.986,-1.022,-1.1015,-1.1231,-1.1114,-1.0615,-1.091,-1.1179,-1.0493,-1.0622,-1.0706,-1.085,-1.0411,-0.7681,-0.181,-0.3793,-0.8276,-1.2376,-1.3397,-1.339,-1.3363,-1.339,-1.3342,-1.3207,-1.3139,-1.3057,-1.2637,-1.2664,-1.2759,-1.2773,-1.2888,-1.3017,-2.3445,-2.3221,-2.306,-2.4477,-2.7078,-2.7741,-2.6198,-2.3642,-2.5781,-2.2386,-1.5381,-1.3881,-1.5589,-1.9478,-2.0888,-2.0781,-1.938,-2.0694,-2.0353,-1.8475,-1.8688,-1.7323,-1.4676,-1.388,-1.3383,-1.3349,-1.3315,-1.337,-1.3353,-1.3143,-1.2965,-1.2677,-1.2949,-1.3081,-1.3077,-1.2934,-1.3151,-1.3396,-1.3359,-1.3443,-1.3336,-1.3349,-1.3295,-1.3349,-0.8931,-0.4488,0.0,0.0,0.0,0.0,0.0,-0.0408,-0.1151,-0.3913,0.0,0.0,0.0,0.0,0.0,0.0,0.0,0.0,0.0,-0.6082,-0.5795,0.0,-0.6735,0.0,-0.7533,-0.82,-0.8383,-0.8355,0.0,0.0,-0.763,-0.7592,-0.852,-0.9062,-0.9244,-0.9348,-0.9906,-1.0486,-1.0785,-1.0962,-1.1454,-1.2165,-1.125,-1.0543,-1.0543,-1.1225,-1.1574,-1.1456,-1.2049,-1.2631,-1.2313,-0.9753,-0.5995,-0.0837,-0.3675,-0.8194,-1.2631,-1.3437,-1.3397,-1.3397,-1.3397,-1.3383,-1.3349,-1.3342,-1.3315,-1.3207,-1.3125,-1.3105,-1.3214,-1.3268,-1.3308,-2.1115,-2.1781,-2.18,-2.3759,-2.7398,-2.7371,-2.6182,-2.4226,-2.4538,-2.0852,-1.4437,-1.4856,-1.594,-1.7349,-1.9748,-2.0576,-2.0206,-1.9799,-1.8371,-1.5983,-1.6386,-1.5331,-1.3498,-1.3331,-1.3464,-1.3403,-1.3397,-1.3356,-1.3446,-1.3275,-1.3186,-1.303,-1.3283,-1.3397,-1.3524,-1.3216,-1.3233,-1.3887,-1.3803,-1.3645,-1.3397,-1.3397,-1.3177,-1.2893,-0.9738,-0.5753,-0.079,-0.0461,-0.0602,-0.0595,-0.0583,-0.0984,-0.2128,-0.3739,-0.5028,0.0,0.0,0.0,0.0,0.0,0.0,0.0,0.0,0.0,0.0,0.0,-0.7365,-0.7466,-0.8499,-0.9172,-0.9104,-0.8836,-0.8834,-0.9109,-0.8911,-0.8718,-0.8392,-0.966,-1.0687,-1.0742,-1.1095,-1.1611,-1.1837,-1.2108,-1.2448,-1.2929,-1.2173,-1.1733,-1.1745,-1.2075,-1.2417,-1.2482,-1.2893,-1.3288,-1.3315,-0.9516,-0.5198,-0.1345,-0.2014,-0.5867,-1.213,-1.3458,-1.3417,-1.3403,-1.3397,-1.3397,-1.3397,-1.3397,-1.3397,-1.339,-1.3336,-1.3308,-1.3383,-1.3397,-1.3397,-1.8004,-2.0168,-1.9864,-2.2038,-2.5583,-2.5384,-2.5307,-2.5217,-2.3013,-1.927,-1.5007,-1.637,-1.5786,-1.4105,-1.8139,-2.008,-2.0436,-1.8094,-1.5731,-1.3532,-1.3396,-1.3429,-1.3485,-1.3479,-1.3405,-1.3431,-1.3431,-1.3424,-1.3403,-1.3397,-1.3397,-1.3397,-1.3268,-1.3533,-1.4179,-1.3728,-1.3887,-1.4682,-1.4354,-1.3756,-1.3403,-1.3417,-1.3032,-1.2225,-1.0678,-0.7303,-0.2349,-0.1533,-0.1355,-0.1338,-0.1335,-0.232,-0.4282,-0.367,-0.4055,0.0,-0.5526,0.0,0.0,0.0,0.0,0.0,0.0,0.0,0.0,-0.802,-0.8189,-0.903,-0.9823,-1.0235,-0.9781,-0.9189,-0.9123,-1.0029,-1.0589,-1.0202,-0.8681,-1.0733,-1.2237,-1.2386,-1.2515,-1.2644,-1.2807,-1.3051,-1.32,-1.32,-1.3288,-1.315,-1.3234,-1.32,-1.3247,-1.339,-1.3397,-1.3403,-1.2958,-0.9569,-0.5198,0.0,0.0,0.0,-1.0942,-1.2958,-1.3444,-1.341,-1.3397,-1.3397,-1.3397,-1.3397,-1.3397,-1.3397,-1.339,-1.339,-1.3397,-1.3397,-1.3397,-1.7174,-1.7355,-1.7298,-1.9346,-2.2454,-2.1648,-2.2945,-2.5739,-2.4069,-2.0268,-1.5231,-1.5153,-1.485,-1.4493,-1.6795,-1.6982,-1.5462,-1.6519,-1.601,-1.4124,-1.3817,-1.3831,-1.4152,-1.3804,-1.3552,-1.3418,-1.3587,-1.3519,-1.3397,-1.3397,-1.3397,-1.3397,-1.3707,-1.3851,-1.3672,0.0,0.0,0.0,-1.4361,-1.3526,-1.341,-1.3184,-1.2958,-1.2533,-1.0594,0.0,-0.6736,-0.3678,-0.2108,-0.2082,-0.2061,0.0,0.0,0.0,0.0,0.0,0.0,0.0,0.0,0.0,0.0,0.0,-0.9624,-0.9294,-0.8848,-0.891,-0.9504,-1.0687,-1.0995,-1.1183,-1.1665,-1.1663,-1.1651,-1.1921,-1.2141,-1.205,-1.2134,-1.2641,-1.3027,-1.299,-1.303,-1.3098,-1.3234,-1.3329,-1.3356,-1.3349,-1.3383,-1.339,-1.3363,-1.3349,-1.337,-1.3397,-1.3397,-1.3424,-1.3325,-0.9574,-0.5198,0.0,0.0,0.0,-0.7041,-1.1254,-1.3271,-1.3403,-1.3397,-1.3397,-1.3397,-1.3397,-1.3397,-1.3397,-1.3397,-1.3397,-1.3397,-1.3397,-1.3397,-1.7066,0.0,-1.6781,-1.7689,0.0,-1.8567,-1.9394,-2.1192,-2.3082,-2.0682,-1.5167,-1.4943,-1.4908,-1.4695,-1.5668,-1.5359,-1.4352,-1.5388,-1.517,-1.4068,-1.4068,-1.4208,-1.4312,-1.396,-1.3878,-1.3906,-1.3661,-1.3593,-1.3345,-1.3437,-1.3397,-1.3397,-1.3569,-1.3562,-1.3397,-1.3894,-1.4232,-1.475,-1.4159,-1.3818,-1.3576,-1.3311,-1.3072,-1.2527,-1.0611,0.0,0.0,0.0,0.0,0.0,0.0,0.0,0.0,0.0,0.0,-0.4026,-0.6454,-0.8433,-0.9716,-1.0266,-1.0768,-1.1134,-1.1334,-1.0919,-1.0089,-1.0624,-1.1282,-1.1954,-1.2076,-1.2403,-1.2732,-1.2728,-1.1876,-1.013,-1.1637,-1.3003,-1.3234,-1.322,-1.322,-1.3275,-1.3281,-1.3315,-1.339,-1.3397,-1.3397,-1.3397,-1.3397,-1.3397,-1.3397,-1.3397,-1.3397,-1.3397,-1.3397,-1.3424,-1.2977,-0.9574,-0.5198,0.0,0.0,0.0,-0.5864,-1.0414,-1.3458,-1.3417,-1.3397,-1.3397,-1.3397,-1.3397,-1.3397,-1.3397,-1.3397,-1.3397,-1.3397,-1.3397,-1.3397,-1.7134,-1.6971,-1.6842,-1.6781,-1.6941,-1.6463,-1.6313,-1.6447,0.0,0.0,0.0,-1.5248,-1.5259,-1.5202,-1.4977,-1.4699,-1.4557,-1.455,-1.4303,-1.3833,-1.4169,-1.4272,-1.4331,-1.4122,-1.4208,-1.4235,-1.3933,-1.3506,-1.3452,-1.3331,-1.3424,-1.3403,-1.3397,-1.3397,-1.3397,-1.3397,-1.3397,-1.339,-1.3929,-1.3936,-1.3742,-1.3431,-1.3025,-1.2684,-1.079,-0.9181,-0.802,-0.4364,-0.2162,-0.1983,-0.1982,-0.2134,-0.2286,-0.1677,-0.1213,-0.1202,-0.5764,-0.9288,-1.0859,-1.1371,-1.1831,-1.2488,-1.2712,-1.2364,-1.1517,-1.2165,-1.2684,-1.2834,-1.3071,-1.3214,-1.3214,-1.3356,-1.1926,-0.8219,-1.1254,-1.3471,-1.3325,-1.3451,-1.3397,-1.3403,-1.339,-1.3397,-1.3397,-1.3397,-1.3397,-1.3397,-1.3397,-1.3397,-1.3397,-1.3397,-1.3397,-1.3397,-1.3397,-1.3424,-1.2798,-0.9574,-0.52,0.0,0.0,0.0,-0.503,-0.9918,-1.2971,-1.3424,-1.341,-1.3403,-1.3397,-1.3397,-1.3397,-1.3397,-1.3397,-1.3397,-1.3397,-1.3397,-1.3397,-1.7229,-1.6978,-1.6958,-1.6876,-1.6955,-1.6564,-1.6347,-1.6103,-1.6925,-1.6803,-1.5945,-1.5486,-1.5282,-1.5113,-1.4997,-1.4855,-1.4713,-1.4706,-1.451,-1.4295,-1.4356,-1.4289,-1.4263,-1.4326,-1.419,-1.4228,-1.4194,-1.3871,-1.3479,-1.3439,-1.3532,-1.3417,-1.3397,-1.3397,-1.3397,-1.3397,-1.3397,-1.3403,-1.3526,-1.3532,-1.341,-1.3191,-1.2958,-1.2533,-1.0716,-0.831,-0.5563,-0.3499,-0.1741,-0.0469,-0.0938,-0.1563,-0.2189,-0.2189,-0.1561,-0.0467,-0.4552,-0.8688,-1.2187,-1.2742,-1.2943,-1.3234,-1.3281,-1.322,-1.2876,-1.3051,-1.3139,-1.3288,-1.3336,-1.337,-1.3376,-1.3417,-1.3125,-1.247,-1.2984,-1.3331,-1.3164,-1.3298,-1.3431,-1.3403,-1.3397,-1.3397,-1.3397,-1.3397,-1.3397,-1.3397,-1.3397,-1.3397,-1.3397,-1.3397,-1.3397,-1.3397,-1.3397,-1.3431,-1.2971,-0.9574,-0.52,-0.0673,0.0,0.0,0.0,0.0,-1.2637,-1.3451,-1.3417,-1.3403,-1.3397,-1.3397,-1.3397,-1.3397,-1.3397,-1.3397,-1.3397,-1.3397,-1.3397,-1.7249,-1.6992,-1.6978,-1.6944,-1.7071,-1.6625,-1.6354,-1.6083,-1.6206,-1.6131,-1.6041,-1.571,-1.552,-1.5309,-1.5242,-1.5126,-1.4977,-1.4903,-1.4862,-1.4848,-1.4524,-1.445,-1.4262,-1.439,-1.4462,-1.4312,-1.4231,-1.4082,-1.3693,-1.3709,-1.3593,-1.3351,-1.3444,-1.3397,-1.3397,-1.3397,-1.3397,-1.3403,-1.3464,-1.3471,-1.3403,-1.3298,-1.3105,-1.2972,-1.2167,-0.9922,-0.6003,-0.2923,-0.0809,-0.0,-0.032,-0.0643,-0.097,-0.097,-0.081,-0.0326,-0.655,-1.1195,-1.301,-1.3247,-1.3329,-1.3397,-1.3397,-1.337,-1.3302,-1.3295,-1.3329,-1.339,-1.3397,-1.3397,-1.3403,-1.3431,-1.3464,-1.3331,-1.1951,-1.0581,-1.0247,-1.2087,-1.3417,-1.3403,-1.3397,-1.3397,-1.3397,-1.3397,-1.3397,-1.3397,-1.3397,-1.3397,-1.3397,-1.3397,-1.3397,-1.3397,-1.3397,-1.3431,-1.3151,-0.9574,-0.52,-0.0673,0.0,0.0,0.0,-0.587,-1.0075,-1.2945,-1.3424,-1.3403,-1.3397,-1.3397,-1.3397,-1.3397,-1.3397,-1.3397,-1.3397,-1.3397,-1.3397,-1.7249,-1.6978,-1.6978,-1.6944,-1.6856,-1.6625,-1.6354,-1.609,-1.6083,-1.6015,-1.611,-1.6076,-1.5904,-1.5472,-1.5425,-1.5323,-1.5181,-1.5072,-1.5018,-1.5197,-1.4862,-1.4604,-1.4598,-1.4577,-1.4679,-1.4557,-1.4414,-1.4265,-1.4102,-1.3858,-1.3688,-1.3452,-1.3478,-1.3397,-1.3397,-1.3397,-1.3397,-1.3397,-1.3397,-1.3397,-1.3397,-1.3397,-1.3397,-1.3403,-1.3431,-1.1712,-0.8284,-0.2978,0.0,0.0,0.0,0.0,0.0,0.0,0.0,0.0,-0.7413,-1.2334,-1.3325,-1.3437,-1.3397,-1.3397,-1.3397,-1.3397,-1.3397,-1.3397,-1.3397,-1.3397,-1.3397,-1.3397,-1.3403,-1.3424,-1.3118,-1.1951,-1.0232,-0.9207,-0.872,-1.1403,-1.341,-1.3403,-1.3397,-1.3397,-1.3397,-1.3397,-1.3397,-1.3397,-1.3397,-1.3397,-1.3397,-1.3397,-1.3397,-1.3397,-1.3397,-1.3424,-1.3144,-0.9574,-0.52,0.0,0.0,0.0,0.0,-0.3688,-0.8219,-1.2099,-1.3431,-1.3403,-1.3397,-1.3397,-1.3397,-1.3397,-1.3397,-1.3397,-1.3397,-1.3397,-1.3397,-1.7249,-1.6998,-1.6978,-1.6815,-1.6571,-1.653,-1.6347,-1.6096,-1.6083,-1.6076,-1.6042,-1.6117,-1.5966,-1.5608,-1.5472,-1.5337,-1.5187,-1.5167,-1.516,-1.5147,-1.5018,-1.4957,-1.5121,-1.4814,-1.4922,-1.5077,-1.475,-1.4421,-1.4272,-1.4102,-1.3892,-1.3641,-1.3478,-1.3403,-1.3397,-1.3397,-1.3397,-1.3397,-1.3397,-1.3397,-1.3397,-1.3397,-1.3397,-1.3397,-1.3431,-1.3291,-1.2272,-0.4521,0.0,0.0,0.0,0.0,0.0,0.0,0.0,0.0,-0.4542,-0.9082,-1.2951,-1.3424,-1.3403,-1.3397,-1.3397,-1.3397,-1.3397,-1.3397,-1.3397,-1.3397,-1.3397,-1.3397,-1.3397,-1.3403,-1.1902,-0.9059,-0.8874,-0.9883,-1.2118,-1.3131,-1.3437,-1.3403,-1.3397,-1.3397,-1.3397,-1.3397,-1.3397,-1.3397,-1.3397,-1.3397,-1.3397,-1.3397,-1.3397,-1.3397,-1.3397,-1.3431,-1.2971,-0.9574,-0.52,0.0,0.0,0.0,0.0,-0.3692,-0.8219,-1.2118,-1.3444,-1.3403,-1.3397,-1.3397,-1.3397,-1.3397,-1.3397,-1.3397,-1.3397,-1.3397,-1.3397,-1.7249,-1.6978,-1.6883,-1.6673,-1.6415,-1.6395,-1.6279,-1.609,-1.6083,-1.6083,-1.6076,-1.6015,-1.5859,-1.5642,-1.5574,-1.5418,-1.5187,-1.5181,-1.5181,-1.5181,-1.512,-1.5092,-1.5092,-1.5038,-1.5149,-1.5243,-1.4726,-1.4563,-1.4407,-1.419,-1.4098,-1.3654,-1.3392,-1.3325,-1.341,-1.3397,-1.3397,-1.3397,-1.3397,-1.3397,-1.3397,-1.3397,-1.3397,-1.3403,-1.341,-1.3437,-1.2791,-0.7208,-0.2683,0.0,0.0,0.0,0.0,0.0,0.0,0.0,-0.168,-0.5873,-1.2971,-1.3451,-1.3424,-1.3403,-1.3397,-1.3397,-1.3397,-1.3397,-1.3397,-1.3397,-1.3397,-1.3397,-1.3403,-1.3417,-1.2586,-1.1076,-1.1237,-1.2087,-1.3131,-1.3444,-1.3417,-1.3403,-1.3397,-1.3397,-1.3397,-1.3397,-1.3397,-1.3397,-1.3397,-1.3397,-1.3397,-1.3397,-1.3397,-1.3397,-1.3397,-1.3431,-1.2977,-0.9574,-0.52,0.0,0.0,0.0,0.0,0.0,-0.8219,-1.2643,-1.3278,-1.341,-1.3397,-1.3397,-1.3397,-1.3397,-1.3397,-1.3397,-1.3397,-1.3397,-1.3397,-1.7222,-1.6917,-1.6754,-1.6544,-1.6313,-1.6313,-1.6218,-1.609,-1.6083,-1.6083,-1.6083,-1.6083,-1.594,-1.5723,-1.5696,-1.5533,-1.5269,-1.5242,-1.5221,-1.5187,-1.5181,-1.5181,-1.5181,-1.5181,-1.5133,-1.5204,-1.4875,-1.4706,-1.4316,-1.4393,-1.4139,-1.377,-1.3499,-1.3398,-1.3471,-1.3431,-1.3397,-1.3397,-1.3397,-1.3397,-1.3397,-1.3397,-1.3397,-1.3397,-1.3397,-1.3417,-1.3298,-1.0247,-0.587,0.0,0.0,0.0,0.0,0.0,0.0,0.0,0.0,-0.3353,-1.1109,-1.2785,-1.3437,-1.3403,-1.3397,-1.3397,-1.3397,-1.3397,-1.3397,-1.3397,-1.3397,-1.3397,-1.3403,-1.3424,-1.3437,-1.3451,-1.3451,-1.3451,-1.3451,-1.3431,-1.341,-1.3403,-1.3397,-1.3397,-1.3397,-1.3397,-1.3397,-1.3397,-1.3397,-1.3397,-1.3397,-1.3397,-1.3397,-1.3397,-1.3397,-1.3424,-1.3131,-0.9574,-0.52,0.0,0.0,0.0,0.0,0.0,-0.7547,-1.1277,-1.2593,-1.3417,-1.3403,-1.3397,-1.3397,-1.3397,-1.3397,-1.3397,-1.3397,-1.3397,-1.3397,-1.7161,-1.6761,-1.6598,-1.6442,-1.6307,-1.6307,-1.6218,-1.6083,-1.6083,-1.6083,-1.6083,-1.6083,-1.5995,-1.5852,-1.5845,-1.5683,-1.5425,-1.5391,-1.5316,-1.5201,-1.5187,-1.5181,-1.5181,-1.5181,-1.5174,-1.514,-1.5004,-1.4794,-1.4509,-1.4407,-1.4249,-1.4034,-1.3599,-1.3459,-1.3587,-1.3464,-1.3403,-1.3397,-1.3397,-1.3397,-1.3397,-1.3397,-1.3397,-1.3397,-1.3397,-1.3431,-1.3318,-1.3158,-0.8919,-0.0337,0.0,0.0,0.0,0.0,0.0,0.0,0.0,-0.2011,-0.6703,-1.0915,-1.3437,-1.341,-1.3403,-1.3397,-1.3397,-1.3397,-1.3397,-1.3397,-1.3397,-1.3397,-1.3397,-1.3403,-1.3417,-1.3444,-1.3451,-1.3451,-1.3451,-1.3444,-1.3431,-1.341,-1.3397,-1.3397,-1.3397,-1.3397,-1.3397,-1.3397,-1.3397,-1.3397,-1.3397,-1.3397,-1.3397,-1.3397,-1.3403,-1.341,-1.2938,-1.0748,-0.6035,0.0,0.0,0.0,0.0,-0.1176,-0.6214,-1.009,-1.2266,-1.3258,-1.341,-1.3397,-1.3397,-1.3397,-1.3397,-1.3397,-1.3397,-1.3397,-1.3397,-1.7012,-1.6598,-1.6449,-1.63,-1.6171,-1.6164,-1.613,-1.6083,-1.6083,-1.6083,-1.6083,-1.6083,-1.6049,-1.5995,-1.6001,-1.5839,-1.556,-1.5459,-1.5377,-1.5316,-1.5228,-1.5181,-1.5181,-1.5181,-1.5181,-1.516,-1.5224,-1.4814,-1.4536,-1.4401,-1.4251,-1.4061,-1.3865,-1.3722,-1.362,-1.3478,-1.3397,-1.3397,-1.3397,-1.3397,-1.3397,-1.3397,-1.3397,-1.3397,-1.3397,-1.341,-1.3437,-1.0742,-0.755,-0.436,-0.1681,0.0,0.0,0.0,0.0,0.0,0.0,-0.0672,-0.3018,-0.9402,-1.3471,-1.3437,-1.3417,-1.3397,-1.3397,-1.3397,-1.3397,-1.3397,-1.3397,-1.3397,-1.3397,-1.3397,-1.3403,-1.3417,-1.3417,-1.3417,-1.3417,-1.3417,-1.341,-1.3403,-1.3397,-1.3397,-1.3397,-1.3397,-1.3397,-1.3397,-1.3397,-1.3397,-1.3397,-1.3397,-1.3397,-1.3397,-1.3397,-1.3403,-1.3417,-1.2445,0.0,0.0,0.0,0.0,0.0,0.0,-0.8064,-0.9407,-1.1587,-1.3264,-1.3403,-1.3397,-1.3397,-1.3397,-1.3397,-1.3397,-1.3397,-1.3397,-1.3397,-1.6802,-1.6517,-1.6313,-1.6178,-1.6083,-1.6083,-1.6083,-1.6083,-1.6083,-1.6083,-1.6083,-1.6083,-1.6083,-1.6083,-1.6083,-1.5981,-1.5771,-1.5581,-1.5459,-1.5398,-1.5255,-1.5181,-1.5181,-1.5181,-1.5181,-1.516,-1.5231,-1.5046,-1.4665,-1.4376,-1.4229,-1.4217,-1.4021,-1.3844,-1.3695,-1.3546,-1.3458,-1.3417,-1.3397,-1.3397,-1.3397,-1.3397,-1.3397,-1.341,-1.3451,-1.3458,-1.3424,-1.0404,-0.7212,-0.4693,-0.1512,0.0,0.0,0.0,0.0,0.0,0.0,0.0,0.0,-0.7048,-1.1778,-1.3284,-1.3417,-1.3397,-1.3397,-1.3397,-1.3397,-1.3397,-1.3397,-1.3397,-1.3397,-1.3397,-1.3397,-1.3403,-1.341,-1.341,-1.3403,-1.341,-1.341,-1.3403,-1.3397,-1.3397,-1.3397,-1.3397,-1.3397,-1.3397,-1.3397,-1.3397,-1.3397,-1.3397,-1.3397,-1.3397,-1.3397,-1.3397,-1.3417,-1.2778,-1.0592,0.0,0.0,0.0,0.0,0.0,-0.7893,-0.9063,-1.0565,-1.2407,-1.341,-1.3403,-1.3397,-1.3397,-1.3397,-1.3397,-1.3397,-1.3397,-1.3397,-1.653,-1.6483,-1.6205,-1.609,-1.6083,-1.6083,-1.6083,-1.6083,-1.6083,-1.6083,-1.6083,-1.6083,-1.6083,-1.6083,-1.6083,-1.6069,-1.5995,-1.5757,-1.5567,-1.5432,-1.5262,-1.5181,-1.5181,-1.5181,-1.5181,-1.5174,-1.5238,-1.5162,-1.4923,-1.4504,-1.435,-1.4448,-1.4204,-1.3994,-1.3844,-1.3519,-1.3372,-1.3444,-1.341,-1.3403,-1.3403,-1.3424,-1.3431,-1.3444,-1.3559,-1.358,-1.3478,-1.3164,-0.9272,-0.2017,-0.0337,0.0,0.0,0.0,0.0,0.0,0.0,0.0,0.0,-0.4201,-0.8584,-1.2458,-1.3437,-1.3424,-1.3403,-1.3397,-1.3397,-1.3397,-1.3397,-1.3397,-1.3397,-1.3397,-1.3397,-1.3403,-1.3424,-1.3431,-1.341,-1.3431,-1.3437,-1.341,-1.3397,-1.3397,-1.3397,-1.3397,-1.3397,-1.3397,-1.3397,-1.3397,-1.3397,-1.3397,-1.3397,-1.3397,-1.3397,-1.3397,-1.3424,-1.3111,-1.0409,0.0,0.0,0.0,0.0,-0.4878,-0.8244,-0.9923,-1.1415,-1.3264,-1.3403,-1.3397,-1.3397,-1.3397,-1.3397,-1.3397,-1.3397,-1.3397,-1.3397,-1.6517,-1.6483,-1.6205,-1.6083,-1.6083,-1.6083,-1.6083,-1.6083,-1.6083,-1.6083,-1.6083,-1.6083,-1.6083,-1.6083,-1.6083,-1.6083,-1.6062,-1.5872,-1.571,-1.5547,-1.5309,-1.5194,-1.5187,-1.5187,-1.5181,-1.5174,-1.514,-1.5065,-1.497,-1.4875,-1.4733,-1.4516,-1.4326,-1.415,-1.3994,-1.3586,-1.3425,-1.3385,-1.3451,-1.3451,-1.3546,-1.3559,-1.36,-1.3695,-1.3749,-1.3756,-1.3722,-1.3429,-1.0486,-0.4622,0.0,0.0,0.0,0.0,0.0,0.0,0.0,0.0,0.0,-0.1372,-0.5634,-1.1419,-1.327,-1.3358,-1.3424,-1.341,-1.341,-1.341,-1.3403,-1.3397,-1.3397,-1.3397,-1.341,-1.3403,-1.341,-1.3417,-1.3403,-1.341,-1.341,-1.3403,-1.3397,-1.3397,-1.3397,-1.3397,-1.3397,-1.3397,-1.3397,-1.3397,-1.3397,-1.3397,-1.3397,-1.3397,-1.3397,-1.3397,-1.3417,-1.2932,-1.092,-0.7383,0.0,0.0,0.0,-0.4549,-0.7917,-1.0775,-1.2272,-1.3098,-1.3244,-1.3397,-1.3397,-1.3397,-1.3397,-1.3397,-1.3397,-1.3397,-1.3397,-1.6517,-1.6483,-1.6205,-1.6083,-1.6083,-1.6083,-1.6083,-1.6083,-1.6083,-1.6083,-1.6083,-1.6083,-1.6083,-1.6083,-1.6083,-1.6083,-1.6062,-1.592,-1.5805,-1.5696,-1.5479,-1.535,-1.516,-1.5154,-1.535,-1.5337,-1.5289,-1.5221,-1.5133,-1.521,-1.5059,-1.4685,-1.4482,-1.4306,-1.415,-1.3926,-1.377,-1.3532,-1.3445,-1.3439,-1.3688,-1.3709,-1.3756,-1.3831,-1.3892,-1.3926,-1.3933,-1.3867,-1.1563,-0.6938,-0.2429,0.0,0.0,0.0,0.0,0.0,0.0,0.0,0.0,0.0,-0.2936,-0.9631,-1.2557,-1.3532,-1.3593,-1.3566,-1.3559,-1.3566,-1.3573,-1.3566,-1.3566,-1.3566,-1.3566,-1.3566,-1.3464,-1.341,-1.3397,-1.3397,-1.3397,-1.3397,-1.3397,-1.3397,-1.3397,-1.3397,-1.3397,-1.3397,-1.3397,-1.3397,-1.3397,-1.3397,-1.3397,-1.3397,-1.3397,-1.3403,-1.3403,-1.258,-1.1426,-0.7387,0.0,0.0,0.0,0.0,-0.7925,-1.077,-1.2778,-1.3251,-1.3397,-1.3397,-1.3397,-1.3397,-1.3397,-1.3397,-1.3397,-1.3397,-1.3397,-1.653,-1.6483,-1.6212,-1.6096,-1.6083,-1.6083,-1.6083,-1.6083,-1.6083,-1.6083,-1.6083,-1.6083,-1.6083,-1.6083,-1.6083,-1.6083,-1.6056,-1.6158,-1.6083,-1.5839,-1.5716,-1.5448,-1.5388,-1.5381,-1.5381,-1.5574,-1.5479,-1.5411,-1.535,-1.5153,-1.4984,-1.4909,-1.4679,-1.4462,-1.4312,-1.4331,-1.4,-1.3865,-1.3653,-1.3646,-1.3851,-1.3858,-1.3871,-1.3892,-1.4014,-1.4082,-1.4109,-1.335,-1.1004,-0.6441,0.0,0.0,0.0,0.0,0.0,0.0,0.0,0.0,0.0,0.0,0.0,-0.7281,-1.1457,-1.3707,-1.3817,-1.3777,-1.3777,-1.3783,-1.3797,-1.381,-1.3804,-1.3804,-1.3804,-1.3797,-1.3614,-1.3485,-1.3437,-1.3444,-1.3478,-1.3464,-1.3431,-1.3431,-1.3464,-1.3451,-1.3431,-1.3424,-1.3417,-1.3397,-1.3397,-1.3397,-1.3397,-1.3397,-1.3397,-1.3397,-1.3403,-1.3258,-1.1939,-0.9579,0.0,0.0,0.0,0.0,0.0,-1.0602,-1.2778,-1.3251,-1.3397,-1.3397,-1.3397,-1.3397,-1.3397,-1.3397,-1.3397,-1.3397,-1.3397,-1.6625,-1.6503,-1.632,-1.6185,-1.609,-1.6083,-1.6083,-1.6083,-1.6083,-1.6083,-1.6083,-1.6083,-1.6083,-1.6083,-1.6083,-1.6083,-1.6069,-1.6035,-1.6022,-1.6015,-1.5988,-1.5825,-1.5676,-1.5842,-1.5849,-1.5849,-1.5808,-1.5719,-1.5418,-1.5323,-1.5181,-1.4977,-1.5073,-1.4895,-1.4475,-1.4319,-1.4163,-1.4014,-1.4071,-1.3912,-1.4,-1.4007,-1.4068,-1.4177,-1.4211,-1.4238,-1.3879,-1.0712,-0.679,-0.2313,0.0,0.0,0.0,0.0,0.0,0.0,0.0,0.0,0.0,0.0,0.0,-0.6838,-1.1423,-1.4021,-1.3851,-1.3844,-1.3838,-1.3838,-1.3838,-1.3851,-1.3844,-1.3851,-1.3851,-1.3831,-1.3777,-1.3722,-1.3709,-1.3722,-1.3722,-1.3722,-1.3709,-1.3702,-1.3682,-1.362,-1.3566,-1.3553,-1.3485,-1.3417,-1.3431,-1.3397,-1.3397,-1.3397,-1.3397,-1.3397,-1.341,-1.3437,-1.2612,-1.1277,0.0,0.0,0.0,0.0,0.0,-1.0937,-1.2612,-1.3431,-1.341,-1.3397,-1.3397,-1.3397,-1.3397,-1.3397,-1.3397,-1.3397,-1.3397,-1.6659,-1.651,-1.6368,-1.6218,-1.609,-1.6083,-1.6083,-1.6083,-1.6083,-1.6083,-1.6083,-1.6083,-1.6083,-1.6083,-1.6083,-1.6083,-1.6083,-1.6083,-1.6076,-1.6076,-1.6069,-1.5974,-1.5859,-1.6028,-1.6028,-1.6021,-1.6161,-1.589,-1.5588,-1.5479,-1.5316,-1.5167,-1.5224,-1.5066,-1.4719,-1.4489,-1.4353,-1.4245,-1.4297,-1.4263,-1.4156,-1.417,-1.4204,-1.4285,-1.4299,-1.4306,-1.3774,-0.9651,-0.4829,0.0,0.0,0.0,0.0,0.0,0.0,0.0,0.0,0.0,0.0,0.0,0.0,-0.6744,-1.1555,-1.3657,-1.4082,-1.4034,-1.4034,-1.4041,-1.4034,-1.4034,-1.4034,-1.4034,-1.4034,-1.4048,-1.4034,-1.398,-1.3865,-1.3824,-1.3838,-1.3838,-1.3838,-1.3838,-1.3844,-1.3763,-1.3729,-1.3688,-1.3593,-1.3539,-1.3505,-1.3451,-1.341,-1.3417,-1.3403,-1.3397,-1.3397,-1.3417,-1.2778,-1.1444,0.0,0.0,0.0,0.0,0.0,0.0,0.0,-1.3444,-1.3431,-1.341,-1.3397,-1.3397,-1.3397,-1.3397,-1.3397,-1.3397,-1.3397,-1.6673,-1.6721,-1.6388,-1.6232,-1.6096,-1.6083,-1.6083,-1.6083,-1.6083,-1.6083,-1.6083,-1.6083,-1.6083,-1.6083,-1.6083,-1.6083,-1.6083,-1.6083,-1.6083,-1.6083,-1.6083,-1.6049,-1.6035,-1.6029,-1.6029,-1.6022,-1.6131,-1.6062,-1.5771,-1.5574,-1.5452,-1.5343,-1.5327,-1.5197,-1.4896,-1.4685,-1.4563,-1.4502,-1.4407,-1.4326,-1.4326,-1.4319,-1.4319,-1.4292,-1.4299,-1.4319,-1.3432,-1.0204,-0.5725,0.0,0.0,0.0,0.0,0.0,0.0,0.0,0.0,0.0,0.0,0.0,-0.1971,-0.6786,-1.1471,-1.4196,-1.4278,-1.4245,-1.4245,-1.4238,-1.4292,-1.4258,-1.4258,-1.4278,-1.4258,-1.4245,-1.4272,-1.4156,-1.3973,-1.3885,-1.3885,-1.3892,-1.3899,-1.3892,-1.3885,-1.3871,-1.3865,-1.3858,-1.3749,-1.3668,-1.3614,-1.3546,-1.3498,-1.3471,-1.3437,-1.3397,-1.3397,-1.3403,-1.2593,-1.1098,-0.4868,0.0,0.0,0.0,0.0,0.0,0.0,-1.0065,-1.3444,-1.3431,-1.341,-1.3397,-1.3397,-1.3397,-1.3397,-1.3397,-1.3397,-1.6775,-1.6728,-1.6694,-1.6327,-1.6103,-1.6083,-1.6083,-1.6083,-1.6083,-1.6083,-1.6083,-1.6083,-1.6083,-1.6083,-1.6083,-1.6083,-1.6083,-1.6083,-1.6083,-1.6083,-1.6083,-1.6083,-1.6083,-1.6083,-1.6083,-1.6069,-1.6049,-1.5967,-1.5852,-1.5771,-1.5635,-1.5425,-1.5357,-1.5194,-1.4991,-1.4916,-1.4801,-1.4517,-1.4282,-1.4376,-1.4296,-1.4283,-1.4242,-1.434,-1.4306,-1.4319,-1.4169,-1.3293,-0.8599,0.0,0.0,0.0,0.0,0.0,0.0,0.0,0.0,0.0,0.0,0.0,-0.1971,-0.6258,-1.112,-1.4373,-1.4312,-1.4299,-1.4299,-1.4299,-1.4299,-1.4299,-1.4299,-1.4299,-1.4299,-1.4299,-1.4299,-1.4278,-1.4217,-1.419,-1.417,-1.4177,-1.4177,-1.4197,-1.4183,-1.4068,-1.4034,-1.4007,-1.3919,-1.3817,-1.3736,-1.3661,-1.3614,-1.3573,-1.3492,-1.3458,-1.3451,-1.3271,-1.2593,-1.0581,-0.453,0.0,0.0,0.0,0.0,0.0,0.0,-0.5527,-1.0742,-1.3451,-1.3431,-1.3417,-1.3397,-1.3397,-1.3397,-1.3397,-1.3397,-1.6734,-1.6524,-1.6659,-1.6293,-1.6103,-1.6083,-1.6083,-1.6083,-1.6083,-1.6083,-1.6083,-1.6083,-1.6083,-1.6083,-1.6083,-1.6083,-1.6083,-1.6083,-1.6083,-1.6083,-1.6083,-1.6083,-1.6083,-1.6083,-1.6083,-1.6083,-1.6076,-1.6022,-1.5967,-1.5886,-1.5764,-1.5622,-1.5355,-1.5398,-1.5194,-1.5106,-1.4984,-1.4855,-1.4774,-1.4692,-1.4631,-1.443,-1.441,-1.4296,-1.4387,-1.4333,-1.4242,-1.4229,-1.0218,-0.4829,0.0,0.0,0.0,0.0,0.0,0.0,0.0,0.0,0.0,0.0,-0.1075,-0.3753,-1.004,-1.328,-1.4333,-1.4312,-1.4299,-1.4299,-1.4299,-1.4299,-1.4299,-1.4299,-1.4299,-1.4299,-1.4299,-1.4299,-1.4299,-1.4299,-1.4299,-1.4299,-1.4278,-1.4285,-1.4258,-1.4197,-1.419,-1.415,-1.4048,-1.3946,-1.3905,-1.3838,-1.3763,-1.3695,-1.3587,-1.3526,-1.3512,-1.3318,-1.2772,-0.9736,-0.5033,0.0,0.0,0.0,0.0,0.0,0.0,0.0,-0.771,-1.0398,-1.3271,-1.3417,-1.3397,-1.3397,-1.3397,-1.3397,-1.3397,-1.6659,-1.651,-1.6374,-1.6225,-1.6096,-1.6083,-1.6083,-1.6083,-1.6083,-1.6083,-1.6083,-1.6083,-1.6083,-1.6083,-1.6083,-1.6083,-1.6083,-1.6083,-1.6083,-1.6083,-1.6083,-1.6083,-1.6083,-1.6083,-1.6083,-1.6083,-1.6083,-1.6069,-1.6035,-1.5961,-1.5872,-1.5825,-1.573,-1.5554,-1.5404,-1.5289,-1.5147,-1.5197,-1.5094,-1.5011,-1.497,-1.4774,-1.4571,-1.4295,-1.435,-1.4428,-1.4303,-1.3918,-1.1872,-0.7331,-0.2507,0.0,0.0,0.0,0.0,0.0,0.0,0.0,0.0,0.0,0.0,0.0,-0.7699,-1.3108,-1.3991,-1.4319,-1.4306,-1.4299,-1.4299,-1.4299,-1.4299,-1.4299,-1.4299,-1.4299,-1.4299,-1.4299,-1.4299,-1.4299,-1.4299,-1.4299,-1.4299,-1.4299,-1.4299,-1.4265,-1.4285,-1.4278,-1.417,-1.4089,-1.4055,-1.3994,-1.3919,-1.3838,-1.3736,-1.3668,-1.3648,-1.3566,-1.3017,-1.0634,-0.6062,0.0,0.0,0.0,0.0,0.0,0.0,0.0,-0.6369,-1.0409,-1.2599,-1.3072,-1.3397,-1.3397,-1.3397,-1.3397,-1.3397,-1.6659,-1.6503,-1.6374,-1.6426,-1.6096,-1.6083,-1.6083,-1.6083,-1.6083,-1.6083,-1.6083,-1.6083,-1.6083,-1.6083,-1.6083,-1.6083,-1.6083,-1.6083,-1.6083,-1.6083,-1.6083,-1.6083,-1.6083,-1.6083,-1.6083,-1.6083,-1.6083,-1.6083,-1.6076,-1.6049,-1.5967,-1.5872,-1.6035,-1.589,-1.5499,-1.5371,-1.5296,-1.5167,-1.5272,-1.5025,-1.495,-1.4909,-1.4869,-1.4408,-1.449,-1.4604,-1.4363,-1.4016,-1.2136,-0.7338,-0.2509,0.0,0.0,0.0,0.0,0.0,0.0,0.0,0.0,0.0,0.0,0.0,-0.5541,-1.0565,-1.3077,-1.4319,-1.4299,-1.4299,-1.4299,-1.4299,-1.4299,-1.4299,-1.4299,-1.4299,-1.4299,-1.4299,-1.4299,-1.4299,-1.4299,-1.4299,-1.4299,-1.4299,-1.4299,-1.4299,-1.4299,-1.4299,-1.4251,-1.4204,-1.419,-1.4129,-1.4055,-1.398,-1.3899,-1.3844,-1.3804,-1.3695,-1.3277,-1.2089,-0.8315,-0.3879,0.0,0.0,0.0,0.0,0.0,0.0,-0.5706,-0.9913,-1.2266,-1.3258,-1.341,-1.3397,-1.3397,-1.3397,-1.3397,-1.6544,-1.6192,-1.6252,-1.6151,-1.609,-1.6083,-1.6083,-1.6083,-1.6083,-1.6083,-1.6083,-1.6083,-1.6083,-1.6083,-1.6083,-1.6083,-1.6083,-1.6083,-1.6083,-1.6083,-1.6083,-1.6083,-1.6083,-1.6083,-1.6083,-1.6083,-1.6083,-1.6083,-1.6083,-1.6076,-1.6035,-1.5995,-1.5974,-1.5859,-1.5669,-1.556,-1.5445,-1.5323,-1.5221,-1.5153,-1.5072,-1.5025,-1.495,-1.4758,-1.4638,-1.4746,-1.4753,-1.4423,-1.1989,-0.775,-0.5022,-0.538,-0.5204,0.0,0.0,0.0,0.0,0.0,0.0,0.0,0.0,0.0,-0.447,-0.9126,-1.2728,-1.4333,-1.4299,-1.4299,-1.4299,-1.4299,-1.4299,-1.4299,-1.4299,-1.4299,-1.4299,-1.4299,-1.4299,-1.4299,-1.4299,-1.4299,-1.4299,-1.4299,-1.4299,-1.4299,-1.4299,-1.4299,-1.4299,-1.4299,-1.4299,-1.4238,-1.4156,-1.4122,-1.4041,-1.3966,-1.3919,-1.3824,-1.3763,-1.2557,-0.9588,-0.5272,0.0,0.0,0.0,0.0,0.0,0.0,-0.3862,-0.7722,-1.0576,-1.3271,-1.3417,-1.3403,-1.3403,-1.3397,-1.3397,-1.6435,-1.6091,-1.6144,-1.6083,-1.6083,-1.6083,-1.6083,-1.6083,-1.6083,-1.6083,-1.6083,-1.6083,-1.6083,-1.6083,-1.6083,-1.6083,-1.6083,-1.6083,-1.6083,-1.6083,-1.6083,-1.6083,-1.6083,-1.6083,-1.6083,-1.6083,-1.6083,-1.6083,-1.6083,-1.6083,-1.6083,-1.6062,-1.6076,-1.6001,-1.5839,-1.5723,-1.5588,-1.5425,-1.5303,-1.5221,-1.516,-1.5086,-1.5059,-1.516,-1.495,-1.4889,-1.5094,-1.4794,-1.2806,-0.9441,-0.7214,-0.7721,-1.171,-0.6994,0.0,0.0,0.0,0.0,0.0,0.0,0.0,0.0,0.0,-1.0045,-1.2746,-1.4346,-1.4299,-1.4299,-1.4299,-1.4299,-1.4299,-1.4299,-1.4299,-1.4299,-1.4299,-1.4299,-1.4299,-1.4299,-1.4299,-1.4299,-1.4299,-1.4299,-1.4299,-1.4299,-1.4299,-1.4299,-1.4299,-1.4299,-1.4299,-1.4299,-1.4251,-1.4245,-1.4183,-1.4089,-1.4021,-1.396,-1.3926,-1.3588,-0.9688,-0.515,-0.3603,0.0,0.0,0.0,0.0,0.0,0.0,-0.5706,-0.9559,-1.2081,-1.2912,-1.341,-1.3403,-1.3397,-1.3397,-1.6442,-1.6293,-1.6144,-1.6083,-1.6083,-1.6083,-1.6083,-1.6083,-1.6083,-1.6083,-1.6083,-1.6083,-1.6083,-1.6083,-1.6083,-1.6083,-1.6083,-1.6083,-1.6083,-1.6083,-1.6083,-1.6083,-1.6083,-1.6083,-1.6083,-1.6083,-1.6083,-1.6083,-1.6083,-1.6083,-1.6083,-1.6083,-1.6069,-1.6015,-1.5893,-1.6028,-1.5877,-1.5466,-1.52,-1.5127,-1.5208,-1.5167,-1.516,-1.516,-1.5126,-1.5065,-1.5197,-1.4923,-1.4093,-1.2624,-0.5447,-0.6146,-1.2102,-1.372,-0.7713,0.0,0.0,0.0,0.0,0.0,0.0,0.0,0.0,-1.2425,-1.4031,-1.434,-1.4299,-1.4299,-1.4299,-1.4299,-1.4299,-1.4299,-1.4299,-1.4299,-1.4299,-1.4299,-1.4299,-1.4299,-1.4299,-1.4299,-1.4299,-1.4299,-1.4299,-1.4299,-1.4299,-1.4299,-1.4299,-1.4299,-1.4299,-1.4299,-1.4299,-1.4278,-1.4272,-1.419,-1.4143,-1.4082,-1.4075,-1.4102,-1.0862,-0.6079,-0.3293,-0.2426,0.0,0.0,0.0,0.0,0.0,-0.4387,-0.8738,-1.1415,-1.2925,-1.3417,-1.3403,-1.3397,-1.3397,-1.6313,-1.6178,-1.611,-1.6083,-1.6083,-1.6083,-1.6083,-1.6083,-1.6083,-1.6083,-1.6083,-1.6083,-1.6083,-1.6083,-1.6083,-1.6083,-1.6083,-1.6083,-1.6083,-1.6083,-1.6083,-1.6083,-1.6083,-1.6083,-1.6083,-1.6083,-1.6083,-1.6083,-1.6083,-1.6083,-1.6083,-1.6083,-1.6083,-1.6062,-1.5961,-1.6096,-1.5993,-1.5649,-1.5506,-1.5187,-1.5303,-1.5228,-1.5181,-1.5181,-1.5181,-1.514,-1.5099,-1.5011,-1.4984,-1.4081,-0.9716,-0.8344,-1.0675,-1.2275,-1.1861,0.0,0.0,0.0,0.0,0.0,0.0,0.0,-0.6281,-1.0779,-1.328,-1.4333,-1.4299,-1.4299,-1.4299,-1.4299,-1.4299,-1.4299,-1.4299,-1.4299,-1.4299,-1.4299,-1.4299,-1.4299,-1.4299,-1.4299,-1.4299,-1.4299,-1.4299,-1.4299,-1.4299,-1.4299,-1.4299,-1.4299,-1.4299,-1.4299,-1.4299,-1.4299,-1.4292,-1.4272,-1.4251,-1.4217,-1.4217,-1.4238,-1.4095,-0.9009,-0.2979,-0.21,-0.4553,-0.576,0.0,0.0,-0.0855,-0.2373,-0.6059,-0.9746,-1.3284,-1.3431,-1.3417,-1.3397,-1.3397,-1.6185,-1.6083,-1.6083,-1.6083,-1.6083,-1.6083,-1.6083,-1.6083,-1.6083,-1.6083,-1.6083,-1.6083,-1.6083,-1.6083,-1.6083,-1.6083,-1.6083,-1.6083,-1.6083,-1.6083,-1.6083,-1.6083,-1.6083,-1.6083,-1.6083,-1.6083,-1.6083,-1.6083,-1.6083,-1.6083,-1.6083,-1.6083,-1.6083,-1.6076,-1.6049,-1.6186,-1.6089,-1.6,-1.5594,-1.5459,-1.5194,-1.5303,-1.5235,-1.5194,-1.5181,-1.5181,-1.5167,-1.5099,-1.5065,-1.4792,-1.315,-1.0993,-1.0952,-1.2927,-1.4176,-1.1601,-0.6326,0.0,0.0,0.0,0.0,0.0,-0.448,-0.9678,-1.3464,-1.4326,-1.4299,-1.4299,-1.4299,-1.4299,-1.4299,-1.4299,-1.4299,-1.4299,-1.4299,-1.4299,-1.4299,-1.4299,-1.4299,-1.4299,-1.4299,-1.4299,-1.4299,-1.4299,-1.4299,-1.4299,-1.4299,-1.4299,-1.4299,-1.4299,-1.4299,-1.4299,-1.4299,-1.4299,-1.4292,-1.4299,-1.4319,-1.434,-1.4373,-1.1643,-0.5311,-0.3004,-0.4069,-0.4753,-0.56,-0.3833,-0.1907,-0.2565,-0.3546,-0.7768,-1.1322,-1.2958,-1.3437,-1.3424,-1.3444,-1.609,-1.6083,-1.6083,-1.6083,-1.6083,-1.6083,-1.6083,-1.6083,-1.6083,-1.6083,-1.6083,-1.6083,-1.6083,-1.6083,-1.6083,-1.6083,-1.6083,-1.6083,-1.6083,-1.6083,-1.6083,-1.6083,-1.6083,-1.6083,-1.6083,-1.6083,-1.6083,-1.6083,-1.6083,-1.6083,-1.6083,-1.6083,-1.6083,-1.6083,-1.6076,-1.6042,-1.6179,-1.6083,-1.5703,-1.5554,-1.5274,-1.5377,-1.5316,-1.5208,-1.5181,-1.5181,-1.5181,-1.5153,-1.512,-1.5065,-1.3258,-1.2616,-1.3108,-1.3984,-1.4706,-1.3211,-1.0077,-0.4757,0.0,0.0,0.0,0.0,-0.4476,-0.9134,-1.3662,-1.4333,-1.4306,-1.4299,-1.4299,-1.4299,-1.4299,-1.4299,-1.4299,-1.4299,-1.4299,-1.4299,-1.4299,-1.4299,-1.4299,-1.4299,-1.4299,-1.4299,-1.4299,-1.4299,-1.4299,-1.4299,-1.4299,-1.4299,-1.4299,-1.4299,-1.4299,-1.4299,-1.4299,-1.4299,-1.4299,-1.4306,-1.4312,-1.4326,-1.436,-1.1649,-0.7314,-0.6065,-0.3383,-0.6945,-0.7975,-0.547,-0.3866,-0.592,-0.7245,-0.7688,-0.9521,-1.2402,-1.3553,-1.3532,-1.3559,-1.6083,-1.6083,-1.6083,-1.6083,-1.6083,-1.6083,-1.6083,-1.6083,-1.6083,-1.6083,-1.6083,-1.6083,-1.6083,-1.6083,-1.6083,-1.6083,-1.6083,-1.6083,-1.6083,-1.6083,-1.6083,-1.6083,-1.6083,-1.6083,-1.6083,-1.6083,-1.6083,-1.6083,-1.6083,-1.6083,-1.6083,-1.6083,-1.6083,-1.6083,-1.6083,-1.6083,-1.6042,-1.5981,-1.5845,-1.5696,-1.5567,-1.5438,-1.5337,-1.5201,-1.5181,-1.5181,-1.5181,-1.5181,-1.5174,-1.4759,-1.3728,-1.4043,-1.4553,-1.4862,-1.4821,-1.4821,-1.2214,-0.7763,0.0,0.0,0.0,0.0,-0.4474,-0.9126,-1.3668,-1.434,-1.4306,-1.4299,-1.4299,-1.4299,-1.4299,-1.4299,-1.4299,-1.4299,-1.4299,-1.4299,-1.4299,-1.4299,-1.4299,-1.4299,-1.4299,-1.4299,-1.4299,-1.4299,-1.4299,-1.4299,-1.4299,-1.4299,-1.4299,-1.4299,-1.4299,-1.4299,-1.4299,-1.4299,-1.4299,-1.4299,-1.4299,-1.4319,-1.434,-1.1821,-0.8587,-0.3394,-0.2143,-0.6621,-1.059,-0.9286,-0.9078,-1.0485,-1.11,-1.094,-1.1567,-1.3101,-1.3736,-1.3648,-1.3688,-1.6083,-1.6083,-1.6083,-1.6083,-1.6083,-1.6083,-1.6083,-1.6083,-1.6083,-1.6083,-1.6083,-1.6083,-1.6083,-1.6083,-1.6083,-1.6083,-1.6083,-1.6083,-1.6083,-1.6083,-1.6083,-1.6083,-1.6083,-1.6083,-1.6083,-1.6083,-1.6083,-1.6083,-1.6083,-1.6083,-1.6083,-1.6083,-1.6083,-1.6083,-1.6083,-1.6083,-1.6083,-1.6049,-1.5981,-1.5845,-1.571,-1.556,-1.5411,-1.5269,-1.5215,-1.5181,-1.5181,-1.5181,-1.5194,-1.5174,-1.4946,-1.5079,-1.5031,-1.4984,-1.4923,-1.4923,-1.3992,-1.062,-0.4638,0.0,0.0,0.0,-0.4478,-0.9139,-1.2746,-1.434,-1.4299,-1.4299,-1.4299,-1.4299,-1.4299,-1.4299,-1.4299,-1.4299,-1.4299,-1.4299,-1.4299,-1.4299,-1.4299,-1.4299,-1.4299,-1.4299,-1.4299,-1.4299,-1.4299,-1.4299,-1.4299,-1.4299,-1.4299,-1.4299,-1.4299,-1.4299,-1.4299,-1.4299,-1.4299,-1.4299,-1.4299,-1.4312,-1.4149,-1.309,-0.9665,-0.4289,-0.0537,-0.2861,-0.6812,-1.1531,-1.2413,-1.1083,-1.2243,-1.372,-1.3994,-1.3899,-1.3824,-1.3756,-1.3824,-1.6083,-1.6083,-1.6083,-1.6083,-1.6083,-1.6083,-1.6083,-1.6083,-1.6083,-1.6083,-1.6083,-1.6083,-1.6083,-1.6083,-1.6083,-1.6083,-1.6083,-1.6083,-1.6083,-1.6083,-1.6083,-1.6083,-1.6083,-1.6083,-1.6083,-1.6083,-1.6083,-1.6083,-1.6083,-1.6083,-1.6083,-1.6083,-1.6083,-1.6083,-1.6083,-1.6083,-1.6083,-1.6076,-1.6069,-1.5967,-1.6028,-1.5689,-1.556,-1.5418,-1.5316,-1.5276,-1.5228,-1.5269,-1.5262,-1.5187,-1.5208,-1.5181,-1.514,-1.514,-1.512,-1.5126,-1.5181,-1.2328,-0.7383,-0.2589,0.0,0.0,-0.4318,-0.9134,-1.293,-1.4346,-1.4299,-1.4299,-1.4299,-1.4299,-1.4299,-1.4299,-1.4299,-1.4299,-1.4299,-1.4299,-1.4299,-1.4299,-1.4299,-1.4299,-1.4299,-1.4299,-1.4299,-1.4299,-1.4299,-1.4299,-1.4299,-1.4299,-1.4299,-1.4299,-1.4299,-1.4299,-1.4299,-1.4299,-1.4299,-1.4299,-1.4299,-1.4312,-1.4142,-1.3261,-1.0926,-0.6258,-0.3219,-0.1432,-0.4297,-0.988,-1.06,-1.0406,-1.0692,-1.0972,-1.352,-1.396,-1.3892,-1.3892,-1.398,-1.6083,-1.6083,-1.6083,-1.6083,-1.6083,-1.6083,-1.6083,-1.6083,-1.6083,-1.6083,-1.6083,-1.6083,-1.6083,-1.6083,-1.6083,-1.6083,-1.6083,-1.6083,-1.6083,-1.6083,-1.6083,-1.6083,-1.6083,-1.6083,-1.6083,-1.6083,-1.6083,-1.6083,-1.6083,-1.6083,-1.6083,-1.6083,-1.6083,-1.6083,-1.6083,-1.6083,-1.6083,-1.6083,-1.6069,-1.6008,-1.6069,-1.5798,-1.5703,-1.5567,-1.5493,-1.5418,-1.5343,-1.5398,-1.5371,-1.5248,-1.5255,-1.5276,-1.5208,-1.5181,-1.5181,-1.5187,-1.5033,-1.1023,-0.5304,0.0,0.0,0.0,-0.3971,-0.8615,-1.3483,-1.4155,-1.4306,-1.4299,-1.4306,-1.4299,-1.4299,-1.4299,-1.4299,-1.4299,-1.4299,-1.4299,-1.4299,-1.4299,-1.4299,-1.4299,-1.4299,-1.4299,-1.4299,-1.4299,-1.4299,-1.4299,-1.4299,-1.4299,-1.4299,-1.4299,-1.4299,-1.4299,-1.4299,-1.4299,-1.4299,-1.4299,-1.4299,-1.4306,-1.4312,-1.4142,-1.1088,-0.8048,-0.5725,-0.3759,-0.5906,-0.8238,-0.9692,-1.0247,-0.7527,-0.7481,-1.0962,-1.3766,-1.4109,-1.4122,-1.4183,-1.6083,-1.6083,-1.6083,-1.6083,-1.6083,-1.6083,-1.6083,-1.6083,-1.6083,-1.6083,-1.6083,-1.6083,-1.6083,-1.6083,-1.6083,-1.6083,-1.6083,-1.6083,-1.6083,-1.6083,-1.6083,-1.6083,-1.6083,-1.6083,-1.6083,-1.6083,-1.6083,-1.6083,-1.6083,-1.6083,-1.6083,-1.6083,-1.6083,-1.6083,-1.6083,-1.6083,-1.6083,-1.6083,-1.6069,-1.6042,-1.6144,-1.5879,-1.5805,-1.5716,-1.5649,-1.5588,-1.554,-1.5533,-1.5533,-1.5371,-1.533,-1.5343,-1.5235,-1.5181,-1.5181,-1.5194,-1.4467,-1.0649,-0.5306,-0.0566,0.0,0.0,0.0,-0.7787,-1.2693,-1.4296,-1.4414,-1.438,-1.434,-1.4319,-1.4319,-1.4319,-1.4312,-1.4312,-1.4299,-1.4299,-1.4299,-1.4299,-1.4299,-1.4299,-1.4299,-1.4299,-1.4299,-1.4299,-1.4299,-1.4299,-1.4299,-1.4299,-1.4299,-1.4299,-1.4299,-1.4299,-1.4299,-1.4299,-1.4299,-1.4299,-1.4299,-1.4299,-1.4306,-1.4312,-1.3616,-1.1109,-0.8417,-0.663,-0.8611,-1.0421,-1.0983,-1.0262,-0.717,-0.7156,-1.0175,-1.2491,-1.3958,-1.4306,-1.4299,-1.6083,-1.6083,-1.6083,-1.6083,-1.6083,-1.6083,-1.6083,-1.6083,-1.6083,-1.6083,-1.6083,-1.6083,-1.6083,-1.6083,-1.6083,-1.6083,-1.6083,-1.6083,-1.6083,-1.6083,-1.6083,-1.6083,-1.6083,-1.6083,-1.6083,-1.6083,-1.6083,-1.6083,-1.6083,-1.6083,-1.6083,-1.6083,-1.6083,-1.6083,-1.6083,-1.6083,-1.6083,-1.6083,-1.6076,-1.6062,-1.6015,-1.5947,-1.59,-1.5839,-1.5778,-1.571,-1.5676,-1.5683,-1.5601,-1.5499,-1.5445,-1.5343,-1.5255,-1.5194,-1.5187,-1.5201,-1.5255,-1.1805,-0.721,-0.2641,0.0,0.0,0.0,0.0,-1.0856,-1.3719,-1.457,-1.4509,-1.4462,-1.4401,-1.4353,-1.4346,-1.434,-1.4326,-1.4312,-1.4306,-1.4299,-1.4299,-1.4299,-1.4299,-1.4299,-1.4299,-1.4299,-1.4299,-1.4299,-1.4299,-1.4299,-1.4299,-1.4299,-1.4299,-1.4299,-1.4299,-1.4299,-1.4299,-1.4299,-1.4299,-1.4299,-1.4299,-1.4299,-1.4312,-1.3978,-1.3274,-1.003,-0.8782,-1.1152,-1.2443,-1.2621,-1.0243,-0.6621,-0.787,-1.1293,-1.2361,-1.434,-1.4312,-1.4299,-1.6083,-1.6083,-1.6083,-1.6083,-1.6083,-1.6083,-1.6083,-1.6083,-1.6083,-1.6083,-1.6083,-1.6083,-1.6083,-1.6083,-1.6083,-1.6083,-1.6083,-1.6083,-1.6083,-1.6083,-1.6083,-1.6083,-1.6083,-1.6083,-1.6083,-1.6083,-1.6083,-1.6083,-1.6083,-1.6083,-1.6083,-1.6083,-1.6083,-1.6083,-1.6083,-1.6083,-1.6083,-1.6083,-1.6083,-1.6083,-1.6083,-1.6022,-1.5995,-1.5974,-1.5954,-1.5879,-1.5825,-1.5913,-1.5818,-1.5628,-1.571,-1.5649,-1.5364,-1.5337,-1.5323,-1.5201,-1.4669,-1.2974,-0.7978,0.0,0.0,0.0,0.0,0.0,-0.8343,-1.2541,-1.4348,-1.4665,-1.4604,-1.455,-1.4509,-1.4496,-1.4468,-1.4448,-1.4401,-1.434,-1.4333,-1.4312,-1.4306,-1.4299,-1.4299,-1.4299,-1.4299,-1.4299,-1.4299,-1.4299,-1.4299,-1.4299,-1.4299,-1.4299,-1.4299,-1.4299,-1.4299,-1.4299,-1.4299,-1.4299,-1.4299,-1.4299,-1.4299,-1.4306,-1.4142,-1.3071,-1.0555,-0.9491,-0.9514,-1.1509,-1.4057,-1.1125,-0.8044,-1.0406,-1.3502,-1.4018,-1.4353,-1.4326,-1.4299,-1.6083,-1.6083,-1.6083,-1.6083,-1.6083,-1.6083,-1.6083,-1.6083,-1.6083,-1.6083,-1.6083,-1.6083,-1.6083,-1.6083,-1.6083,-1.6083,-1.6083,-1.6083,-1.6083,-1.6083,-1.6083,-1.6083,-1.6083,-1.6083,-1.6083,-1.6083,-1.6083,-1.6083,-1.6083,-1.6083,-1.6083,-1.6083,-1.6083,-1.6083,-1.6083,-1.6083,-1.6083,-1.6083,-1.6083,-1.6083,-1.6083,-1.6083,-1.609,-1.6096,-1.609,-1.5823,-1.5981,-1.6103,-1.5967,-1.5771,-1.5879,-1.5791,-1.5547,-1.5499,-1.5371,-1.5269,-1.5113,-1.2411,-0.7989,-0.2851,0.0,0.0,0.0,0.0,-0.7316,-1.1944,-1.3764,-1.4835,-1.4774,-1.4719,-1.4692,-1.4665,-1.4631,-1.4597,-1.4496,-1.4394,-1.436,-1.4326,-1.4312,-1.4299,-1.4299,-1.4299,-1.4299,-1.4299,-1.4299,-1.4299,-1.4299,-1.4299,-1.4299,-1.4299,-1.4299,-1.4299,-1.4299,-1.4299,-1.4299,-1.4299,-1.4299,-1.4299,-1.4299,-1.4299,-1.4306,-1.3059,-1.0733,-0.823,-0.6088,-0.9147,-1.2592,-1.2568,-1.1104,-1.3305,-1.4229,-1.4367,-1.4346,-1.4346,-1.4319,-1.6056,-1.6056,-1.6056,-1.6022,-1.6042,-1.6042,-1.6056,-1.6069,-1.6069,-1.6083,-1.6083,-1.6083,-1.6083,-1.6083,-1.6083,-1.6083,-1.6083,-1.6083,-1.6083,-1.6083,-1.6083,-1.6083,-1.6083,-1.6083,-1.6083,-1.6083,-1.6083,-1.6083,-1.6083,-1.6083,-1.6083,-1.6083,-1.6083,-1.6083,-1.6083,-1.6083,-1.6083,-1.6083,-1.6083,-1.6083,-1.6083,-1.609,-1.6103,-1.5917,-1.5698,-1.5472,-1.5911,-1.611,-1.6056,-1.5954,-1.5893,-1.5859,-1.573,-1.5615,-1.5452,-1.5398,-1.5241,-1.3263,-0.8984,-0.3624,0.0,0.0,0.0,0.0,-0.7181,-1.2262,-1.4486,-1.4991,-1.493,-1.4896,-1.4875,-1.4814,-1.4767,-1.4719,-1.4638,-1.4563,-1.4523,-1.4462,-1.438,-1.436,-1.4319,-1.4312,-1.4299,-1.4299,-1.4299,-1.4299,-1.4299,-1.4299,-1.4299,-1.4299,-1.4299,-1.4299,-1.4299,-1.4299,-1.4299,-1.4299,-1.4299,-1.4299,-1.4299,-1.4299,-1.4299,-1.2875,-1.0916,-0.8769,-0.6981,-0.825,-1.0595,-1.1293,-1.2544,-1.3649,-1.4373,-1.4346,-1.4333,-1.434,-1.4333,-1.5906,-1.59,-1.5791,-1.5744,-1.5757,-1.5859,-1.5913,-1.6124,-1.6035,-1.6076,-1.6083,-1.6083,-1.6083,-1.6083,-1.6083,-1.6083,-1.6083,-1.6083,-1.6083,-1.6083,-1.6083,-1.6083,-1.6083,-1.6083,-1.6083,-1.6083,-1.6083,-1.6083,-1.6083,-1.6083,-1.6083,-1.6083,-1.6083,-1.6083,-1.6083,-1.6083,-1.6083,-1.6083,-1.6083,-1.6083,-1.6083,-1.611,-1.6123,-1.5106,-1.4277,-1.4077,-1.4713,-1.6164,-1.6117,-1.6056,-1.6103,-1.6008,-1.5818,-1.571,-1.5615,-1.5554,-1.5381,-1.4174,-1.1387,-0.5756,0.0,0.0,0.0,0.0,-0.723,-1.2183,-1.502,-1.4953,-1.5092,-1.5065,-1.5031,-1.4964,-1.4903,-1.4848,-1.478,-1.4733,-1.4679,-1.4577,-1.4475,-1.4421,-1.4367,-1.4333,-1.4319,-1.4299,-1.4299,-1.4299,-1.4299,-1.4299,-1.4299,-1.4299,-1.4299,-1.4299,-1.4299,-1.4299,-1.4299,-1.4299,-1.4299,-1.4299,-1.4299,-1.4299,-1.4299,-1.342,-1.2177,-1.0204,-0.8956,-0.9322,-1.0045,-1.2188,-1.3268,-1.4004,-1.4353,-1.4333,-1.4333,-1.434,-1.4326,-1.5757,-1.5744,-1.5676,-1.5635,-1.5655,-1.573,-1.5798,-1.6062,-1.6144,-1.6022,-1.6076,-1.6083,-1.6083,-1.6083,-1.6083,-1.6083,-1.6083,-1.6083,-1.6083,-1.6083,-1.6083,-1.6083,-1.6083,-1.6083,-1.6083,-1.6083,-1.6083,-1.6083,-1.6083,-1.6083,-1.6083,-1.6083,-1.6083,-1.6083,-1.6083,-1.6083,-1.6083,-1.6083,-1.6083,-1.6083,-1.6083,-1.611,-1.4301,-1.2873,-1.1459,-1.1864,-1.4738,-1.6198,-1.6157,-1.6117,-1.6117,-1.6029,-1.59,-1.5859,-1.5764,-1.5696,-1.5683,-1.5522,-1.3251,-0.9285,-0.3272,0.0,0.0,0.0,-0.3233,-0.7974,-1.2939,-1.3457,-1.4966,-1.5126,-1.5126,-1.5072,-1.5065,-1.5025,-1.4923,-1.4835,-1.476,-1.4665,-1.4618,-1.4597,-1.4523,-1.4428,-1.4394,-1.4326,-1.4319,-1.4299,-1.4299,-1.4299,-1.4299,-1.4299,-1.4299,-1.4299,-1.4299,-1.4299,-1.4299,-1.4299,-1.4299,-1.4299,-1.4299,-1.4299,-1.4299,-1.4326,-1.3445,-1.1643,-0.9847,-0.8238,-0.9491,-1.2011,-1.3452,-1.4182,-1.4346,-1.4326,-1.4333,-1.4333,-1.4319,-1.5594,-1.5581,-1.5574,-1.5574,-1.5588,-1.5608,-1.5676,-1.598,-1.6021,-1.6117,-1.6029,-1.6042,-1.6062,-1.6083,-1.6083,-1.6083,-1.6083,-1.6083,-1.6083,-1.6083,-1.6083,-1.6083,-1.6083,-1.6083,-1.6083,-1.6083,-1.609,-1.6083,-1.6083,-1.6083,-1.6083,-1.6083,-1.6083,-1.6083,-1.6083,-1.6083,-1.6083,-1.6083,-1.6083,-1.6083,-1.6096,-1.5917,-1.3084,-1.0057,-0.7838,-1.0066,-1.3134,-1.5797,-1.5771,-1.613,-1.609,-1.6022,-1.5988,-1.5967,-1.5906,-1.5832,-1.5839,-1.5825,-1.4938,-1.267,-0.7745,0.0,-0.1719,-0.0571,-0.1713,-0.4938,-0.9883,-1.3122,-1.4636,-1.5181,-1.5181,-1.5174,-1.5174,-1.516,-1.5045,-1.4957,-1.4875,-1.4787,-1.4767,-1.476,-1.4665,-1.4563,-1.4468,-1.4387,-1.4346,-1.4326,-1.4299,-1.4299,-1.4299,-1.4299,-1.4299,-1.4299,-1.4299,-1.4299,-1.4299,-1.4299,-1.4299,-1.4299,-1.4299,-1.4299,-1.4306,-1.4319,-1.3978,-1.3261,-1.146,-1.0035,-1.004,-1.2022,-1.328,-1.3998,-1.4333,-1.4312,-1.4312,-1.4312,-1.4306,-1.5377,-1.5269,-1.5269,-1.5276,-1.5289,-1.5404,-1.5472,-1.5513,-1.5835,-1.6161,-1.6076,-1.611,-1.6158,-1.6076,-1.6083,-1.6083,-1.6083,-1.6083,-1.6083,-1.6083,-1.6083,-1.6083,-1.6083,-1.609,-1.6083,-1.5479,-1.5081,-1.6103,-1.609,-1.6083,-1.6083,-1.6083,-1.6083,-1.6083,-1.6083,-1.6083,-1.6083,-1.6083,-1.6083,-1.6083,-1.6103,-1.5112,-1.27,-0.8851,-0.3817,-0.5829,-0.8858,-1.3742,-1.5538,-1.611,-1.6076,-1.6056,-1.6049,-1.6049,-1.6001,-1.5974,-1.5988,-1.5947,-1.5257,-1.4592,-1.0968,-1.0302,-0.6749,-0.0767,-0.2296,-0.4757,-0.9517,-1.392,-1.5235,-1.5194,-1.5181,-1.5181,-1.5181,-1.5181,-1.5106,-1.5099,-1.5059,-1.4977,-1.4923,-1.4875,-1.4801,-1.4679,-1.4557,-1.4489,-1.4428,-1.4394,-1.4333,-1.4326,-1.4306,-1.4299,-1.4306,-1.4299,-1.4299,-1.4299,-1.4299,-1.4299,-1.4299,-1.4299,-1.4299,-1.4299,-1.4299,-1.4306,-1.3958,-1.361,-1.3636,-1.2752,-1.3121,-1.1844,-1.274,-1.3452,-1.4142,-1.4306,-1.4299,-1.4299,-1.4299]}]]